[[{"header":{"parameterUnit":"m.s-1","parameterCategory":1,"la1":31.0,"la2":29.5877,"lo1":-88.7671,"lo2":-86.6584,"dx":0.0162,"dy":0.0185,"nx":115,"ny":88,"refTime":"2022-12-30T18:00:00:Z","depth":0,"parameterNumber":2,"parameterNumberName":"U-component_of_WINDS"},"data":[0.0,0.0,0.0,0.0,0.0,0.0,0.0,0.0,0.0,0.0,0.0,0.0,0.0,0.0,0.0,0.0,0.0,0.0,0.0,0.0,0.0,0.0,0.0,0.0,0.0,0.0,0.0,0.0,0.0,0.0,0.0,0.0,0.0,0.0,0.0,0.0,0.0,0.0,0.0,0.0,0.0,0.0,0.0,0.0,0.0,0.0,0.0,0.0,0.0,0.0,0.0,0.0,0.0,0.0,0.0,0.0,0.0,0.0,0.0,0.0,0.0,0.0,0.0,0.0,0.0,0.0,0.0,0.0,0.0,0.0,0.0,0.0,0.0,0.0,0.0,0.0,0.0,0.0,0.0,0.0,0.0,0.0,0.0,0.0,0.0,0.0,0.0,0.0,0.0,0.0,0.0,0.0,0.0,0.0,0.0,0.0,0.0,0.0,0.0,0.0,0.0,0.0,0.0,0.0,0.0,0.0,0.0,0.0,0.0,0.0,0.0,0.0,0.0,0.0,0.0,0.0,0.0,0.0,0.0,0.0,0.0,0.0,0.0,0.0,0.0,0.0,0.0,0.0,0.0,0.0,0.0,0.0,0.0,0.0,0.0,0.0,0.0,0.0,0.0,0.0,0.0,0.0,0.0,0.0,0.0,0.0,0.0,0.0,0.0,0.0,0.0,0.0,0.0,0.0,0.0,0.0,0.0,0.0,0.0,0.0,0.0,0.0,0.0,0.0,0.0,0.0,0.0,0.0,0.0,0.0,0.0,0.0,0.0,0.0,0.0,0.0,0.0,0.0,0.0,0.0,0.0,0.0,0.0,0.0,0.0,0.0,0.0,0.0,0.0,0.0,0.0,0.0,0.0,0.0,0.0,0.0,0.0,0.0,0.0,0.0,0.0,0.0,0.0,0.0,0.0,0.0,0.0,0.0,0.0,0.0,0.0,0.0,0.0,0.0,0.0,0.0,0.0,0.0,0.0,0.0,0.0,0.0,0.0,0.0,0.0,0.0,0.0,0.0,0.0,0.0,0.0,0.0,0.0,0.0,0.0,0.0,0.0,0.0,0.0,0.0,0.0,0.0,0.0,0.0,0.0,0.0,0.0,0.0,0.0,0.0,0.0,0.0,0.0,0.0,0.0,0.0,0.0,0.0,0.0,0.0,0.0,0.0,0.0,0.0,0.0,0.0,0.0,0.0,0.0,0.0,0.0,0.0,0.0,0.0,0.0,0.0,0.0,0.0,0.0,0.0,0.0,0.0,0.0,0.0,0.0,0.0,0.0,0.0,0.0,0.0,0.0,0.0,0.0,0.0,0.0,0.0,0.0,0.0,0.0,0.0,0.0,0.0,0.0,0.0,0.0,0.0,0.0,0.0,0.0,0.0,0.0,0.0,0.0,0.0,0.0,0.0,0.0,0.0,0.0,0.0,0.0,0.0,0.0,0.0,0.0,0.0,0.0,0.0,0.0,0.0,0.0,0.0,0.0,0.0,0.0,0.0,0.0,0.0,0.0,0.0,0.0,0.0,0.0,0.0,0.0,0.0,0.0,0.0,0.0,0.0,0.0,0.0,0.0,0.0,0.0,0.0,0.0,0.0,0.0,0.0,0.0,0.0,0.0,0.0,0.0,0.0,0.0,0.0,0.0,0.0,0.0,0.0,0.0,0.0,0.0,0.0,0.0,0.0,0.0,0.0,0.0,0.0,0.0,0.0,0.0,0.0,0.0,0.0,0.0,0.0,0.0,0.0,0.0,0.0,0.0,0.0,0.0,0.0,0.0,0.0,0.0,0.0,0.0,0.0,0.0,0.0,0.0,0.0,0.0,0.0,0.0,0.0,0.0,0.0,0.0,0.0,0.0,0.0,0.0,0.0,0.0,0.0,0.0,0.0,0.0,0.0,0.0,0.0,0.0,0.0,0.0,0.0,0.0,0.0,0.0,0.0,0.0,0.0,0.0,0.0,0.0,0.0,0.0,0.0,0.0,0.0,0.0,0.0,0.0,0.0,0.0,0.0,0.0,0.0,0.0,0.0,0.0,0.0,0.0,0.0,0.0,0.0,0.0,0.0,0.0,0.0,0.0,0.0,0.0,0.0,0.0,0.0,0.0,0.0,0.0,0.0,0.0,0.0,0.0,0.0,0.0,0.0,0.0,0.0,0.0,0.0,0.0,0.0,0.0,0.0,0.0,0.0,0.0,0.0,0.0,0.0,0.0,0.0,0.0,0.0,0.0,0.0,0.0,0.0,0.0,0.0,0.0,0.0,0.0,0.0,0.0,0.0,0.0,0.0,0.0,0.0,0.0,0.0,0.0,0.0,0.0,0.0,0.0,0.0,0.0,0.0,0.0,0.0,0.0,0.0,0.0,0.0,0.0,0.0,0.0,0.0,0.0,0.0,0.0,0.0,0.0,0.0,0.0,0.0,0.0,0.0,0.0,0.0,0.0,0.0,0.0,0.0,0.0,0.0,0.0,0.0,0.0,0.0,0.0,0.0,0.0,0.0,0.0,0.0,0.0,0.0,0.0,0.0,0.0,0.0,0.0,0.0,0.0,0.0,0.0,0.0,0.0,0.0,0.0,0.0,0.0,0.0,0.0,0.0,0.0,0.0,0.0,0.0,0.0,0.0,0.0,0.0,0.0,0.0,0.0,0.0,0.0,0.0,0.0,0.0,0.0,0.0,0.0,0.0,0.0,0.0,0.0,0.0,0.0,0.0,0.0,0.0,0.0,0.0,0.0,0.0,0.0,0.0,0.0,0.0,0.0,0.0,0.0,0.0,0.0,0.0,0.0,0.0,0.0,0.0,0.0,0.0,0.0,0.0,0.0,0.0,0.0,0.0,0.0,0.0,0.0,0.0,0.0,0.0,0.0,0.0,0.0,0.0,0.0,0.0,0.0,0.0,0.0,0.0,0.0,0.0,0.0,0.0,0.0,0.0,0.0,0.0,0.0,0.0,0.0,0.0,0.0,0.0,0.0,0.0,0.0,0.0,0.0,0.0,0.0,0.0,0.0,0.0,0.0,0.0,0.0,0.0,0.0,0.0,0.0,0.0,0.0,0.0,0.0,0.0,0.0,0.0,0.0,0.0,0.0,0.0,0.0,0.0,0.0,0.0,0.0,0.0,0.0,0.0,0.0,0.0,0.0,0.0,0.0,0.0,0.0,0.0,0.0,0.0,0.0,0.0,0.0,0.0,0.0,0.0,0.0,0.0,0.0,0.0,0.0,0.0,0.0,0.0,0.0,0.0,0.0,0.0,0.0,0.0,0.0,0.0,0.0,0.0,0.0,0.0,0.0,0.0,0.0,0.0,0.0,0.0,0.0,0.0,0.0,0.0,0.0,0.0,0.0,0.0,0.0,0.0,0.0,0.0,0.0,0.0,0.0,0.0,0.0,0.0,0.0,0.0,0.0,0.0,0.0,0.0,0.0,0.0,0.0,0.0,0.0,0.0,0.0,0.0,0.0,0.0,0.0,0.0,0.0,0.0,0.0,0.0,0.0,0.0,0.0,0.0,0.0,0.0,0.0,0.0,0.0,0.0,0.0,0.0,0.0,0.0,0.0,0.0,0.0,0.0,0.0,0.0,0.0,0.0,0.0,0.0,0.0,0.0,0.0,0.0,0.0,0.0,0.0,0.0,0.0,0.0,0.0,0.0,0.0,0.0,0.0,0.0,0.0,0.0,0.0,0.0,0.0,0.0,0.0,0.0,0.0,0.0,0.0,0.0,0.0,0.0,0.0,0.0,0.0,0.0,0.0,0.0,0.0,0.0,0.0,0.0,0.0,0.0,0.0,0.0,0.0,0.0,0.0,0.0,0.0,0.0,0.0,0.0,0.0,0.0,0.0,0.0,0.0,0.0,0.0,0.0,0.0,0.0,0.0,0.0,0.0,0.0,0.0,0.0,0.0,0.0,0.0,0.0,0.0,0.0,0.0,0.0,0.0,0.0,0.0,0.0,0.0,0.0,0.0,0.0,0.0,0.0,0.0,0.0,0.0,0.0,0.0,0.0,0.0,0.0,0.0,0.0,0.0,0.0,0.0,0.0,0.0,0.0,0.0,0.0,0.0,0.0,0.0,0.0,0.0,0.0,0.0,0.0,0.0,0.0,0.0,0.0,0.0,0.0,0.0,0.0,0.0,0.0,0.0,0.0,0.0,0.0,0.0,0.0,0.0,0.0,0.0,0.0,0.0,0.0,0.0,0.0,0.0,0.0,0.0,0.0,0.0,0.0,0.0,0.0,0.0,0.0,0.0,0.0,0.0,0.0,0.0,0.0,-2.8049,0.0,0.0,0.0,-2.5481,0.0,0.0,0.0,0.0,0.0,0.0,0.0,0.0,0.0,0.0,0.0,0.0,0.0,0.0,0.0,0.0,0.0,0.0,0.0,0.0,0.0,0.0,0.0,0.0,0.0,0.0,0.0,0.0,0.0,0.0,0.0,0.0,0.0,0.0,0.0,0.0,0.0,0.0,0.0,0.0,0.0,0.0,0.0,0.0,0.0,0.0,0.0,0.0,0.0,0.0,0.0,0.0,0.0,0.0,0.0,0.0,0.0,0.0,0.0,0.0,0.0,0.0,0.0,0.0,0.0,0.0,0.0,0.0,0.0,0.0,0.0,0.0,0.0,0.0,0.0,0.0,0.0,0.0,0.0,0.0,0.0,0.0,0.0,0.0,0.0,0.0,0.0,0.0,0.0,0.0,0.0,0.0,0.0,0.0,0.0,0.0,0.0,0.0,0.0,0.0,0.0,0.0,0.0,0.0,0.0,0.0,0.0,0.0,0.0,0.0,-2.7206,-2.626,-2.8081,-2.8005,-2.5698,0.0,0.0,0.0,0.0,0.0,0.0,0.0,0.0,0.0,0.0,0.0,0.0,0.0,0.0,0.0,0.0,0.0,0.0,0.0,0.0,0.0,0.0,0.0,0.0,0.0,0.0,0.0,0.0,0.0,0.0,0.0,0.0,0.0,0.0,0.0,0.0,0.0,0.0,0.0,0.0,0.0,0.0,0.0,0.0,0.0,0.0,0.0,0.0,0.0,0.0,0.0,0.0,0.0,0.0,0.0,0.0,0.0,0.0,0.0,0.0,0.0,0.0,0.0,0.0,0.0,0.0,0.0,0.0,0.0,0.0,0.0,0.0,0.0,0.0,0.0,0.0,0.0,0.0,0.0,0.0,0.0,0.0,0.0,0.0,0.0,0.0,0.0,0.0,0.0,0.0,0.0,0.0,0.0,0.0,0.0,0.0,0.0,0.0,0.0,0.0,0.0,0.0,0.0,0.0,0.0,0.0,0.0,0.0,0.0,0.0,0.0,0.0,-2.8634,-2.8868,-2.7145,0.0,0.0,0.0,0.0,0.0,0.0,0.0,0.0,0.0,0.0,0.0,0.0,0.0,0.0,0.0,0.0,0.0,0.0,0.0,0.0,0.0,0.0,0.0,0.0,0.0,0.0,0.0,0.0,0.0,0.0,0.0,0.0,0.0,0.0,0.0,0.0,0.0,0.0,0.0,0.0,0.0,0.0,0.0,0.0,0.0,0.0,0.0,0.0,0.0,0.0,0.0,0.0,0.0,0.0,0.0,0.0,0.0,0.0,0.0,0.0,0.0,0.0,0.0,0.0,0.0,0.0,0.0,0.0,0.0,0.0,0.0,0.0,0.0,0.0,0.0,0.0,0.0,0.0,0.0,0.0,0.0,0.0,0.0,0.0,0.0,0.0,0.0,0.0,0.0,0.0,0.0,0.0,0.0,0.0,0.0,0.0,0.0,0.0,0.0,0.0,0.0,0.0,0.0,0.0,0.0,0.0,0.0,0.0,0.0,0.0,-2.5852,-2.6586,-2.8671,0.0,-3.0132,0.0,0.0,0.0,0.0,0.0,0.0,0.0,0.0,0.0,0.0,0.0,0.0,0.0,0.0,0.0,0.0,0.0,0.0,0.0,0.0,0.0,0.0,0.0,0.0,0.0,0.0,0.0,0.0,0.0,0.0,0.0,0.0,0.0,0.0,0.0,0.0,0.0,0.0,0.0,0.0,0.0,0.0,0.0,0.0,0.0,0.0,0.0,0.0,0.0,0.0,0.0,0.0,0.0,0.0,0.0,0.0,0.0,0.0,0.0,0.0,0.0,0.0,0.0,0.0,0.0,0.0,0.0,0.0,0.0,0.0,0.0,0.0,0.0,0.0,0.0,0.0,0.0,0.0,0.0,0.0,0.0,0.0,0.0,0.0,0.0,0.0,0.0,0.0,0.0,0.0,0.0,0.0,0.0,0.0,0.0,0.0,0.0,0.0,0.0,0.0,0.0,0.0,0.0,0.0,0.0,0.0,0.0,0.0,0.0,0.0,-2.7028,-2.8475,-2.9469,-3.034,0.0,0.0,0.0,0.0,0.0,0.0,0.0,0.0,0.0,0.0,0.0,0.0,0.0,0.0,0.0,0.0,0.0,0.0,0.0,0.0,0.0,0.0,0.0,0.0,0.0,0.0,0.0,0.0,0.0,0.0,0.0,0.0,0.0,0.0,0.0,0.0,0.0,0.0,0.0,0.0,0.0,0.0,0.0,0.0,0.0,0.0,0.0,0.0,0.0,0.0,0.0,0.0,0.0,0.0,0.0,0.0,0.0,0.0,0.0,0.0,0.0,0.0,0.0,0.0,0.0,0.0,0.0,0.0,0.0,0.0,0.0,0.0,0.0,0.0,0.0,0.0,0.0,0.0,0.0,0.0,0.0,0.0,0.0,0.0,0.0,0.0,0.0,0.0,0.0,0.0,0.0,0.0,0.0,0.0,0.0,0.0,0.0,0.0,0.0,0.0,0.0,0.0,0.0,0.0,0.0,0.0,0.0,0.0,0.0,0.0,-2.6588,-2.8151,-3.0422,-3.0929,-3.1419,-3.2,0.0,0.0,0.0,0.0,0.0,0.0,0.0,0.0,0.0,0.0,0.0,0.0,0.0,0.0,0.0,0.0,0.0,0.0,0.0,0.0,0.0,0.0,0.0,0.0,0.0,0.0,0.0,0.0,0.0,0.0,0.0,0.0,0.0,0.0,0.0,0.0,0.0,0.0,0.0,0.0,0.0,0.0,0.0,0.0,0.0,0.0,0.0,0.0,0.0,0.0,0.0,0.0,0.0,0.0,0.0,0.0,0.0,0.0,0.0,0.0,0.0,0.0,0.0,0.0,0.0,0.0,0.0,0.0,0.0,0.0,0.0,0.0,0.0,0.0,0.0,0.0,0.0,0.0,0.0,0.0,0.0,0.0,0.0,0.0,0.0,0.0,0.0,0.0,0.0,0.0,0.0,0.0,0.0,0.0,0.0,0.0,0.0,0.0,0.0,0.0,0.0,0.0,0.0,0.0,0.0,0.0,0.0,0.0,-2.8904,-2.7736,-2.8772,-3.2348,-3.3295,-3.3446,0.0,0.0,0.0,0.0,0.0,0.0,0.0,0.0,0.0,0.0,0.0,0.0,0.0,0.0,0.0,0.0,0.0,0.0,0.0,0.0,0.0,0.0,0.0,0.0,0.0,0.0,0.0,0.0,0.0,0.0,0.0,0.0,0.0,0.0,0.0,0.0,0.0,0.0,0.0,0.0,0.0,0.0,0.0,0.0,0.0,0.0,0.0,0.0,0.0,0.0,0.0,0.0,0.0,0.0,0.0,0.0,0.0,0.0,0.0,0.0,0.0,0.0,0.0,0.0,0.0,0.0,0.0,0.0,0.0,0.0,0.0,0.0,0.0,0.0,0.0,0.0,0.0,0.0,0.0,0.0,0.0,0.0,0.0,0.0,0.0,0.0,0.0,0.0,0.0,0.0,0.0,0.0,0.0,0.0,0.0,0.0,0.0,0.0,0.0,0.0,0.0,0.0,0.0,0.0,0.0,0.0,0.0,0.0,0.0,-2.6355,-2.7189,-2.9785,-3.4155,-3.2128,-3.2001,0.0,0.0,0.0,0.0,0.0,0.0,0.0,0.0,0.0,0.0,0.0,0.0,0.0,0.0,0.0,0.0,0.0,0.0,0.0,0.0,0.0,0.0,0.0,0.0,0.0,0.0,0.0,0.0,0.0,0.0,0.0,0.0,0.0,0.0,0.0,0.0,0.0,0.0,0.0,0.0,0.0,0.0,0.0,0.0,0.0,0.0,0.0,0.0,0.0,0.0,0.0,0.0,0.0,0.0,0.0,0.0,0.0,0.0,0.0,0.0,0.0,0.0,0.0,0.0,0.0,0.0,0.0,0.0,0.0,0.0,0.0,0.0,0.0,0.0,0.0,0.0,0.0,0.0,0.0,0.0,0.0,0.0,0.0,0.0,0.0,0.0,0.0,0.0,0.0,0.0,0.0,0.0,0.0,0.0,0.0,0.0,0.0,0.0,0.0,0.0,0.0,0.0,0.0,0.0,0.0,0.0,0.0,0.0,0.0,-2.6435,-2.9296,-3.216,-3.4814,-3.2545,-3.2006,0.0,0.0,0.0,0.0,0.0,0.0,0.0,0.0,0.0,0.0,0.0,0.0,0.0,0.0,0.0,0.0,0.0,0.0,0.0,0.0,0.0,0.0,0.0,0.0,0.0,0.0,0.0,0.0,0.0,0.0,0.0,0.0,0.0,0.0,0.0,0.0,0.0,0.0,0.0,0.0,0.0,0.0,0.0,0.0,0.0,0.0,0.0,0.0,0.0,0.0,0.0,0.0,0.0,0.0,0.0,0.0,0.0,0.0,0.0,0.0,0.0,0.0,0.0,0.0,0.0,0.0,0.0,0.0,0.0,0.0,0.0,0.0,0.0,0.0,0.0,0.0,0.0,0.0,0.0,0.0,0.0,0.0,0.0,0.0,0.0,0.0,0.0,0.0,0.0,0.0,0.0,0.0,0.0,0.0,0.0,0.0,0.0,0.0,0.0,0.0,0.0,0.0,0.0,0.0,0.0,0.0,0.0,0.0,-2.5342,-2.9755,-3.4127,-3.5649,-3.4359,-3.4866,-3.3814,0.0,0.0,0.0,0.0,0.0,0.0,0.0,0.0,0.0,0.0,0.0,0.0,0.0,0.0,0.0,0.0,0.0,0.0,0.0,0.0,0.0,0.0,0.0,0.0,0.0,0.0,0.0,0.0,0.0,0.0,0.0,0.0,0.0,0.0,0.0,0.0,0.0,0.0,0.0,0.0,0.0,0.0,0.0,0.0,0.0,0.0,0.0,0.0,0.0,0.0,0.0,0.0,0.0,0.0,0.0,0.0,0.0,0.0,0.0,0.0,0.0,0.0,0.0,0.0,0.0,0.0,0.0,0.0,0.0,0.0,0.0,0.0,0.0,0.0,0.0,0.0,0.0,0.0,0.0,0.0,0.0,0.0,0.0,0.0,0.0,0.0,0.0,0.0,0.0,0.0,0.0,0.0,0.0,0.0,0.0,0.0,0.0,0.0,0.0,0.0,0.0,0.0,0.0,0.0,0.0,0.0,0.0,0.0,0.0,-2.8478,-3.2844,-3.5754,-3.6826,-3.4327,-3.381,0.0,0.0,0.0,0.0,0.0,0.0,0.0,0.0,0.0,0.0,0.0,0.0,0.0,0.0,0.0,0.0,0.0,0.0,0.0,0.0,0.0,0.0,0.0,0.0,0.0,0.0,0.0,0.0,0.0,0.0,0.0,0.0,0.0,0.0,0.0,0.0,0.0,0.0,0.0,0.0,0.0,0.0,0.0,0.0,0.0,0.0,0.0,0.0,0.0,0.0,0.0,0.0,0.0,0.0,0.0,0.0,0.0,0.0,0.0,0.0,0.0,0.0,0.0,0.0,0.0,0.0,0.0,0.0,0.0,0.0,0.0,0.0,0.0,0.0,0.0,0.0,0.0,0.0,0.0,0.0,0.0,0.0,0.0,0.0,0.0,0.0,0.0,0.0,0.0,0.0,0.0,0.0,0.0,0.0,0.0,0.0,0.0,0.0,0.0,0.0,0.0,0.0,0.0,0.0,0.0,0.0,0.0,0.0,0.0,-3.2231,-3.5801,-3.8231,-3.9189,-3.5982,-3.5106,-3.6948,0.0,0.0,0.0,0.0,0.0,0.0,0.0,0.0,0.0,0.0,0.0,0.0,0.0,0.0,0.0,0.0,0.0,0.0,0.0,0.0,0.0,0.0,0.0,0.0,0.0,0.0,0.0,0.0,0.0,0.0,0.0,0.0,0.0,0.0,0.0,0.0,0.0,0.0,0.0,0.0,0.0,0.0,0.0,0.0,0.0,0.0,0.0,0.0,0.0,0.0,0.0,0.0,0.0,0.0,0.0,0.0,0.0,0.0,0.0,0.0,0.0,0.0,0.0,0.0,0.0,0.0,0.0,0.0,0.0,0.0,0.0,0.0,0.0,0.0,0.0,0.0,0.0,0.0,0.0,0.0,0.0,0.0,0.0,0.0,0.0,0.0,0.0,0.0,0.0,0.0,0.0,0.0,0.0,0.0,0.0,0.0,0.0,0.0,0.0,0.0,0.0,0.0,0.0,0.0,0.0,0.0,0.0,0.0,-3.9539,-4.2221,-4.2804,-4.1175,-3.9377,-3.7622,0.0,0.0,0.0,0.0,0.0,0.0,0.0,0.0,0.0,0.0,0.0,0.0,0.0,0.0,0.0,0.0,0.0,0.0,0.0,0.0,0.0,0.0,0.0,0.0,0.0,0.0,0.0,0.0,0.0,0.0,0.0,0.0,0.0,0.0,0.0,0.0,0.0,0.0,0.0,0.0,0.0,0.0,0.0,0.0,0.0,0.0,0.0,0.0,0.0,0.0,0.0,0.0,0.0,0.0,0.0,0.0,0.0,0.0,0.0,0.0,0.0,0.0,0.0,0.0,0.0,0.0,0.0,0.0,0.0,0.0,0.0,0.0,0.0,0.0,0.0,0.0,0.0,0.0,0.0,0.0,0.0,0.0,0.0,0.0,0.0,0.0,0.0,0.0,0.0,0.0,0.0,0.0,0.0,0.0,0.0,0.0,0.0,0.0,0.0,0.0,0.0,0.0,0.0,0.0,0.0,0.0,0.0,0.0,0.0,-4.2863,-4.5292,-4.5643,-4.3809,-4.1517,-3.9983,0.0,0.0,0.0,0.0,0.0,0.0,0.0,0.0,0.0,0.0,0.0,0.0,0.0,0.0,0.0,0.0,0.0,0.0,0.0,0.0,0.0,0.0,0.0,0.0,0.0,0.0,0.0,0.0,0.0,0.0,0.0,0.0,0.0,0.0,0.0,0.0,0.0,0.0,0.0,0.0,0.0,0.0,0.0,0.0,0.0,0.0,0.0,0.0,0.0,0.0,0.0,0.0,0.0,0.0,0.0,0.0,0.0,0.0,0.0,0.0,0.0,0.0,0.0,0.0,0.0,0.0,0.0,0.0,0.0,0.0,0.0,0.0,0.0,0.0,0.0,0.0,0.0,0.0,0.0,0.0,0.0,0.0,0.0,0.0,0.0,0.0,0.0,0.0,0.0,0.0,0.0,0.0,0.0,0.0,0.0,0.0,0.0,0.0,0.0,0.0,0.0,0.0,0.0,0.0,0.0,0.0,0.0,0.0,-4.1056,-4.5507,-4.7287,-4.7655,-4.6549,-4.4405,-4.2772,0.0,0.0,0.0,0.0,0.0,0.0,0.0,0.0,0.0,0.0,0.0,0.0,0.0,0.0,0.0,0.0,0.0,0.0,0.0,0.0,0.0,0.0,0.0,0.0,0.0,0.0,0.0,0.0,0.0,0.0,0.0,0.0,0.0,0.0,0.0,0.0,0.0,0.0,0.0,0.0,0.0,0.0,0.0,0.0,0.0,0.0,0.0,0.0,0.0,0.0,0.0,0.0,0.0,0.0,0.0,0.0,0.0,0.0,0.0,0.0,0.0,0.0,0.0,0.0,0.0,0.0,0.0,0.0,0.0,0.0,0.0,0.0,0.0,0.0,0.0,0.0,0.0,0.0,0.0,0.0,0.0,0.0,0.0,0.0,0.0,0.0,0.0,0.0,0.0,0.0,0.0,0.0,0.0,0.0,0.0,0.0,0.0,0.0,0.0,0.0,0.0,0.0,0.0,0.0,0.0,0.0,0.0,0.0,-4.4046,-4.7615,-4.855,-4.9062,-4.9101,-4.7383,-4.5496,0.0,0.0,0.0,0.0,0.0,0.0,0.0,0.0,0.0,0.0,0.0,0.0,0.0,0.0,0.0,0.0,0.0,0.0,0.0,0.0,0.0,0.0,0.0,0.0,0.0,0.0,0.0,0.0,0.0,0.0,0.0,0.0,0.0,0.0,0.0,0.0,0.0,0.0,0.0,0.0,0.0,0.0,0.0,0.0,0.0,0.0,0.0,0.0,0.0,0.0,0.0,0.0,0.0,0.0,0.0,0.0,0.0,0.0,0.0,0.0,0.0,0.0,0.0,0.0,0.0,0.0,0.0,0.0,0.0,0.0,0.0,0.0,0.0,0.0,0.0,0.0,0.0,0.0,0.0,0.0,0.0,0.0,0.0,0.0,0.0,0.0,0.0,0.0,0.0,0.0,0.0,0.0,0.0,0.0,0.0,0.0,0.0,0.0,0.0,0.0,0.0,0.0,0.0,0.0,0.0,0.0,0.0,0.0,-4.5056,-4.9296,-4.9761,-5.0234,-5.0859,-4.8555,-4.6082,0.0,0.0,0.0,0.0,0.0,0.0,0.0,0.0,0.0,0.0,0.0,0.0,0.0,0.0,0.0,0.0,0.0,0.0,0.0,0.0,0.0,0.0,0.0,0.0,0.0,0.0,0.0,0.0,0.0,0.0,0.0,0.0,0.0,0.0,0.0,0.0,0.0,0.0,0.0,0.0,0.0,0.0,0.0,0.0,0.0,0.0,0.0,0.0,-4.1894,0.0,0.0,0.0,0.0,0.0,0.0,0.0,0.0,0.0,0.0,0.0,0.0,0.0,0.0,0.0,0.0,0.0,0.0,0.0,0.0,0.0,0.0,0.0,0.0,0.0,0.0,0.0,0.0,0.0,0.0,0.0,0.0,0.0,0.0,0.0,0.0,0.0,0.0,0.0,0.0,0.0,0.0,0.0,0.0,0.0,0.0,0.0,0.0,0.0,0.0,0.0,0.0,0.0,0.0,0.0,0.0,0.0,0.0,0.0,-4.63,-4.9948,-5.0546,-5.0976,-5.1328,-5.0078,-4.7883,0.0,0.0,0.0,0.0,0.0,0.0,0.0,0.0,0.0,0.0,0.0,0.0,0.0,0.0,0.0,0.0,0.0,0.0,0.0,0.0,0.0,0.0,0.0,0.0,0.0,0.0,0.0,0.0,0.0,0.0,0.0,0.0,0.0,0.0,0.0,0.0,0.0,0.0,0.0,0.0,0.0,0.0,0.0,0.0,0.0,0.0,0.0,0.0,0.0,0.0,0.0,0.0,0.0,0.0,0.0,0.0,0.0,0.0,0.0,0.0,0.0,0.0,0.0,0.0,0.0,0.0,0.0,0.0,0.0,0.0,0.0,0.0,0.0,0.0,0.0,0.0,0.0,0.0,0.0,0.0,0.0,0.0,0.0,0.0,0.0,0.0,0.0,0.0,0.0,0.0,0.0,0.0,0.0,0.0,0.0,0.0,0.0,0.0,0.0,0.0,0.0,0.0,0.0,0.0,0.0,0.0,0.0,-4.328,-4.7445,-5.0273,-5.1172,-5.1601,-5.1601,-5.1719,-5.0075,-4.645,0.0,0.0,0.0,0.0,0.0,0.0,0.0,0.0,0.0,0.0,0.0,0.0,0.0,0.0,0.0,0.0,0.0,0.0,0.0,0.0,0.0,0.0,0.0,0.0,0.0,0.0,0.0,0.0,0.0,0.0,0.0,0.0,0.0,0.0,0.0,0.0,0.0,0.0,-3.7746,-4.1898,0.0,0.0,0.0,0.0,0.0,0.0,0.0,0.0,-4.6465,0.0,0.0,0.0,0.0,0.0,0.0,0.0,0.0,0.0,0.0,0.0,0.0,0.0,0.0,0.0,0.0,0.0,0.0,0.0,0.0,0.0,0.0,0.0,0.0,0.0,0.0,0.0,0.0,0.0,0.0,0.0,0.0,0.0,0.0,0.0,0.0,0.0,0.0,0.0,0.0,0.0,0.0,0.0,0.0,0.0,0.0,0.0,0.0,0.0,0.0,0.0,0.0,0.0,0.0,0.0,0.0,-4.4296,-4.554,-4.7749,-5.1094,-5.207,-5.25,-5.25,-5.3203,-5.1559,-4.7428,0.0,0.0,0.0,0.0,0.0,0.0,0.0,0.0,0.0,0.0,0.0,0.0,0.0,0.0,0.0,0.0,0.0,0.0,0.0,0.0,0.0,0.0,0.0,0.0,0.0,0.0,0.0,0.0,0.0,0.0,0.0,0.0,0.0,0.0,0.0,0.0,0.0,0.0,0.0,-4.9642,-5.1403,0.0,0.0,0.0,0.0,0.0,0.0,0.0,0.0,-4.705,0.0,0.0,0.0,0.0,0.0,0.0,0.0,0.0,0.0,0.0,0.0,0.0,0.0,0.0,0.0,0.0,0.0,0.0,0.0,0.0,0.0,0.0,0.0,0.0,0.0,0.0,0.0,0.0,0.0,0.0,0.0,0.0,0.0,0.0,0.0,0.0,0.0,0.0,0.0,0.0,0.0,0.0,0.0,0.0,0.0,0.0,0.0,0.0,0.0,0.0,0.0,0.0,0.0,0.0,0.0,-4.3614,-4.7019,-4.9794,-5.1992,-5.2844,-5.3313,-5.3359,-5.3705,-5.1845,0.0,0.0,0.0,0.0,0.0,0.0,0.0,0.0,0.0,0.0,0.0,0.0,0.0,0.0,0.0,0.0,0.0,0.0,0.0,0.0,0.0,0.0,0.0,0.0,0.0,0.0,0.0,0.0,0.0,0.0,0.0,0.0,0.0,0.0,0.0,0.0,0.0,0.0,0.0,0.0,-5.1804,-5.3407,-5.5556,0.0,0.0,0.0,0.0,0.0,0.0,-5.3103,-5.0649,0.0,0.0,0.0,0.0,0.0,0.0,0.0,0.0,0.0,0.0,0.0,0.0,0.0,0.0,0.0,0.0,0.0,0.0,0.0,0.0,0.0,0.0,0.0,0.0,0.0,0.0,0.0,0.0,0.0,0.0,0.0,0.0,0.0,0.0,0.0,0.0,0.0,0.0,0.0,0.0,0.0,0.0,0.0,0.0,0.0,0.0,0.0,0.0,0.0,0.0,0.0,0.0,0.0,0.0,0.0,-4.2391,-4.7834,-5.1411,-5.289,-5.3686,-5.4231,-5.4531,-5.4594,-5.2481,0.0,0.0,0.0,0.0,0.0,0.0,0.0,0.0,0.0,0.0,0.0,0.0,0.0,0.0,0.0,0.0,0.0,0.0,0.0,0.0,0.0,0.0,0.0,0.0,0.0,0.0,0.0,0.0,0.0,0.0,0.0,0.0,0.0,0.0,0.0,0.0,0.0,0.0,0.0,0.0,0.0,-5.5324,-5.7832,-5.7375,0.0,0.0,0.0,0.0,-5.8217,-5.6973,0.0,0.0,0.0,0.0,0.0,0.0,0.0,0.0,0.0,0.0,0.0,0.0,0.0,0.0,0.0,0.0,0.0,0.0,0.0,0.0,0.0,0.0,0.0,0.0,0.0,0.0,0.0,0.0,0.0,0.0,0.0,0.0,0.0,0.0,0.0,0.0,0.0,0.0,0.0,0.0,0.0,0.0,0.0,0.0,0.0,0.0,0.0,0.0,0.0,0.0,0.0,0.0,0.0,0.0,0.0,0.0,-4.4221,-4.7372,-5.0553,-5.3711,-5.4586,-5.5404,-5.6289,-5.7031,-5.4945,0.0,0.0,0.0,0.0,0.0,0.0,0.0,0.0,0.0,0.0,0.0,0.0,0.0,0.0,0.0,0.0,0.0,0.0,0.0,0.0,0.0,0.0,0.0,0.0,0.0,0.0,0.0,0.0,0.0,0.0,0.0,0.0,0.0,0.0,0.0,0.0,0.0,0.0,0.0,0.0,0.0,-6.0368,-6.0116,-6.1687,-6.2252,0.0,0.0,-6.2355,-6.2598,-6.0929,0.0,0.0,0.0,0.0,0.0,0.0,0.0,0.0,0.0,0.0,0.0,0.0,0.0,0.0,0.0,0.0,0.0,0.0,0.0,0.0,0.0,0.0,0.0,0.0,0.0,0.0,0.0,0.0,0.0,0.0,0.0,0.0,0.0,0.0,0.0,0.0,0.0,0.0,0.0,0.0,0.0,0.0,0.0,0.0,0.0,0.0,0.0,0.0,0.0,0.0,0.0,0.0,0.0,0.0,0.0,-4.1665,-4.4773,-5.0143,-5.3529,-5.4726,-5.5842,-5.6698,-5.7305,-5.8078,-5.5509,0.0,0.0,0.0,0.0,0.0,0.0,0.0,0.0,0.0,0.0,0.0,0.0,0.0,0.0,0.0,0.0,0.0,0.0,0.0,0.0,0.0,0.0,0.0,0.0,0.0,0.0,0.0,0.0,0.0,0.0,0.0,0.0,0.0,0.0,0.0,0.0,0.0,0.0,0.0,0.0,0.0,0.0,-6.4212,-6.4958,0.0,0.0,0.0,-6.4936,-6.3512,0.0,0.0,0.0,0.0,0.0,0.0,0.0,0.0,0.0,0.0,0.0,0.0,0.0,0.0,0.0,0.0,0.0,0.0,0.0,0.0,0.0,0.0,0.0,0.0,0.0,0.0,0.0,0.0,0.0,0.0,0.0,0.0,0.0,0.0,0.0,0.0,0.0,0.0,0.0,0.0,0.0,0.0,0.0,0.0,0.0,0.0,0.0,0.0,0.0,0.0,0.0,0.0,0.0,0.0,0.0,0.0,0.0,-4.5375,-5.2736,-5.6488,-5.6328,-5.7236,-5.8013,-5.8515,-5.9011,0.0,0.0,0.0,0.0,0.0,0.0,0.0,0.0,0.0,0.0,0.0,0.0,0.0,0.0,0.0,0.0,0.0,0.0,0.0,0.0,0.0,0.0,0.0,0.0,0.0,0.0,0.0,-2.9974,0.0,0.0,0.0,0.0,0.0,0.0,0.0,0.0,0.0,0.0,0.0,0.0,0.0,0.0,-6.3074,-6.6516,-6.721,-6.6963,0.0,0.0,-6.7013,-6.4897,-6.5859,-6.509,0.0,0.0,0.0,0.0,0.0,0.0,0.0,0.0,0.0,0.0,0.0,0.0,0.0,0.0,0.0,0.0,0.0,0.0,0.0,0.0,0.0,0.0,0.0,0.0,0.0,0.0,0.0,0.0,0.0,0.0,0.0,0.0,0.0,0.0,0.0,0.0,0.0,0.0,0.0,0.0,0.0,0.0,0.0,0.0,0.0,0.0,0.0,0.0,0.0,0.0,0.0,0.0,0.0,0.0,-4.4565,-4.6902,-5.3923,-5.8057,-5.8906,-5.8842,-5.9269,-6.0195,-6.0273,-5.7065,0.0,0.0,0.0,0.0,0.0,0.0,0.0,0.0,0.0,0.0,0.0,0.0,0.0,0.0,0.0,0.0,0.0,0.0,0.0,0.0,0.0,0.0,0.0,0.0,0.0,0.0,0.0,0.0,0.0,0.0,0.0,0.0,0.0,0.0,0.0,0.0,0.0,0.0,0.0,0.0,0.0,-6.3361,-6.5031,-6.7937,-6.9561,0.0,-6.9022,-6.9167,-6.8192,-6.8821,-6.7791,-6.3053,0.0,0.0,0.0,0.0,0.0,0.0,0.0,0.0,0.0,0.0,0.0,0.0,0.0,0.0,0.0,0.0,0.0,0.0,0.0,0.0,0.0,0.0,0.0,0.0,0.0,0.0,0.0,0.0,0.0,0.0,0.0,0.0,0.0,0.0,0.0,0.0,0.0,0.0,0.0,0.0,0.0,0.0,0.0,0.0,0.0,0.0,0.0,0.0,0.0,0.0,0.0,0.0,0.0,-4.6031,-4.8011,-5.5935,-6.0015,-5.9961,-6.0837,-6.1539,-6.1992,-6.25,-6.0271,0.0,0.0,0.0,0.0,0.0,0.0,0.0,0.0,0.0,0.0,0.0,0.0,0.0,0.0,0.0,0.0,0.0,0.0,0.0,0.0,0.0,0.0,0.0,0.0,0.0,0.0,0.0,0.0,-4.3011,-4.3816,-4.3393,0.0,0.0,0.0,0.0,0.0,0.0,0.0,0.0,0.0,0.0,-6.6451,-6.7875,-6.9733,0.0,0.0,-6.9592,-6.9975,-6.8577,-6.8706,-6.8089,-6.5726,-6.3461,0.0,0.0,0.0,0.0,0.0,0.0,0.0,0.0,0.0,0.0,0.0,0.0,0.0,0.0,0.0,0.0,0.0,0.0,0.0,0.0,0.0,0.0,0.0,0.0,0.0,0.0,0.0,0.0,0.0,0.0,0.0,0.0,0.0,0.0,0.0,0.0,0.0,0.0,0.0,0.0,0.0,0.0,0.0,0.0,0.0,0.0,0.0,0.0,0.0,0.0,0.0,0.0,-4.7125,-4.9266,-5.7604,-6.1825,-6.1562,-6.2645,-6.327,-6.3398,-6.3984,-6.2225,0.0,0.0,0.0,0.0,0.0,0.0,0.0,0.0,0.0,0.0,0.0,0.0,0.0,0.0,0.0,0.0,0.0,0.0,0.0,0.0,0.0,0.0,0.0,0.0,0.0,0.0,0.0,0.0,-4.6959,-4.6935,-4.5467,0.0,0.0,0.0,0.0,0.0,0.0,0.0,0.0,0.0,0.0,-6.873,-6.9759,-7.0579,-7.0718,-6.9695,-6.9898,-6.9975,-6.959,-6.9321,-6.8754,-6.7567,0.0,0.0,0.0,0.0,0.0,0.0,0.0,0.0,0.0,0.0,0.0,0.0,0.0,0.0,0.0,0.0,0.0,0.0,0.0,0.0,0.0,0.0,0.0,0.0,0.0,0.0,0.0,-2.961,0.0,0.0,-2.9645,0.0,0.0,0.0,0.0,0.0,0.0,0.0,0.0,0.0,0.0,0.0,0.0,0.0,0.0,0.0,0.0,0.0,0.0,0.0,0.0,0.0,0.0,-4.7653,-5.0713,-5.8802,-6.3359,-6.414,-6.4258,-6.4297,-6.4297,-6.4297,-6.2305,-5.8047,0.0,0.0,0.0,0.0,0.0,0.0,0.0,0.0,0.0,0.0,0.0,0.0,0.0,0.0,0.0,0.0,0.0,0.0,0.0,0.0,0.0,0.0,0.0,0.0,0.0,0.0,-4.4641,-4.7103,-4.8506,0.0,0.0,0.0,0.0,0.0,0.0,0.0,0.0,0.0,-6.4249,-6.7542,-6.9572,-6.9903,-7.0121,-7.0765,-7.1904,-7.009,-6.936,-7.1745,-7.136,-7.0233,0.0,0.0,0.0,0.0,0.0,0.0,0.0,0.0,0.0,0.0,0.0,0.0,0.0,0.0,0.0,0.0,0.0,0.0,0.0,0.0,0.0,0.0,0.0,0.0,0.0,0.0,0.0,-3.5425,-3.4343,0.0,0.0,0.0,0.0,0.0,0.0,0.0,0.0,0.0,0.0,0.0,-4.8322,-5.0723,0.0,0.0,0.0,0.0,0.0,0.0,0.0,0.0,0.0,0.0,0.0,0.0,-4.9383,-5.2897,-6.0648,-6.4883,-6.5156,-6.5742,-6.6015,-6.6055,-6.6015,-6.3669,-5.872,0.0,0.0,0.0,0.0,0.0,0.0,0.0,0.0,0.0,0.0,0.0,0.0,0.0,0.0,0.0,0.0,0.0,0.0,0.0,0.0,0.0,0.0,0.0,0.0,0.0,-5.0223,0.0,0.0,0.0,0.0,0.0,0.0,0.0,0.0,0.0,0.0,0.0,-6.4254,-6.6507,-6.9848,-7.1971,-7.1846,-7.2344,-7.2835,0.0,0.0,0.0,0.0,0.0,0.0,0.0,0.0,0.0,0.0,0.0,0.0,0.0,0.0,-6.5036,-6.0054,-5.8508,-5.8724,-6.1129,0.0,0.0,0.0,0.0,0.0,0.0,0.0,0.0,0.0,0.0,0.0,0.0,0.0,0.0,-4.0113,-3.891,-3.8678,0.0,0.0,0.0,0.0,0.0,0.0,0.0,0.0,-4.9456,-5.2088,-5.3312,-5.5928,-5.5925,0.0,-5.2792,-4.962,0.0,0.0,0.0,0.0,0.0,0.0,0.0,0.0,-5.13,-5.5914,-6.2288,-6.5742,-6.6055,-6.6601,-6.6914,-6.6914,-6.6914,-6.5228,-6.1693,-5.9631,-5.7053,0.0,0.0,0.0,0.0,0.0,0.0,0.0,0.0,0.0,0.0,0.0,0.0,0.0,0.0,0.0,0.0,0.0,0.0,0.0,0.0,0.0,0.0,0.0,-5.3906,0.0,0.0,0.0,0.0,0.0,0.0,0.0,0.0,0.0,-6.0289,-6.487,-6.8569,-6.9421,-7.218,-7.3788,-7.2932,0.0,0.0,0.0,0.0,0.0,0.0,0.0,-7.3279,-7.5011,-7.373,-7.2579,-7.2771,-7.3658,-7.3818,-7.1994,0.0,0.0,-6.6835,-6.512,-6.5238,-6.737,-6.7815,-6.7907,-6.8164,-6.8862,-6.9486,0.0,0.0,0.0,0.0,0.0,0.0,0.0,0.0,-4.416,-4.4134,0.0,-4.3212,0.0,0.0,0.0,0.0,-4.135,-4.5201,0.0,0.0,-5.6721,-5.9003,-5.9414,-6.0831,-6.1116,-6.0339,-6.0092,-5.873,-5.6055,-4.9841,0.0,0.0,0.0,0.0,0.0,0.0,-5.3436,-5.9835,-6.3731,-6.6055,-6.6836,-6.6875,-6.6914,-6.6914,-6.6914,-6.6752,-6.6424,-6.2492,-5.9755,-5.8655,-5.0627,0.0,0.0,0.0,0.0,0.0,0.0,0.0,0.0,0.0,0.0,0.0,0.0,0.0,0.0,0.0,0.0,0.0,0.0,0.0,0.0,-5.6225,0.0,0.0,0.0,0.0,0.0,0.0,0.0,0.0,0.0,-6.8218,-6.6009,-6.9294,-7.2177,-7.2942,0.0,0.0,0.0,0.0,-7.3566,-7.6034,-7.4153,-7.3619,-7.6861,-7.6592,-7.611,-7.6514,0.0,0.0,-7.4478,-7.6081,-7.692,-7.4519,-7.5638,-7.6258,-7.4136,-7.2355,-7.1931,-7.3403,-7.3137,-7.2986,-7.3655,-7.4154,-7.497,-4.624,0.0,0.0,0.0,0.0,-4.495,-4.7576,-5.0924,-5.1485,-5.0966,-4.9741,-4.9718,0.0,0.0,0.0,0.0,0.0,0.0,-5.1451,-5.5467,-5.734,-5.9842,-6.2851,-6.3176,-6.3288,-6.3119,-6.2995,-6.2602,-6.1903,-6.0039,-5.3547,-4.2992,0.0,0.0,0.0,0.0,-5.7963,-6.1153,-6.4681,-6.664,-6.6875,-6.6914,-6.6914,-6.6914,-6.6914,-6.679,-6.6619,-6.539,-6.3078,-5.9638,-5.6513,0.0,0.0,0.0,0.0,0.0,0.0,0.0,0.0,0.0,0.0,0.0,0.0,0.0,0.0,0.0,0.0,0.0,0.0,0.0,-5.4225,-5.7535,-5.857,0.0,0.0,0.0,0.0,0.0,0.0,0.0,0.0,0.0,-7.1989,-7.341,-7.4587,0.0,0.0,-7.6271,-7.4983,-7.5796,-7.6975,-7.8115,-7.7532,0.0,-7.8868,-7.7861,-7.7562,-7.9434,-7.9457,-7.8766,-7.7422,-7.8305,-7.882,-7.7644,-7.8407,-7.8803,-7.7837,-7.6792,-7.6455,-7.7354,-7.7429,-7.7179,-7.7068,-7.7191,-7.7245,-5.1396,-4.7716,-4.6593,-4.7055,-4.8551,-4.9632,-5.2188,-5.5577,-5.6036,-5.5735,-5.496,-5.5038,-5.2893,-4.9251,-4.8538,0.0,0.0,0.0,-5.577,-5.9687,-6.0195,-6.1836,-6.4219,-6.456,-6.4718,-6.4765,-6.4365,-6.4562,-6.5351,-6.5,-6.0038,-5.1003,0.0,0.0,-5.1736,-5.6862,-6.0868,-6.3552,-6.6128,-6.7422,-6.7422,-6.7734,-6.7773,-6.7461,-6.7734,-6.7846,-6.7637,-6.7634,-6.6137,-6.2947,-6.1341,-5.9377,0.0,0.0,0.0,0.0,0.0,0.0,0.0,0.0,0.0,0.0,0.0,-4.8067,-4.5354,0.0,0.0,0.0,-5.7434,-5.8581,-5.9226,-6.2189,0.0,0.0,0.0,0.0,0.0,0.0,0.0,-7.0342,-7.3469,-7.5547,-7.6094,-7.6203,-7.6063,-7.5645,-7.6768,-7.7245,-7.6233,0.0,-7.8871,-7.9616,-7.957,-7.9664,-8.0304,-7.9594,-7.9436,-8.0854,-8.0669,-8.0169,-7.9669,-7.9977,-8.019,-7.9936,-8.0193,-8.0409,-8.0027,-7.9548,-7.9157,-7.9199,-7.9198,-7.9058,-7.8704,-7.8458,-7.8247,-5.5662,-5.5317,-5.2269,-5.194,-5.3473,-5.3984,-5.5562,-5.7805,-5.842,-5.8808,-5.9043,-5.9151,-5.7549,-5.4726,-5.3073,0.0,-5.9609,-5.9481,-6.1162,-6.4375,-6.4414,-6.4453,-6.4531,-6.5312,-6.5703,-6.5703,-6.4883,-6.5351,-6.6797,-6.6055,-6.4443,-6.2044,-6.0461,-5.985,-6.0112,-6.0639,-6.2776,-6.655,-6.765,-6.8242,-6.832,-6.9062,-6.9101,-6.832,-6.9062,-6.9407,-6.921,-6.9192,-6.8704,-6.7653,-6.5312,-6.3642,-6.2737,0.0,0.0,0.0,0.0,0.0,0.0,0.0,0.0,0.0,0.0,0.0,0.0,0.0,0.0,-6.2812,-6.7117,0.0,-6.7781,-6.8365,0.0,0.0,0.0,-6.4783,-6.6907,-6.9963,-7.2356,-7.3476,0.0,0.0,-7.8594,-7.789,-7.7028,-7.605,-7.7245,-7.7947,-7.7212,-7.8423,-7.9688,-8.0649,-8.0647,-8.0737,-8.1209,-8.1192,-8.1105,-8.1077,-8.1093,-8.1016,-8.0977,-8.1016,-8.1093,-8.1138,-8.117,-8.1231,-8.1269,-8.1298,-8.0924,-7.9903,-7.9592,-7.9532,-7.9592,-7.9265,-7.9071,-5.6181,-5.568,-5.5473,-5.58,-5.65,-5.7263,-5.8335,-5.9536,-6.003,-6.0768,-6.1684,-6.1718,-6.1765,-6.1836,-6.1405,-6.1874,-6.3086,-6.3046,-6.3866,-6.5273,-6.5273,-6.5664,-6.6289,-6.6484,-6.6601,-6.6601,-6.6406,-6.6484,-6.6875,-6.6545,-6.6461,-6.6556,-6.5917,-6.4062,-6.1385,-6.4421,-6.6334,-6.6832,-6.7734,-6.8515,-6.918,-6.9336,-6.9297,-6.914,-6.9202,-6.9312,-6.937,-6.9124,-6.9234,-6.9704,-6.8303,-6.7968,-6.8914,-6.1814,0.0,0.0,0.0,0.0,0.0,0.0,0.0,0.0,0.0,-5.601,-5.0857,0.0,-6.0148,0.0,-6.9894,-7.1024,-6.6057,-6.8016,0.0,0.0,-6.8513,-6.9485,-7.4546,-7.4314,-7.4887,-7.7809,-7.8359,-7.875,-7.9336,-7.9219,-7.9023,-7.8747,-7.8555,-7.8551,-7.898,-7.9912,-8.0831,-8.1496,-8.162,-8.1585,-8.1413,-8.1258,-8.1191,-8.1108,-8.1093,-8.1093,-8.1093,-8.1093,-8.1285,-8.1862,-8.2016,-8.2247,-8.2862,-8.3016,-8.2891,-8.2574,-8.2023,-8.1629,-8.1799,-8.1706,-8.1393,-5.746,-5.7657,-5.811,-5.8724,-5.9403,-5.8614,-5.8852,-5.9866,-6.0685,-6.1814,-6.3044,-6.3197,-6.3848,-6.4883,-6.4883,-6.5078,-6.543,-6.5469,-6.5703,-6.6172,-6.6172,-6.664,-6.7461,-6.7461,-6.7654,-6.7916,-6.8006,-6.7967,-6.7955,-6.8263,-6.8694,-6.9204,-6.9358,-6.8115,-6.5705,-6.7468,-6.8117,-6.737,-6.8631,-6.957,-7.0039,-7.039,-6.9999,-6.8817,-6.9762,-6.9994,-6.9324,-6.9787,-6.9823,-6.928,-6.8886,-6.8896,-6.9281,-6.5666,-6.3636,0.0,0.0,0.0,0.0,0.0,0.0,0.0,0.0,0.0,0.0,0.0,-6.3708,-6.5339,-7.1472,-7.3373,-6.8615,-7.1522,-7.3716,-7.3773,-7.3118,-7.4072,-7.7548,-7.6819,-7.6881,-7.8906,-7.9101,-7.9062,-7.914,-7.9453,-7.9844,-8.0234,-7.9883,-7.9765,-8.0234,-8.1015,-8.1717,-8.2051,-8.2125,-8.2046,-8.1727,-8.1441,-8.1242,-8.1228,-8.1176,-8.1208,-8.1554,-8.1631,-8.19,-8.267,-8.2901,-8.3016,-8.3478,-8.3593,-8.367,-8.4016,-8.3785,-8.3435,-8.3134,-8.2894,-8.2513,-5.8888,-6.0013,-6.0013,-6.0634,-6.1432,-5.9032,-5.8751,-5.9964,-6.1131,-6.2463,-6.3809,-6.4237,-6.4942,-6.5742,-6.5741,-6.6132,-6.6875,-6.6873,-6.6833,-6.6874,-6.6991,-6.7421,-6.8163,-6.8281,-6.8665,-6.921,-6.9331,-6.933,-6.9285,-7.0108,-7.0498,-7.0573,-7.1179,-7.1203,-7.0618,-6.9951,-6.9181,-6.8312,-6.976,-7.0586,-7.0703,-7.1445,-7.0699,-6.8479,-7.0489,-7.1036,-6.9684,-7.0824,-7.0641,-6.8722,-6.9026,-6.8917,-6.8247,-6.9265,-6.8488,0.0,-6.5887,0.0,0.0,0.0,0.0,0.0,0.0,0.0,0.0,-6.7843,-6.839,-6.6389,-7.2633,-7.5793,-7.3396,-7.6311,-7.8122,-7.7564,-7.7599,-7.7729,-7.8044,-7.8199,-7.8328,-7.8593,-7.918,-7.9297,-7.9023,-7.9453,-8.0195,-8.0976,-8.1133,-8.1094,-8.1211,-8.1758,-8.2265,-8.2304,-8.2265,-8.2125,-8.1948,-8.1636,-8.1371,-8.1361,-8.1354,-8.1477,-8.2131,-8.2362,-8.2747,-8.3555,-8.3747,-8.3824,-8.3862,-8.3862,-8.4055,-8.4863,-8.5016,-8.4769,-8.416,-8.3842,-8.3524,-5.9375,-5.9992,-6.0015,-6.0032,-6.0115,-6.0184,-6.0886,-6.2069,-6.2665,-6.3657,-6.4889,-6.59,-6.6483,-6.664,-6.6502,-6.6584,-6.6874,-6.6638,-6.6568,-6.6678,-6.7381,-6.7771,-6.801,-6.8785,-6.9257,-6.9373,-6.9414,-6.9414,-6.945,-6.9468,-6.99,-7.0621,-7.052,-7.0758,-7.1297,0.0,0.0,0.0,-6.9882,-7.0039,-7.0664,-7.0859,-7.0703,-7.0232,-7.1178,0.0,-7.1481,-7.1594,-7.2168,-7.3192,-7.259,0.0,0.0,0.0,0.0,0.0,0.0,0.0,0.0,0.0,0.0,0.0,-6.77,-6.7562,-6.777,-7.1796,-7.3574,-7.1641,-7.5135,-7.7535,-7.7365,-7.7405,-7.78,-7.8423,-7.8127,-7.8168,-7.8979,-7.8723,-7.8671,-7.9375,-7.9062,-7.9219,-8.0312,-8.0664,-8.1094,-8.1836,-8.2031,-8.207,-8.2031,-8.2187,-8.2304,-8.2304,-8.2175,-8.1992,-8.1805,-8.1602,-8.1463,-8.1263,-8.1708,-8.2093,-8.2362,-8.2939,-8.3632,-8.4439,-8.467,-8.4863,-8.5401,-8.5093,-8.4901,-8.5709,-8.5901,-8.5824,-8.567,-8.6103,-8.6407,-6.0484,-6.1512,-6.1512,-6.2008,0.0,-6.3141,-6.3657,-6.4186,-6.3765,-6.4387,-6.5783,-6.643,-6.6829,-6.6914,-6.7258,-6.7454,-6.7539,-6.7781,-6.7927,-6.807,-6.846,-6.889,-6.9282,-6.9803,-7.0232,-7.0532,-7.0662,-7.0857,-7.1195,-7.1235,-7.1712,-7.2617,-7.2353,-7.2423,-7.2885,-7.3192,-7.3036,-7.2479,-7.2185,-7.2226,-7.2617,-7.2617,-7.2186,-7.1316,-7.238,0.0,0.0,0.0,0.0,0.0,0.0,0.0,0.0,0.0,0.0,-7.0975,-7.0639,-7.0296,-6.9842,-7.0537,-7.1924,-7.4034,-7.4349,-7.3902,-7.2734,-7.5734,-7.7121,-7.6045,-7.7753,-7.8989,-7.9129,-7.9131,-7.9254,-7.9397,-7.9251,-7.9228,-7.9366,-7.9205,-7.9258,-7.9648,-7.9726,-8.0078,-8.0859,-8.1406,-8.1797,-8.2226,-8.2304,-8.2304,-8.2304,-8.2304,-8.2304,-8.2304,-8.2221,-8.226,-8.2418,-8.2318,-8.2294,-8.247,-8.2732,-8.3109,-8.3516,-8.3939,-8.4401,-8.4863,-8.5209,-8.5555,-8.5478,-8.5478,-8.5747,-8.6517,-8.6748,-8.6901,-8.7248,-8.7748,-8.7966,-6.1778,-6.3332,-6.3423,-6.4388,-6.5897,-6.5897,-6.5897,-6.582,0.0,0.0,0.0,-6.6599,-6.6818,-6.7187,-6.785,-6.8241,-6.8437,-6.9059,-6.937,-6.9451,-6.9568,-6.9998,-7.0662,-7.0859,-7.1323,-7.1951,-7.2144,-7.2612,-7.3281,-7.3433,-7.3867,-7.4531,-7.4382,-7.4359,-7.4392,-7.4417,-7.4488,-7.4626,-7.4427,-7.4295,-7.4295,-7.4335,-7.3629,-7.2076,-7.3554,-7.3356,-7.1331,-7.2578,-7.2764,-7.1521,-7.146,-7.1755,-7.2501,-7.3488,-7.4338,-7.4999,-7.601,-7.6832,-7.7341,-7.7414,-7.7999,-7.9366,-7.9602,-7.9101,-7.7734,-7.8768,-7.9427,-7.9329,-7.9971,-8.0278,-8.0061,-8.0669,-8.0863,-8.0213,-8.0162,-7.9936,-7.9544,-7.96,-7.9726,-7.9961,-8.0547,-8.1054,-8.125,-8.1836,-8.2304,-8.2304,-8.2304,-8.2422,-8.25,-8.2617,-8.2617,-8.2617,-8.277,-8.2949,-8.3259,-8.3282,-8.3349,-8.3592,-8.374,-8.4148,-8.4863,-8.5093,-8.517,-8.5478,-8.5824,-8.5747,-8.5324,-8.5632,-8.6401,-8.7209,-8.7671,-8.8094,-8.8902,-8.9402,-8.9517,-6.2956,-6.4275,-6.4626,-6.5221,-6.5897,-6.5897,-6.5897,-6.5909,-6.6001,-6.625,-6.6603,-6.6785,-6.7304,-6.8008,-6.7984,-6.8419,-6.9218,-6.9053,-6.906,-6.9291,-6.9994,-7.0426,-7.0584,-7.1402,-7.2265,-7.3046,-7.3086,-7.3554,-7.4297,-7.4375,-7.4492,-7.457,-7.4421,-7.45,-7.4945,-7.5622,-7.5971,-7.5983,-7.4171,-7.3225,-7.3225,-7.3391,-7.3359,-7.3163,-7.4062,-7.4413,-7.4061,-7.4922,-7.5348,-7.5194,-7.5817,-7.6284,-7.6441,-7.7186,-7.7772,-7.7928,-7.8711,-7.9218,-7.9297,-7.9336,-7.9413,-7.9647,-7.9687,-7.957,-7.9375,-7.9531,-7.9809,-8.0199,-8.0954,-8.1307,-8.0983,-8.1031,-8.0935,-8.0425,-7.9711,-7.9355,-7.9687,-7.9765,-8.0078,-8.0742,-8.0898,-8.1328,-8.1914,-8.2187,-8.2304,-8.2304,-8.2383,-8.2578,-8.3164,-8.3437,-8.3437,-8.3515,-8.3923,-8.4156,-8.4104,-8.3932,-8.3861,-8.3672,-8.435,-8.4978,-8.5824,-8.5863,-8.6017,-8.6786,-8.6401,-8.6094,-8.594,-8.6017,-8.6709,-8.7555,-8.8709,-8.9787,-9.0671,-9.1748,-9.2095,-6.3993,-6.4782,-6.5019,-6.5417,-6.5897,-6.5897,-6.6239,-6.6731,-6.7014,-6.713,-6.7204,-6.7378,-6.8001,-6.8906,-6.9291,-6.9643,-7.0117,-7.0444,-7.0631,-7.0728,-7.112,-7.155,-7.202,-7.2499,-7.3164,-7.3984,-7.4023,-7.4453,-7.5234,-7.5312,-7.5505,-7.5794,-7.5519,-7.544,-7.5555,-7.5954,-7.6147,-7.6122,-7.5338,-7.5016,-7.512,-7.5197,-7.5301,-7.539,-7.582,-7.5781,-7.5351,-7.6133,-7.656,-7.646,-7.7241,-7.7905,-7.8374,-7.8764,-7.905,-7.914,-7.9101,-7.9258,-7.9687,-7.9726,-8.0117,-8.0976,-8.0664,-8.0625,-8.1094,-8.0473,-8.0368,-8.1026,-8.1289,-8.1311,-8.1139,-8.1172,-8.1216,-8.1142,-8.0838,-8.0813,-8.1054,-8.1094,-8.1289,-8.164,-8.1719,-8.1875,-8.2226,-8.2304,-8.2304,-8.2344,-8.2656,-8.3164,-8.3633,-8.4453,-8.4804,-8.4453,-8.4465,-8.4678,-8.4856,-8.4725,-8.492,-8.5504,-8.5555,-8.594,-8.6555,-8.6478,-8.6132,-8.6055,-8.6017,-8.6324,-8.6671,-8.7209,-8.8171,-8.9863,-9.0671,-9.1595,-9.2402,-9.2903,-9.2402,-6.4748,-6.5099,-6.5245,-6.5527,-6.5936,-6.609,-6.6622,-6.7317,-6.77,-6.803,-6.8247,-6.8277,-6.8813,-6.9805,-7.043,-7.0781,-7.1055,-7.168,-7.2109,-7.2265,-7.2265,-7.2773,-7.3515,-7.3594,-7.4062,-7.4805,-7.4883,-7.5351,-7.6094,-7.6211,-7.6393,-7.68,-7.6678,-7.648,-7.6284,-7.6476,-7.6553,-7.6597,-7.6912,-7.7,-7.6843,-7.6926,-7.7011,-7.7187,-7.7187,-7.6953,-7.6562,-7.7264,-7.7638,-7.7539,-7.8213,-7.8876,-7.937,-7.9409,-7.9569,-7.9883,-7.9414,-7.9414,-8.0195,-8.0273,-8.0859,-8.2148,-8.1484,-8.1367,-8.207,-8.1199,-8.083,-8.1539,-8.155,-8.1383,-8.1208,-8.1478,-8.1685,-8.1742,-8.1878,-8.1987,-8.2226,-8.2304,-8.2304,-8.2304,-8.2304,-8.2304,-8.2304,-8.2304,-8.2422,-8.2695,-8.3476,-8.414,-8.4336,-8.5507,-8.6011,-8.5809,-8.5374,-8.5435,-8.5871,-8.5855,-8.6201,-8.7319,-8.6824,-8.6863,-8.7248,-8.6863,-8.6324,-8.6055,-8.6401,-8.6978,-8.7671,-8.8786,-9.0171,-9.1787,-9.2402,-9.2903,-9.3364,-9.321,-9.2556,-6.5067,-6.5161,-6.5597,-6.5833,-6.6013,-6.6667,-6.7077,-6.7307,-6.7987,-6.8973,-6.9831,-6.9542,-6.9843,-7.0547,-7.0703,-7.1172,-7.1875,-7.1992,-7.25,-7.3164,-7.3164,-7.3633,-7.4531,-7.4531,-7.4922,-7.5742,-7.582,-7.6289,-7.7031,-7.707,-7.6959,-7.6741,-7.7205,-7.7381,-7.7266,-7.7891,-7.8261,-7.8261,-7.8488,-7.7943,-7.6734,-7.6993,-7.7187,-7.7226,-7.7226,-7.7539,-7.8086,-7.884,-7.9186,-7.9209,-7.9799,-7.9948,-7.9513,-7.9448,-7.9843,-8.082,-8.0781,-8.1133,-8.1914,-8.2031,-8.2031,-8.2226,-8.1484,-8.1367,-8.2148,-8.1332,-8.0948,-8.1579,-8.2143,-8.1955,-8.1285,-8.1877,-8.2171,-8.1766,-8.1894,-8.2065,-8.2265,-8.2304,-8.2304,-8.2304,-8.2304,-8.2304,-8.2383,-8.25,-8.2734,-8.3398,-8.4726,-8.5703,-8.5859,-8.6505,-8.7323,-8.7607,-8.7234,-8.6921,-8.7286,-8.7307,-8.7285,-8.7457,-8.7363,-8.7671,-8.7979,-8.744,-8.6478,-8.7748,-8.8209,-8.8402,-8.9056,-9.0364,-9.1979,-9.2441,-9.3056,-9.3557,-9.3672,-9.3518,-9.3095,-6.5569,-6.5583,-6.5808,-6.6167,-6.6667,-6.7513,-6.8167,-6.868,-6.9111,-6.9874,-7.0804,-7.1312,-7.1553,-7.1484,-7.1992,-7.2461,-7.2812,-7.3828,-7.4492,-7.4883,-7.5351,-7.6094,-7.6836,-7.6914,-7.7109,-7.7422,-7.7332,-7.7434,-7.7729,-7.8013,-7.8129,-7.8085,-7.8253,-7.829,-7.8219,-7.8668,-7.8823,-7.8683,-7.8997,-7.8858,-7.8301,-7.7954,-7.784,-7.793,-7.7969,-7.8043,-7.8371,-7.947,-8.0046,-7.989,-8.0676,-8.129,-8.1519,-8.1173,-8.1407,-8.2344,-8.1562,-8.1133,-8.1484,-8.1054,-8.1211,-8.2226,-8.1484,-8.1367,-8.2187,-8.1766,-8.162,-8.1822,-8.1863,-8.1695,-8.1375,-8.1769,-8.202,-8.19,-8.2059,-8.2187,-8.2304,-8.2304,-8.2304,-8.2304,-8.2304,-8.2539,-8.3047,-8.3515,-8.3945,-8.4414,-8.5508,-8.6406,-8.6875,-8.7472,-8.8131,-8.8651,-8.8428,-8.8235,-8.8391,-8.829,-8.8183,-8.8171,-8.8171,-8.8479,-8.9056,-8.8979,-8.8671,-8.9325,-8.944,-8.971,-9.0133,-9.1248,-9.2595,-9.2885,-9.3287,-9.3672,-9.3672,-9.3287,-9.2864,-6.5897,-6.5936,-6.6128,-6.6705,-6.7513,-6.8398,-6.9129,-6.9771,-7.0278,-7.0954,-7.1649,-7.2705,-7.3122,-7.3117,-7.371,-7.4023,-7.4219,-7.5586,-7.6406,-7.664,-7.7265,-7.8008,-7.8789,-7.8828,-7.8788,-7.878,-7.8861,-7.885,-7.8793,-7.9312,-7.9534,-7.9501,-7.9776,-7.996,-8.0019,-8.0348,-8.0495,-8.0369,-8.044,-8.0552,-8.0673,-7.9837,-7.9162,-7.8906,-7.9062,-7.9054,-7.8866,-7.9968,-8.0747,-8.0891,-8.1378,-8.2084,-8.2974,-8.2182,-8.2001,-8.2654,-8.1913,-8.1327,-8.1284,-8.0741,-8.0937,-8.207,-8.1679,-8.1601,-8.2109,-8.2171,-8.2059,-8.198,-8.171,-8.1563,-8.1483,-8.164,-8.185,-8.1988,-8.2175,-8.2304,-8.2304,-8.2304,-8.2422,-8.2617,-8.2734,-8.2969,-8.3867,-8.4648,-8.5234,-8.5351,-8.6211,-8.707,-8.7734,-8.8276,-8.8872,-8.951,-8.9415,-8.9251,-8.9248,-8.9115,-8.9073,-8.9363,-8.944,-8.9748,-9.0325,-9.0441,-9.0248,-9.0248,-9.0402,-9.0594,-9.0902,-9.1825,-9.2524,-9.2891,-9.3064,-9.2891,-9.245,-9.2237,-9.2192,-6.5897,-6.6013,-6.6705,-6.759,-6.8436,-6.9321,-6.9706,-6.9975,-7.1387,-7.2225,-7.2534,-7.3403,-7.4351,-7.5365,-7.5736,-7.582,-7.5937,-7.6836,-7.7695,-7.8359,-7.8515,-7.8906,-7.9609,-7.9648,-7.9601,-7.959,-8.0146,-8.0425,-8.0349,-8.1112,-8.1174,-8.0528,-8.1851,-8.2707,-8.2754,-8.3321,-8.3961,-8.3625,-8.3152,-8.3405,-8.3962,-8.2803,-8.1367,-8.0078,-8.0469,-8.077,-8.0618,-8.0494,-8.1213,-8.2801,-8.2,-8.2046,-8.3011,-8.1754,-8.1003,-8.1061,-8.1749,-8.2142,-8.1993,-8.1984,-8.2148,-8.2265,-8.2187,-8.2226,-8.2265,-8.2265,-8.2176,-8.2042,-8.1984,-8.1883,-8.1732,-8.1855,-8.1976,-8.2042,-8.2176,-8.2304,-8.2304,-8.2383,-8.2695,-8.332,-8.3554,-8.3984,-8.4765,-8.5586,-8.6133,-8.6523,-8.7539,-8.8594,-8.875,-8.9067,-8.9629,-9.0179,-9.0211,-8.9898,-8.9898,-9.009,-9.0381,-9.0671,-9.0979,-9.1325,-9.1633,-9.1825,-9.1441,-9.1287,-9.1672,-9.1787,-9.1672,-9.1833,-9.2239,-9.2291,-9.1782,-9.1472,-9.1508,-9.1259,-9.1218,-6.6205,-6.6782,-6.8205,-6.8975,-6.9398,-7.0706,-7.1321,-7.1398,-7.2514,-7.3083,-7.342,-7.4819,-7.5828,-7.6348,-7.8303,-7.8555,-7.7773,-7.8984,-7.9805,-8.0156,-8.0664,-8.1094,-8.1328,-8.1367,-8.1239,-8.113,-8.1238,-8.1524,-8.1853,-8.2143,-8.2556,-8.3003,-8.3103,-8.3454,-8.3898,-8.388,-8.4037,-8.4376,-8.3828,-8.3935,-8.4795,-8.4803,-8.4137,-8.2935,-8.2581,-8.2309,-8.192,-8.2487,-8.3092,-8.3571,-8.294,-8.3064,-8.3904,-8.3138,-8.2302,-8.183,-8.2069,-8.2265,-8.2219,-8.2264,-8.2304,-8.2304,-8.2304,-8.2304,-8.2304,-8.2304,-8.2265,-8.2187,-8.2187,-8.2129,-8.2109,-8.2053,-8.2056,-8.2187,-8.2265,-8.2344,-8.2422,-8.2773,-8.3242,-8.3672,-8.4326,-8.5214,-8.5816,-8.6824,-8.7639,-8.789,-8.8828,-8.9609,-9.0039,-9.0171,-9.043,-9.1017,-9.1406,-9.1556,-9.1556,-9.1556,-9.1748,-9.2018,-9.2326,-9.271,-9.3018,-9.3133,-9.2864,-9.2364,-9.271,-9.2387,-9.1966,-9.1097,-9.156,-9.1653,-9.1118,-9.0863,-9.0819,-9.0858,-9.0781,-6.7167,-6.8052,-6.9206,-7.0014,-7.0629,-7.1706,-7.2514,-7.3053,-7.3937,-7.4476,-7.5025,-7.6545,-7.7501,-7.8079,-7.9993,-8.0583,-7.9883,-8.0937,-8.1406,-8.1445,-8.2031,-8.2304,-8.2344,-8.2535,-8.2539,-8.2424,-8.2723,-8.3077,-8.3529,-8.3863,-8.4373,-8.4915,-8.4717,-8.4927,-8.5364,-8.5075,-8.5112,-8.5331,-8.48,-8.4883,-8.5664,-8.5933,-8.5864,-8.5307,-8.4735,-8.3976,-8.3111,-8.3767,-8.4142,-8.3981,-8.3546,-8.349,-8.3755,-8.3432,-8.289,-8.2299,-8.2264,-8.2265,-8.2221,-8.2264,-8.2304,-8.2304,-8.2304,-8.2304,-8.2304,-8.2304,-8.2304,-8.2304,-8.2304,-8.2304,-8.2344,-8.2447,-8.2443,-8.2422,-8.2539,-8.2734,-8.2773,-8.3476,-8.4023,-8.4492,-8.5429,-8.6285,-8.6895,-8.7765,-8.8485,-8.9023,-8.9883,-9.0586,-9.0902,-9.1339,-9.15,-9.1902,-9.2473,-9.2917,-9.3133,-9.3249,-9.3249,-9.348,-9.3557,-9.3941,-9.4095,-9.421,-9.398,-9.3557,-9.3097,-9.2658,-9.1872,-9.0882,-9.0736,-9.1003,-9.0803,-9.0523,-9.0568,-9.0723,-9.0681,-6.8898,-6.9629,-6.9783,-7.0898,-7.2168,-7.2591,-7.3322,-7.4745,-7.563,-7.6414,-7.712,-7.8317,-7.9212,-8.0168,-8.0657,-8.1268,-8.1875,-8.2109,-8.2148,-8.2187,-8.2265,-8.2344,-8.2461,-8.2974,-8.323,-8.3252,-8.4471,-8.5122,-8.5203,-8.5998,-8.6311,-8.6155,-8.6671,-8.6914,-8.7422,-8.707,-8.7226,-8.707,-8.6367,-8.6445,-8.7226,-8.6452,-8.6155,-8.6569,-8.6552,-8.567,-8.4002,-8.4165,-8.4342,-8.4241,-8.3649,-8.3011,-8.2576,-8.2421,-8.2257,-8.2104,-8.2175,-8.2173,-8.2053,-8.217,-8.2226,-8.2265,-8.2304,-8.2304,-8.2304,-8.2304,-8.2304,-8.2304,-8.2304,-8.2304,-8.25,-8.3008,-8.3164,-8.2578,-8.3086,-8.3594,-8.375,-8.4375,-8.5112,-8.5725,-8.6502,-8.7408,-8.808,-8.8516,-8.9012,-8.9844,-9.0664,-9.1226,-9.1354,-9.2121,-9.2791,-9.2961,-9.329,-9.3862,-9.4441,-9.496,-9.4941,-9.4941,-9.4864,-9.498,-9.4826,-9.4826,-9.4249,-9.3769,-9.3505,-9.3024,-9.2032,-9.1143,-9.0695,-9.0755,-9.0457,-9.0673,-9.1195,-9.1412,-9.0835,-7.0283,-7.0744,-7.2437,-7.3437,-7.4053,-7.5168,-7.6053,-7.6553,-7.7361,-7.7943,-7.8474,-7.9457,-8.0153,-8.0705,-8.1419,-8.1992,-8.2304,-8.2304,-8.2304,-8.2304,-8.2304,-8.2617,-8.3125,-8.3278,-8.3828,-8.4738,-8.5652,-8.6242,-8.6402,-8.6327,-8.6392,-8.6905,-8.6719,-8.6953,-8.7422,-8.6953,-8.6836,-8.7344,-8.664,-8.6562,-8.7155,-8.6886,-8.6676,-8.6591,-8.6729,-8.6156,-8.4928,-8.512,-8.532,-8.5209,-8.4143,-8.3122,-8.2461,-8.2171,-8.2062,-8.2031,-8.1943,-8.1873,-8.1831,-8.1861,-8.1971,-8.2059,-8.211,-8.2171,-8.2265,-8.2304,-8.2304,-8.2304,-8.2304,-8.25,-8.3086,-8.3398,-8.3515,-8.3242,-8.3945,-8.4531,-8.4609,-8.5143,-8.5852,-8.6584,-8.7184,-8.7707,-8.8281,-8.8887,-8.9821,-9.0411,-9.122,-9.1782,-9.2268,-9.271,-9.3116,-9.3367,-9.4013,-9.4711,-9.5211,-9.5711,-9.5942,-9.598,-9.598,-9.5403,-9.5288,-9.548,-9.4826,-9.4195,-9.3888,-9.324,-9.2241,-9.1579,-9.1216,-9.1076,-9.117,-9.1667,-9.2383,-9.215,-9.1469,-7.2147,-7.2598,-7.4032,-7.5091,-7.5745,-7.6899,-7.7669,-7.8237,-7.883,-7.9327,-7.9875,-8.0629,-8.1065,-8.1343,-8.1986,-8.2304,-8.2304,-8.2304,-8.2304,-8.2304,-8.2304,-8.2773,-8.3594,-8.4101,-8.4808,-8.5837,-8.6484,-8.6872,-8.7061,-8.6672,-8.6821,-8.7265,-8.6953,-8.6953,-8.7422,-8.6992,-8.6952,-8.7218,-8.6836,-8.6678,-8.6896,-8.6929,-8.6765,-8.6549,-8.669,-8.6301,-8.5406,-8.5432,-8.5264,-8.4785,-8.3739,-8.2851,-8.2254,-8.2062,-8.1976,-8.1878,-8.1799,-8.1688,-8.168,-8.1703,-8.1725,-8.1873,-8.1967,-8.2053,-8.2187,-8.2226,-8.2304,-8.2304,-8.2617,-8.3008,-8.3515,-8.4179,-8.4408,-8.457,-8.5039,-8.5469,-8.5732,-8.6321,-8.6813,-8.7362,-8.7834,-8.8329,-8.9011,-8.9565,-9.0734,-9.1335,-9.2022,-9.2599,-9.3129,-9.3581,-9.3864,-9.4292,-9.4939,-9.5518,-9.5942,-9.6403,-9.6865,-9.698,-9.7019,-9.6057,-9.5365,-9.6057,-9.598,-9.508,-9.4538,-9.3884,-9.2934,-9.2305,-9.1833,-9.1909,-9.1864,-9.2253,-9.2633,-9.2451,-9.1913,-7.4341,-7.5017,-7.5015,-7.6034,-7.7381,-7.766,-7.8545,-7.9736,-8.0061,-8.0578,-8.133,-8.1682,-8.1914,-8.202,-8.2222,-8.2304,-8.2304,-8.2304,-8.2422,-8.2461,-8.2539,-8.3008,-8.3984,-8.5185,-8.6072,-8.6675,-8.6952,-8.7096,-8.7173,-8.7255,-8.75,-8.7461,-8.7422,-8.7461,-8.7461,-8.7461,-8.7252,-8.7131,-8.7065,-8.6913,-8.6808,-8.6638,-8.6517,-8.6492,-8.6564,-8.6233,-8.5439,-8.487,-8.4209,-8.3347,-8.273,-8.2292,-8.2049,-8.1984,-8.185,-8.1672,-8.1656,-8.1645,-8.1662,-8.1609,-8.1615,-8.1711,-8.1855,-8.1988,-8.2049,-8.2187,-8.2383,-8.2539,-8.3086,-8.3594,-8.4023,-8.4856,-8.5671,-8.6168,-8.6328,-8.6673,-8.7163,-8.7876,-8.8091,-8.7985,-8.852,-8.9307,-8.9978,-9.03,-9.1372,-9.2377,-9.2985,-9.341,-9.3955,-9.4466,-9.5007,-9.5461,-9.5845,-9.6288,-9.6711,-9.725,-9.7673,-9.775,-9.7711,-9.6826,-9.5672,-9.6134,-9.6634,-9.5752,-9.4989,-9.4306,-9.3591,-9.2818,-9.2354,-9.2169,-9.2296,-9.2617,-9.2873,-9.296,-9.2976,-7.5265,-7.6255,-7.7274,-7.8334,-7.9391,-7.988,-8.0386,-8.0963,-8.1023,-8.131,-8.1786,-8.1923,-8.2071,-8.2226,-8.2265,-8.2304,-8.2344,-8.2344,-8.2695,-8.3203,-8.3281,-8.4023,-8.5197,-8.6222,-8.6818,-8.7029,-8.71,-8.718,-8.7376,-8.7461,-8.75,-8.75,-8.75,-8.75,-8.7461,-8.7286,-8.7173,-8.7096,-8.6955,-8.6752,-8.6605,-8.6529,-8.648,-8.6466,-8.6098,-8.5556,-8.4785,-8.3615,-8.289,-8.2614,-8.2293,-8.2059,-8.1971,-8.171,-8.1553,-8.1491,-8.1374,-8.1258,-8.1271,-8.1271,-8.1336,-8.1491,-8.1664,-8.185,-8.1988,-8.2175,-8.2617,-8.3086,-8.3554,-8.4096,-8.4966,-8.5559,-8.6109,-8.6831,-8.749,-8.796,-8.8084,-8.8644,-8.8961,-8.8789,-8.9252,-8.9786,-9.0272,-9.1136,-9.2055,-9.2743,-9.3315,-9.3918,-9.4634,-9.4955,-9.535,-9.6106,-9.6557,-9.7019,-9.7519,-9.8057,-9.8442,-9.8519,-9.8288,-9.7673,-9.648,-9.5826,-9.6095,-9.5886,-9.5189,-9.4513,-9.3737,-9.2922,-9.2684,-9.2471,-9.3034,-9.3482,-9.4087,-9.4346,-9.4339,-7.6572,-7.7812,-7.8626,-7.9651,-8.0728,-8.1174,-8.1403,-8.1514,-8.1636,-8.1746,-8.1984,-8.2113,-8.2176,-8.2265,-8.2304,-8.25,-8.2812,-8.2851,-8.332,-8.4101,-8.4531,-8.5156,-8.6034,-8.6847,-8.7277,-8.7277,-8.7265,-8.7332,-8.7461,-8.75,-8.75,-8.75,-8.75,-8.7461,-8.7304,-8.7176,-8.7003,-8.6841,-8.6729,-8.656,-8.636,-8.6331,-8.6119,-8.6015,-8.5593,-8.5137,-8.4176,-8.2965,-8.2265,-8.2175,-8.2056,-8.1909,-8.1725,-8.1534,-8.1347,-8.1298,-8.1137,-8.1108,-8.1093,-8.1093,-8.1161,-8.1285,-8.1504,-8.1951,-8.2362,-8.2667,-8.3203,-8.3867,-8.4297,-8.4873,-8.5503,-8.6054,-8.6683,-8.7481,-8.8458,-8.8862,-8.8356,-8.9125,-8.9531,-8.961,-8.9992,-9.0633,-9.0902,-9.1941,-9.2749,-9.3438,-9.403,-9.4706,-9.5363,-9.5441,-9.5672,-9.6365,-9.7096,-9.7557,-9.8173,-9.8788,-9.8865,-9.8981,-9.8288,-9.7827,-9.7057,-9.5942,-9.598,-9.6002,-9.5369,-9.468,-9.3897,-9.3227,-9.2907,-9.299,-9.3706,-9.4067,-9.4489,-9.4904,-9.5013,-7.7898,-7.942,-7.9214,-8.0114,-8.1555,-8.1688,-8.1672,-8.1746,-8.1883,-8.1988,-8.2065,-8.2221,-8.2383,-8.2422,-8.2617,-8.2929,-8.3711,-8.375,-8.4258,-8.5,-8.5625,-8.6172,-8.6484,-8.7109,-8.7422,-8.7461,-8.75,-8.75,-8.75,-8.75,-8.75,-8.7461,-8.7461,-8.7344,-8.7159,-8.7034,-8.6818,-8.6594,-8.648,-8.6335,-8.6215,-8.6192,-8.5973,-8.5463,-8.5112,-8.4537,-8.3585,-8.2694,-8.2173,-8.198,-8.1976,-8.1753,-8.148,-8.1407,-8.1298,-8.1137,-8.1124,-8.1093,-8.1093,-8.1093,-8.117,-8.1335,-8.1652,-8.2154,-8.2925,-8.338,-8.3872,-8.4629,-8.5327,-8.5648,-8.6031,-8.6676,-8.7442,-8.8233,-8.9175,-8.9229,-8.8887,-8.9593,-9.0305,-9.0124,-9.0787,-9.1672,-9.221,-9.2749,-9.3287,-9.421,-9.4788,-9.5365,-9.5788,-9.5903,-9.6172,-9.6596,-9.7326,-9.8019,-9.875,-9.9519,-9.9404,-9.925,-9.8173,-9.7519,-9.7134,-9.6442,-9.6288,-9.604,-9.5473,-9.4866,-9.4157,-9.3618,-9.3171,-9.3108,-9.35,-9.385,-9.4178,-9.4668,-9.4895,-7.7971,-7.9603,-7.9424,-8.0354,-8.1743,-8.1792,-8.1812,-8.1919,-8.198,-8.2113,-8.2226,-8.2265,-8.2695,-8.3281,-8.3281,-8.3789,-8.4492,-8.4609,-8.5078,-8.5859,-8.6054,-8.664,-8.707,-8.7422,-8.7461,-8.75,-8.75,-8.75,-8.75,-8.75,-8.75,-8.7461,-8.7286,-8.7166,-8.7087,-8.6817,-8.6605,-8.6481,-8.6288,-8.62,-8.6177,-8.6226,-8.5962,-8.529,-8.4503,-8.3579,-8.2773,-8.2244,-8.1976,-8.1831,-8.1849,-8.1848,-8.1469,-8.1269,-8.1214,-8.1216,-8.117,-8.1131,-8.1131,-8.1285,-8.14,-8.2001,-8.2329,-8.2777,-8.3602,-8.3921,-8.4461,-8.512,-8.5509,-8.61,-8.699,-8.7552,-8.8274,-8.9021,-8.9792,-9.0306,-9.0254,-9.073,-9.0972,-9.1154,-9.1633,-9.2287,-9.2595,-9.3749,-9.4403,-9.498,-9.548,-9.6019,-9.6172,-9.6288,-9.6596,-9.6865,-9.7711,-9.8404,-9.8827,-9.9288,-9.8981,-9.8788,-9.7904,-9.7211,-9.6826,-9.6634,-9.6365,-9.604,-9.564,-9.4987,-9.4319,-9.3677,-9.314,-9.3264,-9.3387,-9.3793,-9.4178,-9.4555,-9.4895,-7.8371,-7.9687,-8.0027,-8.0914,-8.2003,-8.2007,-8.2053,-8.2122,-8.2166,-8.2217,-8.2304,-8.2304,-8.2812,-8.3554,-8.3633,-8.4062,-8.4844,-8.5351,-8.5508,-8.582,-8.6289,-8.6836,-8.6914,-8.7304,-8.75,-8.75,-8.75,-8.75,-8.75,-8.75,-8.75,-8.7461,-8.7228,-8.7078,-8.6955,-8.6669,-8.6468,-8.6303,-8.62,-8.6175,-8.6288,-8.5977,-8.5388,-8.4513,-8.3567,-8.2811,-8.2791,-8.2684,-8.2662,-8.2695,-8.2708,-8.2206,-8.1427,-8.1176,-8.1301,-8.1593,-8.167,-8.1939,-8.2131,-8.2285,-8.2477,-8.284,-8.31,-8.3708,-8.4293,-8.468,-8.5164,-8.5767,-8.6145,-8.6639,-8.7777,-8.8562,-8.9164,-8.9904,-9.0377,-9.0903,-9.1539,-9.1579,-9.1531,-9.1724,-9.2172,-9.2941,-9.371,-9.4557,-9.5134,-9.5557,-9.5749,-9.6211,-9.6211,-9.6365,-9.6788,-9.725,-9.8134,-9.875,-9.8981,-9.8904,-9.825,-9.7904,-9.7288,-9.6826,-9.6519,-9.6403,-9.6288,-9.604,-9.5841,-9.5166,-9.4476,-9.3821,-9.3356,-9.3264,-9.341,-9.385,-9.414,-9.4301,-9.475,-7.8887,-7.9961,-8.0703,-8.1484,-8.2226,-8.2304,-8.2304,-8.2304,-8.2304,-8.2265,-8.2383,-8.2383,-8.3086,-8.3711,-8.4101,-8.4492,-8.5039,-8.5234,-8.5234,-8.5547,-8.6211,-8.664,-8.6719,-8.7226,-8.75,-8.75,-8.75,-8.75,-8.75,-8.75,-8.7461,-8.7377,-8.7166,-8.6949,-8.6756,-8.6526,-8.6331,-8.6137,-8.6126,-8.6246,-8.6301,-8.5715,-8.4773,-8.367,-8.3044,-8.2874,-8.3135,-8.3293,-8.3493,-8.387,-8.3863,-8.2982,-8.197,-8.1516,-8.1708,-8.2477,-8.2477,-8.2747,-8.3131,-8.3401,-8.3494,-8.3725,-8.3944,-8.4456,-8.5126,-8.5506,-8.5912,-8.656,-8.7078,-8.7673,-8.8437,-8.9313,-9.0311,-9.107,-9.1147,-9.175,-9.2664,-9.2253,-9.2199,-9.2536,-9.3095,-9.3787,-9.4403,-9.5134,-9.5634,-9.6057,-9.6211,-9.6403,-9.6442,-9.6673,-9.7173,-9.7711,-9.8596,-9.8404,-9.8519,-9.8442,-9.7788,-9.7288,-9.6749,-9.6557,-9.6326,-9.6288,-9.6288,-9.6288,-9.5981,-9.5363,-9.4891,-9.4476,-9.4019,-9.353,-9.3559,-9.4075,-9.4157,-9.4075,-9.4497,-7.9374,-8.0781,-8.0937,-8.1523,-8.2226,-8.2304,-8.2304,-8.2304,-8.2304,-8.2304,-8.2422,-8.3047,-8.3789,-8.4609,-8.5469,-8.582,-8.5429,-8.4961,-8.4922,-8.5469,-8.582,-8.5859,-8.6992,-8.7031,-8.7344,-8.75,-8.7422,-8.7383,-8.75,-8.75,-8.7383,-8.7166,-8.6962,-8.6756,-8.6549,-8.6317,-8.6184,-8.6126,-8.611,-8.6238,-8.6183,-8.5583,-8.4695,-8.3588,-8.3148,-8.3217,-8.3376,-8.3662,-8.3851,-8.3887,-8.3751,-8.3511,-8.3279,-8.3208,-8.3285,-8.3324,-8.3362,-8.3555,-8.3824,-8.3747,-8.4055,-8.4456,-8.4728,-8.5105,-8.5714,-8.6045,-8.6569,-8.7503,-8.841,-8.9262,-9.0063,-9.0651,-9.1454,-9.2306,-9.2766,-9.3007,-9.3657,-9.3593,-9.3305,-9.3672,-9.4172,-9.4595,-9.5134,-9.5557,-9.5903,-9.6172,-9.6249,-9.6673,-9.7019,-9.7365,-9.7865,-9.8442,-9.9096,-9.8481,-9.7865,-9.7711,-9.7326,-9.6865,-9.648,-9.648,-9.6288,-9.6288,-9.6288,-9.6288,-9.6174,-9.58,-9.5363,-9.4963,-9.4668,-9.4211,-9.4238,-9.4292,-9.4075,-9.3859,-9.3856,-7.9759,-8.1015,-8.1484,-8.1914,-8.2265,-8.2304,-8.2304,-8.2304,-8.2304,-8.2578,-8.2969,-8.3437,-8.4062,-8.4844,-8.5273,-8.5312,-8.4765,-8.4648,-8.4765,-8.5351,-8.5195,-8.5508,-8.664,-8.6406,-8.6523,-8.6679,-8.6836,-8.7109,-8.7461,-8.7344,-8.7225,-8.7082,-8.6825,-8.6583,-8.6442,-8.6253,-8.6088,-8.6094,-8.6088,-8.6018,-8.5892,-8.5104,-8.4122,-8.3663,-8.3451,-8.3638,-8.4276,-8.4425,-8.4753,-8.5,-8.4974,-8.4917,-8.4863,-8.4786,-8.467,-8.4362,-8.4286,-8.4478,-8.4786,-8.4901,-8.517,-8.544,-8.5517,-8.567,-8.6132,-8.656,-8.7345,-8.8412,-8.952,-9.0407,-9.0863,-9.1836,-9.2772,-9.3348,-9.373,-9.4164,-9.461,-9.4559,-9.4622,-9.4729,-9.4826,-9.5134,-9.5634,-9.598,-9.6211,-9.6288,-9.6326,-9.6865,-9.7557,-9.7865,-9.825,-9.8404,-9.875,-9.8173,-9.7442,-9.7134,-9.7019,-9.6557,-9.6288,-9.6288,-9.6288,-9.6288,-9.6288,-9.6288,-9.6136,-9.602,-9.5555,-9.5096,-9.4939,-9.4793,-9.4502,-9.4211,-9.3878,-9.3695,-9.3615,-8.0336,-8.1328,-8.2031,-8.2304,-8.2304,-8.2304,-8.2304,-8.2344,-8.2539,-8.2969,-8.3594,-8.4023,-8.4492,-8.4726,-8.4687,-8.4453,-8.4023,-8.4531,-8.4453,-8.4883,-8.4687,-8.5078,-8.5508,-8.5469,-8.5469,-8.6328,-8.6328,-8.664,-8.7226,-8.7225,-8.7091,-8.6909,-8.6616,-8.6455,-8.6373,-8.62,-8.6072,-8.5879,-8.5915,-8.5707,-8.5144,-8.4416,-8.3741,-8.3631,-8.3679,-8.4295,-8.4959,-8.5256,-8.554,-8.5822,-8.5956,-8.6017,-8.6055,-8.6094,-8.5786,-8.5286,-8.517,-8.5517,-8.5824,-8.5978,-8.5863,-8.594,-8.6247,-8.6363,-8.673,-8.7556,-8.8571,-8.9557,-9.0623,-9.1528,-9.207,-9.3047,-9.3867,-9.443,-9.4663,-9.4959,-9.5484,-9.5642,-9.5615,-9.5627,-9.5478,-9.5634,-9.6095,-9.6211,-9.6365,-9.6788,-9.6865,-9.7673,-9.8211,-9.8057,-9.8211,-9.8134,-9.8096,-9.7634,-9.7134,-9.6711,-9.6596,-9.6442,-9.6288,-9.6288,-9.6288,-9.6288,-9.6249,-9.6211,-9.6269,-9.6117,-9.5619,-9.5341,-9.5295,-9.5072,-9.4553,-9.4075,-9.3589,-9.3308,-9.3198,-8.1328,-8.2148,-8.2265,-8.2304,-8.2304,-8.2304,-8.2304,-8.2422,-8.3086,-8.3476,-8.3906,-8.5078,-8.5429,-8.4922,-8.4101,-8.4609,-8.4804,-8.3906,-8.3711,-8.4531,-8.4101,-8.4219,-8.4922,-8.5,-8.5234,-8.5859,-8.6094,-8.6562,-8.702,-8.71,-8.6884,-8.663,-8.6553,-8.6376,-8.6023,-8.5992,-8.5709,-8.5197,-8.5211,-8.5155,-8.4824,-8.4676,-8.4559,-8.4598,-8.4819,-8.5116,-8.5346,-8.5642,-8.5966,-8.6049,-8.6094,-8.6094,-8.6094,-8.6094,-8.6094,-8.5978,-8.5978,-8.6017,-8.6094,-8.6209,-8.6247,-8.644,-8.6824,-8.7171,-8.7804,-8.8931,-9.0098,-9.0696,-9.1773,-9.2695,-9.3281,-9.3789,-9.457,-9.5235,-9.5715,-9.5958,-9.6315,-9.6077,-9.6133,-9.6225,-9.6019,-9.6134,-9.6403,-9.6442,-9.6519,-9.698,-9.7519,-9.825,-9.8634,-9.8327,-9.8057,-9.7942,-9.7557,-9.7134,-9.6903,-9.648,-9.6211,-9.6172,-9.6095,-9.6057,-9.5788,-9.5711,-9.6134,-9.6134,-9.6211,-9.6288,-9.602,-9.5783,-9.57,-9.5295,-9.4743,-9.3991,-9.3264,-9.3035,-9.2785,-8.1953,-8.2304,-8.2304,-8.2304,-8.2304,-8.2304,-8.2578,-8.3047,-8.3437,-8.4179,-8.5039,-8.5781,-8.5976,-8.539,-8.4258,-8.3984,-8.4375,-8.3476,-8.3359,-8.3828,-8.3437,-8.3359,-8.3828,-8.3789,-8.4062,-8.5273,-8.5491,-8.5937,-8.6529,-8.6897,-8.6774,-8.649,-8.6282,-8.5915,-8.5536,-8.552,-8.5053,-8.4663,-8.4611,-8.4741,-8.4661,-8.4726,-8.4856,-8.5072,-8.5299,-8.5483,-8.5724,-8.5876,-8.6094,-8.6094,-8.6094,-8.6094,-8.6094,-8.6094,-8.6094,-8.6132,-8.6594,-8.6594,-8.6247,-8.6594,-8.6786,-8.7055,-8.7666,-8.8364,-8.904,-8.9976,-9.1318,-9.2368,-9.2956,-9.3711,-9.4531,-9.5078,-9.5625,-9.6151,-9.6505,-9.6585,-9.6671,-9.6467,-9.6355,-9.6515,-9.6673,-9.6865,-9.7057,-9.7211,-9.7403,-9.775,-9.7865,-9.8057,-9.8327,-9.8134,-9.7865,-9.7634,-9.7173,-9.6673,-9.6557,-9.6326,-9.5865,-9.5711,-9.548,-9.5326,-9.4941,-9.498,-9.5557,-9.5942,-9.6019,-9.6095,-9.6249,-9.6155,-9.5902,-9.5407,-9.4866,-9.4238,-9.3559,-9.2532,-9.2485,-8.2304,-8.2304,-8.2304,-8.2304,-8.2344,-8.25,-8.2969,-8.3554,-8.414,-8.5,-8.5898,-8.6211,-8.6211,-8.582,-8.4531,-8.3945,-8.4297,-8.3594,-8.3476,-8.3242,-8.2851,-8.2734,-8.2969,-8.2773,-8.332,-8.4883,-8.4922,-8.5473,-8.6155,-8.649,-8.6346,-8.6107,-8.5854,-8.5375,-8.4986,-8.5101,-8.5059,-8.4748,-8.4637,-8.4798,-8.5014,-8.4987,-8.5341,-8.5579,-8.5702,-8.5716,-8.6005,-8.6094,-8.6094,-8.6094,-8.6094,-8.6094,-8.6094,-8.6363,-8.6517,-8.6709,-8.7248,-8.7478,-8.7286,-8.7401,-8.7632,-8.7979,-8.8512,-8.9376,-9.0391,-9.0955,-9.163,-9.3227,-9.3933,-9.4609,-9.539,-9.6094,-9.6445,-9.6719,-9.6982,-9.7011,-9.6964,-9.669,-9.6677,-9.692,-9.725,-9.7788,-9.798,-9.8173,-9.8365,-9.8557,-9.8481,-9.8134,-9.7904,-9.7788,-9.7519,-9.7211,-9.6865,-9.6442,-9.6326,-9.6134,-9.5672,-9.5249,-9.5018,-9.4864,-9.4634,-9.4788,-9.5288,-9.5595,-9.5865,-9.6057,-9.6288,-9.6193,-9.6059,-9.5555,-9.5048,-9.4668,-9.3963,-9.2821,-9.2349,-8.2304,-8.2304,-8.2344,-8.2344,-8.2422,-8.3164,-8.3554,-8.3945,-8.5312,-8.5898,-8.6172,-8.6172,-8.6094,-8.5742,-8.4648,-8.4375,-8.5703,-8.3476,-8.3086,-8.3047,-8.2812,-8.2461,-8.2461,-8.2656,-8.3125,-8.4531,-8.464,-8.5038,-8.5656,-8.5771,-8.5476,-8.5096,-8.5165,-8.4675,-8.4553,-8.4864,-8.5322,-8.5108,-8.5009,-8.521,-8.5625,-8.5816,-8.6011,-8.6402,-8.6428,-8.631,-8.6126,-8.6094,-8.6094,-8.6094,-8.6094,-8.6247,-8.6401,-8.6824,-8.7055,-8.7478,-8.8132,-8.8402,-8.8402,-8.8402,-8.8556,-8.8825,-8.9398,-9.0278,-9.1333,-9.2431,-9.3141,-9.3734,-9.4675,-9.5469,-9.6094,-9.6562,-9.6953,-9.7148,-9.7234,-9.705,-9.7003,-9.6902,-9.6906,-9.7321,-9.7865,-9.8519,-9.8904,-9.9058,-9.8981,-9.9173,-9.8327,-9.798,-9.7519,-9.7288,-9.7019,-9.6711,-9.6519,-9.6288,-9.6249,-9.5903,-9.5365,-9.4864,-9.4518,-9.4557,-9.4595,-9.4864,-9.5172,-9.5595,-9.5942,-9.6134,-9.6288,-9.6251,-9.6059,-9.564,-9.5212,-9.4842,-9.4319,-9.341,-9.3041,-8.2617,-8.3086,-8.3086,-8.3086,-8.3125,-8.3476,-8.4219,-8.5078,-8.5351,-8.5742,-8.6172,-8.5703,-8.5703,-8.5586,-8.4492,-8.3906,-8.4375,-8.3125,-8.2734,-8.2617,-8.2461,-8.2304,-8.2304,-8.2461,-8.2929,-8.3906,-8.4051,-8.4335,-8.4993,-8.5073,-8.4373,-8.4086,-8.4466,-8.4388,-8.4414,-8.472,-8.5101,-8.54,-8.5498,-8.582,-8.5827,-8.6311,-8.6483,-8.6549,-8.6337,-8.6223,-8.611,-8.6094,-8.6094,-8.6132,-8.6132,-8.644,-8.6863,-8.7325,-8.7748,-8.8209,-8.8979,-8.9363,-8.944,-8.9479,-8.9633,-9.021,-9.0612,-9.1165,-9.2172,-9.2936,-9.3959,-9.4744,-9.5586,-9.6328,-9.7031,-9.7226,-9.7422,-9.7539,-9.744,-9.716,-9.7108,-9.7067,-9.7385,-9.7844,-9.8673,-9.9481,-9.975,-9.9942,-9.9788,-9.9635,-9.8673,-9.7788,-9.725,-9.6903,-9.6673,-9.6403,-9.6211,-9.5865,-9.5749,-9.5403,-9.5018,-9.4518,-9.4018,-9.4134,-9.4326,-9.4788,-9.5134,-9.5557,-9.598,-9.6172,-9.6288,-9.6288,-9.6136,-9.5882,-9.5473,-9.4987,-9.445,-9.3907,-9.375,-8.3203,-8.3945,-8.3941,-8.3943,-8.4023,-8.4258,-8.5039,-8.5976,-8.5898,-8.5781,-8.6172,-8.5781,-8.5625,-8.5469,-8.4687,-8.3789,-8.3594,-8.2773,-8.2422,-8.2344,-8.2344,-8.2304,-8.2304,-8.2461,-8.2773,-8.3359,-8.3554,-8.3906,-8.4768,-8.4493,-8.4273,-8.4106,-8.405,-8.4239,-8.4104,-8.4759,-8.5218,-8.5741,-8.6048,-8.6389,-8.6315,-8.6467,-8.6632,-8.6468,-8.6268,-8.612,-8.6094,-8.6132,-8.6324,-8.644,-8.6671,-8.6978,-8.7555,-8.8055,-8.8479,-8.9094,-8.9748,-9.0248,-9.0287,-9.0364,-9.071,-9.1325,-9.1518,-9.2139,-9.296,-9.3635,-9.4778,-9.5724,-9.6445,-9.707,-9.7695,-9.7617,-9.75,-9.7555,-9.7277,-9.706,-9.73,-9.7411,-9.7941,-9.8481,-9.9288,-9.9904,-9.9558,-9.9519,-9.8904,-9.8634,-9.7827,-9.7096,-9.6788,-9.6519,-9.6442,-9.6211,-9.598,-9.5557,-9.5134,-9.4711,-9.4326,-9.4057,-9.3672,-9.371,-9.3941,-9.4518,-9.5211,-9.5788,-9.6134,-9.6249,-9.6288,-9.6288,-9.6288,-9.6269,-9.5862,-9.5429,-9.4939,-9.4462,-9.4273,-8.4101,-8.4804,-8.4648,-8.4697,-8.5,-8.5742,-8.6133,-8.6367,-8.6836,-8.6758,-8.6328,-8.6758,-8.625,-8.5273,-8.4726,-8.4179,-8.332,-8.2656,-8.2304,-8.2304,-8.2304,-8.2304,-8.2304,-8.2422,-8.2734,-8.3398,-8.3633,-8.3984,-8.4844,-8.457,-8.4531,-8.4609,-8.4492,-8.4507,-8.3685,-8.5262,-8.6562,-8.7226,-8.7074,-8.6964,-8.6812,-8.6652,-8.6526,-8.6376,-8.6401,-8.6363,-8.6363,-8.6594,-8.6863,-8.7286,-8.7363,-8.7825,-8.8556,-8.921,-8.9633,-8.9902,-9.0633,-9.1056,-9.1171,-9.1171,-9.1595,-9.2172,-9.2287,-9.2971,-9.398,-9.4889,-9.5596,-9.6349,-9.6992,-9.7461,-9.7695,-9.7656,-9.7578,-9.7407,-9.7138,-9.7232,-9.752,-9.8174,-9.8764,-9.9173,-9.9673,-10.0019,-9.9404,-9.8827,-9.798,-9.7403,-9.6788,-9.6442,-9.6326,-9.6288,-9.6288,-9.6057,-9.5826,-9.5134,-9.4634,-9.4057,-9.3633,-9.3403,-9.3441,-9.3557,-9.3903,-9.4518,-9.5211,-9.5942,-9.6211,-9.6288,-9.6288,-9.6288,-9.6288,-9.6288,-9.6288,-9.5942,-9.5451,-9.5143,-9.501,-8.4961,-8.5742,-8.5504,-8.5797,-8.6251,-8.6017,-8.6251,-8.673,-8.6679,-8.6484,-8.6289,-8.6562,-8.6054,-8.5195,-8.4726,-8.4101,-8.2851,-8.2617,-8.2304,-8.2304,-8.2304,-8.2304,-8.2344,-8.25,-8.2812,-8.3398,-8.3672,-8.4062,-8.4883,-8.4453,-8.4101,-8.4101,-8.4804,-8.5039,-8.5463,-8.6445,-8.7224,-8.7196,-8.7108,-8.6991,-8.6729,-8.6588,-8.648,-8.6384,-8.6736,-8.694,-8.7017,-8.7325,-8.7825,-8.8171,-8.8248,-8.8671,-8.9363,-8.9962,-9.021,-9.0556,-9.121,-9.1479,-9.1864,-9.2095,-9.2172,-9.2595,-9.3092,-9.3781,-9.487,-9.5345,-9.6063,-9.6734,-9.7288,-9.7609,-9.7539,-9.75,-9.7407,-9.7333,-9.7214,-9.7547,-9.8012,-9.8944,-9.9673,-9.9942,-10.0366,-9.9788,-9.9173,-9.8288,-9.7403,-9.698,-9.648,-9.6403,-9.6288,-9.6288,-9.6288,-9.6019,-9.5634,-9.4864,-9.4172,-9.3403,-9.2864,-9.2556,-9.3018,-9.3633,-9.4095,-9.4634,-9.5365,-9.6172,-9.6249,-9.6288,-9.6288,-9.6288,-9.6288,-9.6288,-9.6288,-9.6288,-9.5961,-9.5859,-9.5958,-8.5676,-8.6468,-8.6184,-8.6363,-8.6767,-8.635,-8.6512,-8.6999,-8.6797,-8.664,-8.6601,-8.6367,-8.5742,-8.5039,-8.4453,-8.3789,-8.2383,-8.2304,-8.2304,-8.2304,-8.2304,-8.2539,-8.2695,-8.2812,-8.3398,-8.3789,-8.3828,-8.4023,-8.4804,-8.4023,-8.3906,-8.4336,-8.4844,-8.5234,-8.5855,-8.6428,-8.7006,-8.6823,-8.6623,-8.6959,-8.6925,-8.6931,-8.6978,-8.7192,-8.7517,-8.7825,-8.7979,-8.8363,-8.8863,-8.9017,-8.921,-8.9517,-9.0056,-9.0441,-9.0633,-9.1056,-9.1595,-9.1902,-9.2287,-9.3287,-9.3403,-9.3518,-9.3903,-9.4689,-9.5662,-9.6146,-9.6635,-9.7199,-9.752,-9.7503,-9.7425,-9.7358,-9.7356,-9.7242,-9.7625,-9.793,-9.8808,-9.9749,-10.0173,-10.0481,-10.0173,-9.9558,-9.8711,-9.7788,-9.6826,-9.6557,-9.6288,-9.6249,-9.6172,-9.6057,-9.5903,-9.5557,-9.498,-9.4018,-9.3249,-9.2556,-9.2095,-9.1748,-9.2479,-9.348,-9.4326,-9.4903,-9.5634,-9.6249,-9.6249,-9.6288,-9.6288,-9.6288,-9.6288,-9.6288,-9.6288,-9.6288,-9.6326,-9.6493,-9.6661,-8.615,-8.6974,-8.6651,-8.6466,-8.6514,-8.6669,-8.6858,-8.7112,-8.7335,-8.7422,-8.7422,-8.6601,-8.582,-8.4883,-8.4101,-8.3242,-8.2461,-8.2304,-8.2304,-8.2383,-8.25,-8.2929,-8.332,-8.3594,-8.4179,-8.4375,-8.4375,-8.4336,-8.4804,-8.4023,-8.4023,-8.457,-8.5039,-8.5259,-8.5543,-8.6185,-8.6517,-8.6214,-8.6639,-8.7014,-8.724,-8.7526,-8.7786,-8.8132,-8.8517,-8.8709,-8.8825,-8.9017,-8.944,-8.971,-8.9979,-9.0441,-9.0864,-9.1171,-9.121,-9.1479,-9.2056,-9.2364,-9.3018,-9.4134,-9.4711,-9.4749,-9.4941,-9.5801,-9.638,-9.6692,-9.7025,-9.7299,-9.7544,-9.7433,-9.7348,-9.738,-9.7387,-9.7626,-9.8031,-9.8692,-9.9648,-10.025,-10.0519,-10.0481,-9.9942,-9.9211,-9.8057,-9.7096,-9.6557,-9.6326,-9.6095,-9.5903,-9.5749,-9.5441,-9.5211,-9.4749,-9.4018,-9.2979,-9.2287,-9.1979,-9.1748,-9.1556,-9.2402,-9.3364,-9.4249,-9.5095,-9.5749,-9.6172,-9.6249,-9.6288,-9.6288,-9.6288,-9.6288,-9.6288,-9.6288,-9.6288,-9.6326,-9.6923,-9.7061,-8.6615,-8.6833,-8.6605,-8.648,-8.6529,-8.6719,-8.6929,-8.7104,-8.718,-8.7325,-8.75,-8.7265,-8.6133,-8.4922,-8.4648,-8.3554,-8.2773,-8.2304,-8.2304,-8.25,-8.2969,-8.332,-8.375,-8.4297,-8.5,-8.5234,-8.5117,-8.4726,-8.5195,-8.4414,-8.3672,-8.3984,-8.4726,-8.487,-8.5521,-8.6249,-8.6047,-8.6097,-8.68,-8.737,-8.7803,-8.81,-8.8517,-8.8863,-8.9402,-8.9517,-8.9633,-9.0094,-9.0479,-9.0671,-9.0787,-9.1056,-9.1095,-9.1248,-9.1325,-9.2056,-9.2518,-9.2941,-9.4057,-9.4711,-9.5249,-9.5711,-9.5826,-9.6084,-9.6617,-9.6875,-9.7123,-9.7283,-9.7354,-9.7292,-9.7355,-9.7443,-9.7637,-9.8076,-9.8588,-9.9432,-10.025,-10.0635,-10.0789,-9.9981,-9.9481,-9.8519,-9.7365,-9.6865,-9.6403,-9.6172,-9.5903,-9.5595,-9.5211,-9.4864,-9.448,-9.4018,-9.3326,-9.2326,-9.2095,-9.1825,-9.1595,-9.1556,-9.2518,-9.3364,-9.4134,-9.498,-9.5749,-9.6172,-9.6249,-9.6288,-9.6288,-9.6288,-9.6288,-9.6288,-9.6288,-9.6288,-9.6385,-9.6943,-9.6894,-8.6566,-8.6669,-8.6455,-8.6389,-8.6529,-8.671,-8.689,-8.71,-8.7222,-8.7372,-8.7422,-8.6719,-8.5898,-8.4883,-8.4101,-8.3203,-8.2422,-8.2734,-8.289,-8.3125,-8.3711,-8.4336,-8.4765,-8.5117,-8.5586,-8.5742,-8.539,-8.4804,-8.5078,-8.4765,-8.4062,-8.3672,-8.4271,-8.5164,-8.5907,-8.6715,-8.6997,-8.697,-8.7307,-8.7997,-8.8502,-8.8902,-8.921,-8.9671,-9.021,-9.0325,-9.0402,-9.1018,-9.1133,-9.121,-9.121,-9.121,-9.1325,-9.1518,-9.1787,-9.2556,-9.3326,-9.3903,-9.4749,-9.5288,-9.5788,-9.6095,-9.6288,-9.6317,-9.6483,-9.6682,-9.6944,-9.7138,-9.713,-9.7129,-9.7347,-9.7609,-9.8042,-9.8537,-9.9326,-10.0154,-10.0596,-10.1019,-10.0442,-9.9558,-9.8673,-9.7711,-9.698,-9.6557,-9.6249,-9.6095,-9.5634,-9.498,-9.448,-9.3903,-9.3595,-9.321,-9.2556,-9.1825,-9.171,-9.171,-9.171,-9.1902,-9.2826,-9.3633,-9.421,-9.5018,-9.5942,-9.6211,-9.6288,-9.6288,-9.6288,-9.6288,-9.6288,-9.6288,-9.6288,-9.6288,-9.6328,-9.659,-9.6234,-8.6268,-8.6519,-8.6268,-8.6349,-8.6537,-8.6774,-8.6962,-8.7159,-8.7375,-8.75,-8.7187,-8.582,-8.5156,-8.4687,-8.3633,-8.2969,-8.2773,-8.3125,-8.3515,-8.375,-8.4609,-8.5273,-8.5742,-8.625,-8.625,-8.5937,-8.539,-8.4765,-8.4219,-8.4099,-8.4038,-8.3705,-8.595,-8.6872,-8.6555,-8.7733,-8.821,-8.8374,-8.8672,-8.9261,-8.959,-8.9979,-9.0364,-9.0902,-9.1095,-9.1133,-9.1133,-9.121,-9.121,-9.121,-9.121,-9.121,-9.1441,-9.1941,-9.2326,-9.3018,-9.3941,-9.4711,-9.5288,-9.5788,-9.6057,-9.6249,-9.6288,-9.6286,-9.6437,-9.658,-9.6815,-9.703,-9.7027,-9.7359,-9.76,-9.8253,-9.8821,-9.9307,-10.0038,-10.0596,-10.0943,-10.0789,-9.975,-9.8865,-9.7904,-9.7019,-9.6711,-9.6288,-9.6288,-9.6134,-9.5326,-9.448,-9.3864,-9.3172,-9.271,-9.2441,-9.2018,-9.1518,-9.1441,-9.1479,-9.1787,-9.2287,-9.3172,-9.3941,-9.4557,-9.5365,-9.6211,-9.6288,-9.6288,-9.6288,-9.6288,-9.6288,-9.6288,-9.6288,-9.6288,-9.6288,-9.6308,-9.6291,-9.5658,-8.6253,-8.6492,-8.6616,-8.6744,-8.6962,-8.7008,-8.7163,-8.7416,-8.746,-8.75,-8.7265,-8.6367,-8.5469,-8.4726,-8.375,-8.3164,-8.332,-8.3711,-8.4023,-8.4687,-8.5469,-8.5976,-8.6328,-8.6797,-8.6679,-8.6094,-8.539,-8.4687,-8.4531,-8.4321,-8.4746,-8.5868,-8.7089,-8.6854,-8.781,-8.8997,-8.9228,-8.9748,-9.0094,-9.0094,-9.0017,-9.0594,-9.1056,-9.121,-9.121,-9.121,-9.121,-9.121,-9.121,-9.121,-9.121,-9.121,-9.1248,-9.2056,-9.2787,-9.348,-9.4441,-9.5249,-9.5749,-9.6095,-9.6249,-9.6288,-9.6288,-9.6288,-9.6373,-9.6491,-9.6666,-9.6875,-9.7147,-9.7518,-9.806,-9.8794,-9.9558,-10.0096,-10.0596,-10.0943,-10.125,-10.0135,-9.9058,-9.8134,-9.7173,-9.6711,-9.6403,-9.6288,-9.6288,-9.5672,-9.4634,-9.3787,-9.3287,-9.2672,-9.2018,-9.171,-9.1595,-9.1287,-9.121,-9.1364,-9.1748,-9.2402,-9.3249,-9.4057,-9.4903,-9.5595,-9.6288,-9.6288,-9.6288,-9.6288,-9.6288,-9.6288,-9.6288,-9.6288,-9.6288,-9.6288,-9.5803,-9.5653,-9.4958,-8.6391,-8.663,-8.6833,-8.6997,-8.7104,-8.7225,-8.7374,-8.75,-8.75,-8.75,-8.7265,-8.625,-8.5351,-8.4804,-8.3984,-8.3672,-8.3828,-8.4492,-8.5039,-8.5664,-8.6211,-8.664,-8.7031,-8.7187,-8.6367,-8.5781,-8.4883,-8.4375,-8.4844,-8.5395,-8.6072,-8.7027,-8.692,-8.7925,-8.9475,-8.9635,-9.0171,-9.1095,-9.1171,-9.0902,-9.0441,-9.0902,-9.121,-9.121,-9.121,-9.121,-9.121,-9.121,-9.121,-9.121,-9.121,-9.1556,-9.1864,-9.2672,-9.3441,-9.4249,-9.5095,-9.5788,-9.6134,-9.6288,-9.6288,-9.6288,-9.6288,-9.6288,-9.6288,-9.6432,-9.6432,-9.6635,-9.7176,-9.7589,-9.8421,-9.923,-10.0019,-10.0673,-10.0866,-10.1058,-10.0404,-9.925,-9.8481,-9.7827,-9.7019,-9.6519,-9.6288,-9.6288,-9.6134,-9.5403,-9.4287,-9.3441,-9.2903,-9.2326,-9.1595,-9.121,-9.121,-9.121,-9.121,-9.1441,-9.1787,-9.2518,-9.3364,-9.4364,-9.5288,-9.5826,-9.6288,-9.6288,-9.6288,-9.6288,-9.6288,-9.6288,-9.6288,-9.6288,-9.6288,-9.6288,-9.5741,-9.5189,-9.4553,-8.6641,-8.6872,-8.7078,-8.7163,-8.7212,-8.7415,-8.75,-8.75,-8.75,-8.75,-8.7304,-8.5859,-8.5156,-8.4765,-8.4062,-8.3945,-8.4258,-8.5273,-8.5937,-8.6523,-8.707,-8.7187,-8.7304,-8.7383,-8.6523,-8.5547,-8.457,-8.4883,-8.5429,-8.6219,-8.7014,-8.7534,-8.8709,-9.0093,-9.0213,-9.0633,-9.1171,-9.1171,-9.121,-9.121,-9.1171,-9.121,-9.121,-9.121,-9.121,-9.121,-9.121,-9.1325,-9.1325,-9.1556,-9.171,-9.2133,-9.2672,-9.3403,-9.4057,-9.4864,-9.5595,-9.6057,-9.6288,-9.6288,-9.6288,-9.6288,-9.6288,-9.6288,-9.6326,-9.646,-9.6479,-9.6825,-9.7402,-9.8056,-9.8903,-9.9731,-10.0519,-10.0904,-10.0943,-10.0635,-9.9481,-9.8442,-9.7942,-9.7403,-9.6903,-9.6326,-9.6288,-9.6288,-9.5788,-9.5057,-9.4249,-9.3441,-9.2672,-9.2056,-9.1402,-9.121,-9.121,-9.121,-9.121,-9.1402,-9.171,-9.2826,-9.371,-9.4749,-9.5634,-9.6057,-9.6288,-9.6288,-9.6288,-9.6288,-9.6288,-9.6288,-9.6288,-9.6288,-9.6288,-9.6251,-9.5902,-9.528,-9.4502,-8.688,-8.7043,-8.7325,-8.7422,-8.7422,-8.7461,-8.75,-8.75,-8.75,-8.75,-8.7226,-8.6562,-8.5937,-8.5859,-8.4258,-8.4101,-8.5351,-8.6172,-8.6719,-8.7265,-8.7383,-8.7461,-8.7422,-8.7304,-8.6797,-8.6094,-8.5429,-8.5586,-8.6488,-8.7454,-8.8174,-8.8655,-8.9214,-9.002,-9.0124,-9.0671,-9.121,-9.121,-9.121,-9.121,-9.121,-9.121,-9.121,-9.121,-9.121,-9.121,-9.1364,-9.1902,-9.2133,-9.2441,-9.2787,-9.3133,-9.3595,-9.4134,-9.4711,-9.5211,-9.5942,-9.6172,-9.6288,-9.6288,-9.6288,-9.6288,-9.6326,-9.6365,-9.6557,-9.698,-9.7153,-9.7576,-9.8192,-9.8884,-9.9654,-10.0462,-10.1173,-10.0789,-10.0673,-9.9519,-9.8327,-9.7788,-9.7365,-9.6942,-9.6519,-9.6288,-9.6288,-9.6134,-9.5826,-9.5057,-9.421,-9.3364,-9.2402,-9.1787,-9.121,-9.121,-9.121,-9.121,-9.121,-9.1248,-9.1672,-9.2864,-9.398,-9.4903,-9.5634,-9.6095,-9.6288,-9.6288,-9.6288,-9.6288,-9.6288,-9.6288,-9.6288,-9.6288,-9.6288,-9.6193,-9.5902,-9.5341,-9.445]},{"header":{"parameterUnit":"m.s-1","parameterCategory":1,"la1":31.0,"la2":29.5877,"lo1":-88.7671,"lo2":-86.6584,"dx":0.0162,"dy":0.0185,"nx":115,"ny":88,"refTime":"2022-12-30T18:00:00:Z","depth":0,"parameterNumber":3,"parameterNumberName":"V-component_of_WINDS"},"data":[0.0,0.0,0.0,0.0,0.0,0.0,0.0,0.0,0.0,0.0,0.0,0.0,0.0,0.0,0.0,0.0,0.0,0.0,0.0,0.0,0.0,0.0,0.0,0.0,0.0,0.0,0.0,0.0,0.0,0.0,0.0,0.0,0.0,0.0,0.0,0.0,0.0,0.0,0.0,0.0,0.0,0.0,0.0,0.0,0.0,0.0,0.0,0.0,0.0,0.0,0.0,0.0,0.0,0.0,0.0,0.0,0.0,0.0,0.0,0.0,0.0,0.0,0.0,0.0,0.0,0.0,0.0,0.0,0.0,0.0,0.0,0.0,0.0,0.0,0.0,0.0,0.0,0.0,0.0,0.0,0.0,0.0,0.0,0.0,0.0,0.0,0.0,0.0,0.0,0.0,0.0,0.0,0.0,0.0,0.0,0.0,0.0,0.0,0.0,0.0,0.0,0.0,0.0,0.0,0.0,0.0,0.0,0.0,0.0,0.0,0.0,0.0,0.0,0.0,0.0,0.0,0.0,0.0,0.0,0.0,0.0,0.0,0.0,0.0,0.0,0.0,0.0,0.0,0.0,0.0,0.0,0.0,0.0,0.0,0.0,0.0,0.0,0.0,0.0,0.0,0.0,0.0,0.0,0.0,0.0,0.0,0.0,0.0,0.0,0.0,0.0,0.0,0.0,0.0,0.0,0.0,0.0,0.0,0.0,0.0,0.0,0.0,0.0,0.0,0.0,0.0,0.0,0.0,0.0,0.0,0.0,0.0,0.0,0.0,0.0,0.0,0.0,0.0,0.0,0.0,0.0,0.0,0.0,0.0,0.0,0.0,0.0,0.0,0.0,0.0,0.0,0.0,0.0,0.0,0.0,0.0,0.0,0.0,0.0,0.0,0.0,0.0,0.0,0.0,0.0,0.0,0.0,0.0,0.0,0.0,0.0,0.0,0.0,0.0,0.0,0.0,0.0,0.0,0.0,0.0,0.0,0.0,0.0,0.0,0.0,0.0,0.0,0.0,0.0,0.0,0.0,0.0,0.0,0.0,0.0,0.0,0.0,0.0,0.0,0.0,0.0,0.0,0.0,0.0,0.0,0.0,0.0,0.0,0.0,0.0,0.0,0.0,0.0,0.0,0.0,0.0,0.0,0.0,0.0,0.0,0.0,0.0,0.0,0.0,0.0,0.0,0.0,0.0,0.0,0.0,0.0,0.0,0.0,0.0,0.0,0.0,0.0,0.0,0.0,0.0,0.0,0.0,0.0,0.0,0.0,0.0,0.0,0.0,0.0,0.0,0.0,0.0,0.0,0.0,0.0,0.0,0.0,0.0,0.0,0.0,0.0,0.0,0.0,0.0,0.0,0.0,0.0,0.0,0.0,0.0,0.0,0.0,0.0,0.0,0.0,0.0,0.0,0.0,0.0,0.0,0.0,0.0,0.0,0.0,0.0,0.0,0.0,0.0,0.0,0.0,0.0,0.0,0.0,0.0,0.0,0.0,0.0,0.0,0.0,0.0,0.0,0.0,0.0,0.0,0.0,0.0,0.0,0.0,0.0,0.0,0.0,0.0,0.0,0.0,0.0,0.0,0.0,0.0,0.0,0.0,0.0,0.0,0.0,0.0,0.0,0.0,0.0,0.0,0.0,0.0,0.0,0.0,0.0,0.0,0.0,0.0,0.0,0.0,0.0,0.0,0.0,0.0,0.0,0.0,0.0,0.0,0.0,0.0,0.0,0.0,0.0,0.0,0.0,0.0,0.0,0.0,0.0,0.0,0.0,0.0,0.0,0.0,0.0,0.0,0.0,0.0,0.0,0.0,0.0,0.0,0.0,0.0,0.0,0.0,0.0,0.0,0.0,0.0,0.0,0.0,0.0,0.0,0.0,0.0,0.0,0.0,0.0,0.0,0.0,0.0,0.0,0.0,0.0,0.0,0.0,0.0,0.0,0.0,0.0,0.0,0.0,0.0,0.0,0.0,0.0,0.0,0.0,0.0,0.0,0.0,0.0,0.0,0.0,0.0,0.0,0.0,0.0,0.0,0.0,0.0,0.0,0.0,0.0,0.0,0.0,0.0,0.0,0.0,0.0,0.0,0.0,0.0,0.0,0.0,0.0,0.0,0.0,0.0,0.0,0.0,0.0,0.0,0.0,0.0,0.0,0.0,0.0,0.0,0.0,0.0,0.0,0.0,0.0,0.0,0.0,0.0,0.0,0.0,0.0,0.0,0.0,0.0,0.0,0.0,0.0,0.0,0.0,0.0,0.0,0.0,0.0,0.0,0.0,0.0,0.0,0.0,0.0,0.0,0.0,0.0,0.0,0.0,0.0,0.0,0.0,0.0,0.0,0.0,0.0,0.0,0.0,0.0,0.0,0.0,0.0,0.0,0.0,0.0,0.0,0.0,0.0,0.0,0.0,0.0,0.0,0.0,0.0,0.0,0.0,0.0,0.0,0.0,0.0,0.0,0.0,0.0,0.0,0.0,0.0,0.0,0.0,0.0,0.0,0.0,0.0,0.0,0.0,0.0,0.0,0.0,0.0,0.0,0.0,0.0,0.0,0.0,0.0,0.0,0.0,0.0,0.0,0.0,0.0,0.0,0.0,0.0,0.0,0.0,0.0,0.0,0.0,0.0,0.0,0.0,0.0,0.0,0.0,0.0,0.0,0.0,0.0,0.0,0.0,0.0,0.0,0.0,0.0,0.0,0.0,0.0,0.0,0.0,0.0,0.0,0.0,0.0,0.0,0.0,0.0,0.0,0.0,0.0,0.0,0.0,0.0,0.0,0.0,0.0,0.0,0.0,0.0,0.0,0.0,0.0,0.0,0.0,0.0,0.0,0.0,0.0,0.0,0.0,0.0,0.0,0.0,0.0,0.0,0.0,0.0,0.0,0.0,0.0,0.0,0.0,0.0,0.0,0.0,0.0,0.0,0.0,0.0,0.0,0.0,0.0,0.0,0.0,0.0,0.0,0.0,0.0,0.0,0.0,0.0,0.0,0.0,0.0,0.0,0.0,0.0,0.0,0.0,0.0,0.0,0.0,0.0,0.0,0.0,0.0,0.0,0.0,0.0,0.0,0.0,0.0,0.0,0.0,0.0,0.0,0.0,0.0,0.0,0.0,0.0,0.0,0.0,0.0,0.0,0.0,0.0,0.0,0.0,0.0,0.0,0.0,0.0,0.0,0.0,0.0,0.0,0.0,0.0,0.0,0.0,0.0,0.0,0.0,0.0,0.0,0.0,0.0,0.0,0.0,0.0,0.0,0.0,0.0,0.0,0.0,0.0,0.0,0.0,0.0,0.0,0.0,0.0,0.0,0.0,0.0,0.0,0.0,0.0,0.0,0.0,0.0,0.0,0.0,0.0,0.0,0.0,0.0,0.0,0.0,0.0,0.0,0.0,0.0,0.0,0.0,0.0,0.0,0.0,0.0,0.0,0.0,0.0,0.0,0.0,0.0,0.0,0.0,0.0,0.0,0.0,0.0,0.0,0.0,0.0,0.0,0.0,0.0,0.0,0.0,0.0,0.0,0.0,0.0,0.0,0.0,0.0,0.0,0.0,0.0,0.0,0.0,0.0,0.0,0.0,0.0,0.0,0.0,0.0,0.0,0.0,0.0,0.0,0.0,0.0,0.0,0.0,0.0,0.0,0.0,0.0,0.0,0.0,0.0,0.0,0.0,0.0,0.0,0.0,0.0,0.0,0.0,0.0,0.0,0.0,0.0,0.0,0.0,0.0,0.0,0.0,0.0,0.0,0.0,0.0,0.0,0.0,0.0,0.0,0.0,0.0,0.0,0.0,0.0,0.0,0.0,0.0,0.0,0.0,0.0,0.0,0.0,0.0,0.0,0.0,0.0,0.0,0.0,0.0,0.0,0.0,0.0,0.0,0.0,0.0,0.0,0.0,0.0,0.0,0.0,0.0,0.0,0.0,0.0,0.0,0.0,0.0,0.0,0.0,0.0,0.0,0.0,0.0,0.0,0.0,0.0,0.0,0.0,0.0,0.0,0.0,0.0,0.0,0.0,0.0,0.0,0.0,0.0,0.0,0.0,0.0,0.0,0.0,0.0,0.0,0.0,0.0,0.0,0.0,0.0,0.0,0.0,0.0,0.0,0.0,0.0,0.0,0.0,0.0,0.0,0.0,0.0,0.0,0.0,0.0,0.0,0.0,0.0,0.0,0.0,0.0,0.0,0.0,0.0,0.0,0.0,0.0,0.0,0.0,0.0,0.0,0.0,0.0,0.0,0.0,0.0,0.0,0.0,0.0,0.0,0.9726,0.0,0.0,0.0,0.562,0.0,0.0,0.0,0.0,0.0,0.0,0.0,0.0,0.0,0.0,0.0,0.0,0.0,0.0,0.0,0.0,0.0,0.0,0.0,0.0,0.0,0.0,0.0,0.0,0.0,0.0,0.0,0.0,0.0,0.0,0.0,0.0,0.0,0.0,0.0,0.0,0.0,0.0,0.0,0.0,0.0,0.0,0.0,0.0,0.0,0.0,0.0,0.0,0.0,0.0,0.0,0.0,0.0,0.0,0.0,0.0,0.0,0.0,0.0,0.0,0.0,0.0,0.0,0.0,0.0,0.0,0.0,0.0,0.0,0.0,0.0,0.0,0.0,0.0,0.0,0.0,0.0,0.0,0.0,0.0,0.0,0.0,0.0,0.0,0.0,0.0,0.0,0.0,0.0,0.0,0.0,0.0,0.0,0.0,0.0,0.0,0.0,0.0,0.0,0.0,0.0,0.0,0.0,0.0,0.0,0.0,0.0,0.0,0.0,0.0,0.9768,0.9042,0.8351,0.7471,0.6407,0.0,0.0,0.0,0.0,0.0,0.0,0.0,0.0,0.0,0.0,0.0,0.0,0.0,0.0,0.0,0.0,0.0,0.0,0.0,0.0,0.0,0.0,0.0,0.0,0.0,0.0,0.0,0.0,0.0,0.0,0.0,0.0,0.0,0.0,0.0,0.0,0.0,0.0,0.0,0.0,0.0,0.0,0.0,0.0,0.0,0.0,0.0,0.0,0.0,0.0,0.0,0.0,0.0,0.0,0.0,0.0,0.0,0.0,0.0,0.0,0.0,0.0,0.0,0.0,0.0,0.0,0.0,0.0,0.0,0.0,0.0,0.0,0.0,0.0,0.0,0.0,0.0,0.0,0.0,0.0,0.0,0.0,0.0,0.0,0.0,0.0,0.0,0.0,0.0,0.0,0.0,0.0,0.0,0.0,0.0,0.0,0.0,0.0,0.0,0.0,0.0,0.0,0.0,0.0,0.0,0.0,0.0,0.0,0.0,0.0,0.0,0.0,0.855,0.7567,0.6737,0.0,0.0,0.0,0.0,0.0,0.0,0.0,0.0,0.0,0.0,0.0,0.0,0.0,0.0,0.0,0.0,0.0,0.0,0.0,0.0,0.0,0.0,0.0,0.0,0.0,0.0,0.0,0.0,0.0,0.0,0.0,0.0,0.0,0.0,0.0,0.0,0.0,0.0,0.0,0.0,0.0,0.0,0.0,0.0,0.0,0.0,0.0,0.0,0.0,0.0,0.0,0.0,0.0,0.0,0.0,0.0,0.0,0.0,0.0,0.0,0.0,0.0,0.0,0.0,0.0,0.0,0.0,0.0,0.0,0.0,0.0,0.0,0.0,0.0,0.0,0.0,0.0,0.0,0.0,0.0,0.0,0.0,0.0,0.0,0.0,0.0,0.0,0.0,0.0,0.0,0.0,0.0,0.0,0.0,0.0,0.0,0.0,0.0,0.0,0.0,0.0,0.0,0.0,0.0,0.0,0.0,0.0,0.0,0.0,0.0,0.9377,0.9644,0.8425,0.0,0.5687,0.0,0.0,0.0,0.0,0.0,0.0,0.0,0.0,0.0,0.0,0.0,0.0,0.0,0.0,0.0,0.0,0.0,0.0,0.0,0.0,0.0,0.0,0.0,0.0,0.0,0.0,0.0,0.0,0.0,0.0,0.0,0.0,0.0,0.0,0.0,0.0,0.0,0.0,0.0,0.0,0.0,0.0,0.0,0.0,0.0,0.0,0.0,0.0,0.0,0.0,0.0,0.0,0.0,0.0,0.0,0.0,0.0,0.0,0.0,0.0,0.0,0.0,0.0,0.0,0.0,0.0,0.0,0.0,0.0,0.0,0.0,0.0,0.0,0.0,0.0,0.0,0.0,0.0,0.0,0.0,0.0,0.0,0.0,0.0,0.0,0.0,0.0,0.0,0.0,0.0,0.0,0.0,0.0,0.0,0.0,0.0,0.0,0.0,0.0,0.0,0.0,0.0,0.0,0.0,0.0,0.0,0.0,0.0,0.0,0.0,0.8587,0.8536,0.7587,0.6622,0.0,0.0,0.0,0.0,0.0,0.0,0.0,0.0,0.0,0.0,0.0,0.0,0.0,0.0,0.0,0.0,0.0,0.0,0.0,0.0,0.0,0.0,0.0,0.0,0.0,0.0,0.0,0.0,0.0,0.0,0.0,0.0,0.0,0.0,0.0,0.0,0.0,0.0,0.0,0.0,0.0,0.0,0.0,0.0,0.0,0.0,0.0,0.0,0.0,0.0,0.0,0.0,0.0,0.0,0.0,0.0,0.0,0.0,0.0,0.0,0.0,0.0,0.0,0.0,0.0,0.0,0.0,0.0,0.0,0.0,0.0,0.0,0.0,0.0,0.0,0.0,0.0,0.0,0.0,0.0,0.0,0.0,0.0,0.0,0.0,0.0,0.0,0.0,0.0,0.0,0.0,0.0,0.0,0.0,0.0,0.0,0.0,0.0,0.0,0.0,0.0,0.0,0.0,0.0,0.0,0.0,0.0,0.0,0.0,0.0,0.8161,0.7972,0.7479,0.7034,0.6428,0.5678,0.0,0.0,0.0,0.0,0.0,0.0,0.0,0.0,0.0,0.0,0.0,0.0,0.0,0.0,0.0,0.0,0.0,0.0,0.0,0.0,0.0,0.0,0.0,0.0,0.0,0.0,0.0,0.0,0.0,0.0,0.0,0.0,0.0,0.0,0.0,0.0,0.0,0.0,0.0,0.0,0.0,0.0,0.0,0.0,0.0,0.0,0.0,0.0,0.0,0.0,0.0,0.0,0.0,0.0,0.0,0.0,0.0,0.0,0.0,0.0,0.0,0.0,0.0,0.0,0.0,0.0,0.0,0.0,0.0,0.0,0.0,0.0,0.0,0.0,0.0,0.0,0.0,0.0,0.0,0.0,0.0,0.0,0.0,0.0,0.0,0.0,0.0,0.0,0.0,0.0,0.0,0.0,0.0,0.0,0.0,0.0,0.0,0.0,0.0,0.0,0.0,0.0,0.0,0.0,0.0,0.0,0.0,0.0,0.8871,0.8414,0.7777,0.695,0.7001,0.6653,0.0,0.0,0.0,0.0,0.0,0.0,0.0,0.0,0.0,0.0,0.0,0.0,0.0,0.0,0.0,0.0,0.0,0.0,0.0,0.0,0.0,0.0,0.0,0.0,0.0,0.0,0.0,0.0,0.0,0.0,0.0,0.0,0.0,0.0,0.0,0.0,0.0,0.0,0.0,0.0,0.0,0.0,0.0,0.0,0.0,0.0,0.0,0.0,0.0,0.0,0.0,0.0,0.0,0.0,0.0,0.0,0.0,0.0,0.0,0.0,0.0,0.0,0.0,0.0,0.0,0.0,0.0,0.0,0.0,0.0,0.0,0.0,0.0,0.0,0.0,0.0,0.0,0.0,0.0,0.0,0.0,0.0,0.0,0.0,0.0,0.0,0.0,0.0,0.0,0.0,0.0,0.0,0.0,0.0,0.0,0.0,0.0,0.0,0.0,0.0,0.0,0.0,0.0,0.0,0.0,0.0,0.0,0.0,0.0,0.7433,0.6559,0.6229,0.6485,0.6063,0.5895,0.0,0.0,0.0,0.0,0.0,0.0,0.0,0.0,0.0,0.0,0.0,0.0,0.0,0.0,0.0,0.0,0.0,0.0,0.0,0.0,0.0,0.0,0.0,0.0,0.0,0.0,0.0,0.0,0.0,0.0,0.0,0.0,0.0,0.0,0.0,0.0,0.0,0.0,0.0,0.0,0.0,0.0,0.0,0.0,0.0,0.0,0.0,0.0,0.0,0.0,0.0,0.0,0.0,0.0,0.0,0.0,0.0,0.0,0.0,0.0,0.0,0.0,0.0,0.0,0.0,0.0,0.0,0.0,0.0,0.0,0.0,0.0,0.0,0.0,0.0,0.0,0.0,0.0,0.0,0.0,0.0,0.0,0.0,0.0,0.0,0.0,0.0,0.0,0.0,0.0,0.0,0.0,0.0,0.0,0.0,0.0,0.0,0.0,0.0,0.0,0.0,0.0,0.0,0.0,0.0,0.0,0.0,0.0,0.0,0.6837,0.5894,0.5671,0.6139,0.5739,0.5644,0.0,0.0,0.0,0.0,0.0,0.0,0.0,0.0,0.0,0.0,0.0,0.0,0.0,0.0,0.0,0.0,0.0,0.0,0.0,0.0,0.0,0.0,0.0,0.0,0.0,0.0,0.0,0.0,0.0,0.0,0.0,0.0,0.0,0.0,0.0,0.0,0.0,0.0,0.0,0.0,0.0,0.0,0.0,0.0,0.0,0.0,0.0,0.0,0.0,0.0,0.0,0.0,0.0,0.0,0.0,0.0,0.0,0.0,0.0,0.0,0.0,0.0,0.0,0.0,0.0,0.0,0.0,0.0,0.0,0.0,0.0,0.0,0.0,0.0,0.0,0.0,0.0,0.0,0.0,0.0,0.0,0.0,0.0,0.0,0.0,0.0,0.0,0.0,0.0,0.0,0.0,0.0,0.0,0.0,0.0,0.0,0.0,0.0,0.0,0.0,0.0,0.0,0.0,0.0,0.0,0.0,0.0,0.0,0.796,0.7247,0.6634,0.6126,0.602,0.6069,0.5962,0.0,0.0,0.0,0.0,0.0,0.0,0.0,0.0,0.0,0.0,0.0,0.0,0.0,0.0,0.0,0.0,0.0,0.0,0.0,0.0,0.0,0.0,0.0,0.0,0.0,0.0,0.0,0.0,0.0,0.0,0.0,0.0,0.0,0.0,0.0,0.0,0.0,0.0,0.0,0.0,0.0,0.0,0.0,0.0,0.0,0.0,0.0,0.0,0.0,0.0,0.0,0.0,0.0,0.0,0.0,0.0,0.0,0.0,0.0,0.0,0.0,0.0,0.0,0.0,0.0,0.0,0.0,0.0,0.0,0.0,0.0,0.0,0.0,0.0,0.0,0.0,0.0,0.0,0.0,0.0,0.0,0.0,0.0,0.0,0.0,0.0,0.0,0.0,0.0,0.0,0.0,0.0,0.0,0.0,0.0,0.0,0.0,0.0,0.0,0.0,0.0,0.0,0.0,0.0,0.0,0.0,0.0,0.0,0.0,0.5182,0.3996,0.3995,0.5175,0.471,0.5015,0.0,0.0,0.0,0.0,0.0,0.0,0.0,0.0,0.0,0.0,0.0,0.0,0.0,0.0,0.0,0.0,0.0,0.0,0.0,0.0,0.0,0.0,0.0,0.0,0.0,0.0,0.0,0.0,0.0,0.0,0.0,0.0,0.0,0.0,0.0,0.0,0.0,0.0,0.0,0.0,0.0,0.0,0.0,0.0,0.0,0.0,0.0,0.0,0.0,0.0,0.0,0.0,0.0,0.0,0.0,0.0,0.0,0.0,0.0,0.0,0.0,0.0,0.0,0.0,0.0,0.0,0.0,0.0,0.0,0.0,0.0,0.0,0.0,0.0,0.0,0.0,0.0,0.0,0.0,0.0,0.0,0.0,0.0,0.0,0.0,0.0,0.0,0.0,0.0,0.0,0.0,0.0,0.0,0.0,0.0,0.0,0.0,0.0,0.0,0.0,0.0,0.0,0.0,0.0,0.0,0.0,0.0,0.0,0.0,0.4172,0.3132,0.3135,0.4205,0.3702,0.4155,0.5687,0.0,0.0,0.0,0.0,0.0,0.0,0.0,0.0,0.0,0.0,0.0,0.0,0.0,0.0,0.0,0.0,0.0,0.0,0.0,0.0,0.0,0.0,0.0,0.0,0.0,0.0,0.0,0.0,0.0,0.0,0.0,0.0,0.0,0.0,0.0,0.0,0.0,0.0,0.0,0.0,0.0,0.0,0.0,0.0,0.0,0.0,0.0,0.0,0.0,0.0,0.0,0.0,0.0,0.0,0.0,0.0,0.0,0.0,0.0,0.0,0.0,0.0,0.0,0.0,0.0,0.0,0.0,0.0,0.0,0.0,0.0,0.0,0.0,0.0,0.0,0.0,0.0,0.0,0.0,0.0,0.0,0.0,0.0,0.0,0.0,0.0,0.0,0.0,0.0,0.0,0.0,0.0,0.0,0.0,0.0,0.0,0.0,0.0,0.0,0.0,0.0,0.0,0.0,0.0,0.0,0.0,0.0,0.0,0.4243,0.3694,0.3275,0.306,0.3013,0.3374,0.0,0.0,0.0,0.0,0.0,0.0,0.0,0.0,0.0,0.0,0.0,0.0,0.0,0.0,0.0,0.0,0.0,0.0,0.0,0.0,0.0,0.0,0.0,0.0,0.0,0.0,0.0,0.0,0.0,0.0,0.0,0.0,0.0,0.0,0.0,0.0,0.0,0.0,0.0,0.0,0.0,0.0,0.0,0.0,0.0,0.0,0.0,0.0,0.0,0.0,0.0,0.0,0.0,0.0,0.0,0.0,0.0,0.0,0.0,0.0,0.0,0.0,0.0,0.0,0.0,0.0,0.0,0.0,0.0,0.0,0.0,0.0,0.0,0.0,0.0,0.0,0.0,0.0,0.0,0.0,0.0,0.0,0.0,0.0,0.0,0.0,0.0,0.0,0.0,0.0,0.0,0.0,0.0,0.0,0.0,0.0,0.0,0.0,0.0,0.0,0.0,0.0,0.0,0.0,0.0,0.0,0.0,0.0,0.0,0.4742,0.2324,0.1395,0.2248,0.1949,0.2752,0.0,0.0,0.0,0.0,0.0,0.0,0.0,0.0,0.0,0.0,0.0,0.0,0.0,0.0,0.0,0.0,0.0,0.0,0.0,0.0,0.0,0.0,0.0,0.0,0.0,0.0,0.0,0.0,0.0,0.0,0.0,0.0,0.0,0.0,0.0,0.0,0.0,0.0,0.0,0.0,0.0,0.0,0.0,0.0,0.0,0.0,0.0,0.0,0.0,0.0,0.0,0.0,0.0,0.0,0.0,0.0,0.0,0.0,0.0,0.0,0.0,0.0,0.0,0.0,0.0,0.0,0.0,0.0,0.0,0.0,0.0,0.0,0.0,0.0,0.0,0.0,0.0,0.0,0.0,0.0,0.0,0.0,0.0,0.0,0.0,0.0,0.0,0.0,0.0,0.0,0.0,0.0,0.0,0.0,0.0,0.0,0.0,0.0,0.0,0.0,0.0,0.0,0.0,0.0,0.0,0.0,0.0,0.0,0.3998,0.3781,0.129,0.0364,0.1117,0.0872,0.1867,0.0,0.0,0.0,0.0,0.0,0.0,0.0,0.0,0.0,0.0,0.0,0.0,0.0,0.0,0.0,0.0,0.0,0.0,0.0,0.0,0.0,0.0,0.0,0.0,0.0,0.0,0.0,0.0,0.0,0.0,0.0,0.0,0.0,0.0,0.0,0.0,0.0,0.0,0.0,0.0,0.0,0.0,0.0,0.0,0.0,0.0,0.0,0.0,0.0,0.0,0.0,0.0,0.0,0.0,0.0,0.0,0.0,0.0,0.0,0.0,0.0,0.0,0.0,0.0,0.0,0.0,0.0,0.0,0.0,0.0,0.0,0.0,0.0,0.0,0.0,0.0,0.0,0.0,0.0,0.0,0.0,0.0,0.0,0.0,0.0,0.0,0.0,0.0,0.0,0.0,0.0,0.0,0.0,0.0,0.0,0.0,0.0,0.0,0.0,0.0,0.0,0.0,0.0,0.0,0.0,0.0,0.0,0.0,0.2887,0.1975,0.0689,0.0,0.0,0.0,0.1042,0.0,0.0,0.0,0.0,0.0,0.0,0.0,0.0,0.0,0.0,0.0,0.0,0.0,0.0,0.0,0.0,0.0,0.0,0.0,0.0,0.0,0.0,0.0,0.0,0.0,0.0,0.0,0.0,0.0,0.0,0.0,0.0,0.0,0.0,0.0,0.0,0.0,0.0,0.0,0.0,0.0,0.0,0.0,0.0,0.0,0.0,0.0,0.0,0.0,0.0,0.0,0.0,0.0,0.0,0.0,0.0,0.0,0.0,0.0,0.0,0.0,0.0,0.0,0.0,0.0,0.0,0.0,0.0,0.0,0.0,0.0,0.0,0.0,0.0,0.0,0.0,0.0,0.0,0.0,0.0,0.0,0.0,0.0,0.0,0.0,0.0,0.0,0.0,0.0,0.0,0.0,0.0,0.0,0.0,0.0,0.0,0.0,0.0,0.0,0.0,0.0,0.0,0.0,0.0,0.0,0.0,0.0,0.0,0.3546,0.1991,0.0706,0.0,0.0,0.0,0.1056,0.0,0.0,0.0,0.0,0.0,0.0,0.0,0.0,0.0,0.0,0.0,0.0,0.0,0.0,0.0,0.0,0.0,0.0,0.0,0.0,0.0,0.0,0.0,0.0,0.0,0.0,0.0,0.0,0.0,0.0,0.0,0.0,0.0,0.0,0.0,0.0,0.0,0.0,0.0,0.0,0.0,0.0,0.0,0.0,0.0,0.0,0.0,0.0,0.3389,0.0,0.0,0.0,0.0,0.0,0.0,0.0,0.0,0.0,0.0,0.0,0.0,0.0,0.0,0.0,0.0,0.0,0.0,0.0,0.0,0.0,0.0,0.0,0.0,0.0,0.0,0.0,0.0,0.0,0.0,0.0,0.0,0.0,0.0,0.0,0.0,0.0,0.0,0.0,0.0,0.0,0.0,0.0,0.0,0.0,0.0,0.0,0.0,0.0,0.0,0.0,0.0,0.0,0.0,0.0,0.0,0.0,0.0,0.0,0.3136,0.1144,0.0331,0.0,0.0,0.0,0.0836,0.0,0.0,0.0,0.0,0.0,0.0,0.0,0.0,0.0,0.0,0.0,0.0,0.0,0.0,0.0,0.0,0.0,0.0,0.0,0.0,0.0,0.0,0.0,0.0,0.0,0.0,0.0,0.0,0.0,0.0,0.0,0.0,0.0,0.0,0.0,0.0,0.0,0.0,0.0,0.0,0.0,0.0,0.0,0.0,0.0,0.0,0.0,0.0,0.0,0.0,0.0,0.0,0.0,0.0,0.0,0.0,0.0,0.0,0.0,0.0,0.0,0.0,0.0,0.0,0.0,0.0,0.0,0.0,0.0,0.0,0.0,0.0,0.0,0.0,0.0,0.0,0.0,0.0,0.0,0.0,0.0,0.0,0.0,0.0,0.0,0.0,0.0,0.0,0.0,0.0,0.0,0.0,0.0,0.0,0.0,0.0,0.0,0.0,0.0,0.0,0.0,0.0,0.0,0.0,0.0,0.0,0.0,0.3691,0.2279,0.0,0.0,0.0,0.0,0.0,0.0546,0.1774,0.0,0.0,0.0,0.0,0.0,0.0,0.0,0.0,0.0,0.0,0.0,0.0,0.0,0.0,0.0,0.0,0.0,0.0,0.0,0.0,0.0,0.0,0.0,0.0,0.0,0.0,0.0,0.0,0.0,0.0,0.0,0.0,0.0,0.0,0.0,0.0,0.0,0.0,0.3302,0.3343,0.0,0.0,0.0,0.0,0.0,0.0,0.0,0.0,0.4474,0.0,0.0,0.0,0.0,0.0,0.0,0.0,0.0,0.0,0.0,0.0,0.0,0.0,0.0,0.0,0.0,0.0,0.0,0.0,0.0,0.0,0.0,0.0,0.0,0.0,0.0,0.0,0.0,0.0,0.0,0.0,0.0,0.0,0.0,0.0,0.0,0.0,0.0,0.0,0.0,0.0,0.0,0.0,0.0,0.0,0.0,0.0,0.0,0.0,0.0,0.0,0.0,0.0,0.0,0.0,0.0,0.3729,0.2785,0.1511,0.0,0.0,0.0,0.0,0.0,0.0562,0.176,0.0,0.0,0.0,0.0,0.0,0.0,0.0,0.0,0.0,0.0,0.0,0.0,0.0,0.0,0.0,0.0,0.0,0.0,0.0,0.0,0.0,0.0,0.0,0.0,0.0,0.0,0.0,0.0,0.0,0.0,0.0,0.0,0.0,0.0,0.0,0.0,0.0,0.0,0.0,0.2113,0.2076,0.0,0.0,0.0,0.0,0.0,0.0,0.0,0.0,0.7821,0.0,0.0,0.0,0.0,0.0,0.0,0.0,0.0,0.0,0.0,0.0,0.0,0.0,0.0,0.0,0.0,0.0,0.0,0.0,0.0,0.0,0.0,0.0,0.0,0.0,0.0,0.0,0.0,0.0,0.0,0.0,0.0,0.0,0.0,0.0,0.0,0.0,0.0,0.0,0.0,0.0,0.0,0.0,0.0,0.0,0.0,0.0,0.0,0.0,0.0,0.0,0.0,0.0,0.0,0.0,0.3912,0.3494,0.2228,0.0113,0.0865,0.0872,0.0058,0.082,0.1754,0.0,0.0,0.0,0.0,0.0,0.0,0.0,0.0,0.0,0.0,0.0,0.0,0.0,0.0,0.0,0.0,0.0,0.0,0.0,0.0,0.0,0.0,0.0,0.0,0.0,0.0,0.0,0.0,0.0,0.0,0.0,0.0,0.0,0.0,0.0,0.0,0.0,0.0,0.0,0.0,0.1809,0.1807,0.1819,0.0,0.0,0.0,0.0,0.0,0.0,0.7522,0.8079,0.0,0.0,0.0,0.0,0.0,0.0,0.0,0.0,0.0,0.0,0.0,0.0,0.0,0.0,0.0,0.0,0.0,0.0,0.0,0.0,0.0,0.0,0.0,0.0,0.0,0.0,0.0,0.0,0.0,0.0,0.0,0.0,0.0,0.0,0.0,0.0,0.0,0.0,0.0,0.0,0.0,0.0,0.0,0.0,0.0,0.0,0.0,0.0,0.0,0.0,0.0,0.0,0.0,0.0,0.0,0.3988,0.408,0.2751,0.0231,0.164,0.1716,0.0059,0.131,0.2463,0.0,0.0,0.0,0.0,0.0,0.0,0.0,0.0,0.0,0.0,0.0,0.0,0.0,0.0,0.0,0.0,0.0,0.0,0.0,0.0,0.0,0.0,0.0,0.0,0.0,0.0,0.0,0.0,0.0,0.0,0.0,0.0,0.0,0.0,0.0,0.0,0.0,0.0,0.0,0.0,0.0,0.1751,0.1514,0.3132,0.0,0.0,0.0,0.0,0.8182,0.8324,0.0,0.0,0.0,0.0,0.0,0.0,0.0,0.0,0.0,0.0,0.0,0.0,0.0,0.0,0.0,0.0,0.0,0.0,0.0,0.0,0.0,0.0,0.0,0.0,0.0,0.0,0.0,0.0,0.0,0.0,0.0,0.0,0.0,0.0,0.0,0.0,0.0,0.0,0.0,0.0,0.0,0.0,0.0,0.0,0.0,0.0,0.0,0.0,0.0,0.0,0.0,0.0,0.0,0.0,0.0,0.0,0.3189,0.2897,0.1821,0.0176,0.1608,0.1693,0.0061,0.0187,0.1319,0.0,0.0,0.0,0.0,0.0,0.0,0.0,0.0,0.0,0.0,0.0,0.0,0.0,0.0,0.0,0.0,0.0,0.0,0.0,0.0,0.0,0.0,0.0,0.0,0.0,0.0,0.0,0.0,0.0,0.0,0.0,0.0,0.0,0.0,0.0,0.0,0.0,0.0,0.0,0.0,0.0,0.1647,0.0393,0.2963,0.5104,0.0,0.0,1.0785,1.0756,1.143,0.0,0.0,0.0,0.0,0.0,0.0,0.0,0.0,0.0,0.0,0.0,0.0,0.0,0.0,0.0,0.0,0.0,0.0,0.0,0.0,0.0,0.0,0.0,0.0,0.0,0.0,0.0,0.0,0.0,0.0,0.0,0.0,0.0,0.0,0.0,0.0,0.0,0.0,0.0,0.0,0.0,0.0,0.0,0.0,0.0,0.0,0.0,0.0,0.0,0.0,0.0,0.0,0.0,0.0,0.0,0.2777,0.3131,0.3616,0.263,0.0179,0.2499,0.2599,0.0063,0.095,0.206,0.0,0.0,0.0,0.0,0.0,0.0,0.0,0.0,0.0,0.0,0.0,0.0,0.0,0.0,0.0,0.0,0.0,0.0,0.0,0.0,0.0,0.0,0.0,0.0,0.0,0.0,0.0,0.0,0.0,0.0,0.0,0.0,0.0,0.0,0.0,0.0,0.0,0.0,0.0,0.0,0.0,0.0,0.3295,0.4542,0.0,0.0,0.0,1.145,1.1199,0.0,0.0,0.0,0.0,0.0,0.0,0.0,0.0,0.0,0.0,0.0,0.0,0.0,0.0,0.0,0.0,0.0,0.0,0.0,0.0,0.0,0.0,0.0,0.0,0.0,0.0,0.0,0.0,0.0,0.0,0.0,0.0,0.0,0.0,0.0,0.0,0.0,0.0,0.0,0.0,0.0,0.0,0.0,0.0,0.0,0.0,0.0,0.0,0.0,0.0,0.0,0.0,0.0,0.0,0.0,0.0,0.0,0.3472,0.4035,0.2899,0.0184,0.2812,0.2913,0.0128,0.1223,0.0,0.0,0.0,0.0,0.0,0.0,0.0,0.0,0.0,0.0,0.0,0.0,0.0,0.0,0.0,0.0,0.0,0.0,0.0,0.0,0.0,0.0,0.0,0.0,0.0,0.0,0.0,0.5016,0.0,0.0,0.0,0.0,0.0,0.0,0.0,0.0,0.0,0.0,0.0,0.0,0.0,0.0,0.3375,0.5673,0.5806,0.6374,0.0,0.0,1.1816,1.1443,1.1613,1.1917,0.0,0.0,0.0,0.0,0.0,0.0,0.0,0.0,0.0,0.0,0.0,0.0,0.0,0.0,0.0,0.0,0.0,0.0,0.0,0.0,0.0,0.0,0.0,0.0,0.0,0.0,0.0,0.0,0.0,0.0,0.0,0.0,0.0,0.0,0.0,0.0,0.0,0.0,0.0,0.0,0.0,0.0,0.0,0.0,0.0,0.0,0.0,0.0,0.0,0.0,0.0,0.0,0.0,0.0,0.3312,0.4413,0.3298,0.1837,0.0129,0.1734,0.1811,0.0066,0.0,0.0747,0.0,0.0,0.0,0.0,0.0,0.0,0.0,0.0,0.0,0.0,0.0,0.0,0.0,0.0,0.0,0.0,0.0,0.0,0.0,0.0,0.0,0.0,0.0,0.0,0.0,0.0,0.0,0.0,0.0,0.0,0.0,0.0,0.0,0.0,0.0,0.0,0.0,0.0,0.0,0.0,0.0,0.3113,0.5618,0.6018,0.6698,0.0,1.0932,1.2196,1.2101,1.2135,1.2564,1.3546,0.0,0.0,0.0,0.0,0.0,0.0,0.0,0.0,0.0,0.0,0.0,0.0,0.0,0.0,0.0,0.0,0.0,0.0,0.0,0.0,0.0,0.0,0.0,0.0,0.0,0.0,0.0,0.0,0.0,0.0,0.0,0.0,0.0,0.0,0.0,0.0,0.0,0.0,0.0,0.0,0.0,0.0,0.0,0.0,0.0,0.0,0.0,0.0,0.0,0.0,0.0,0.0,0.0,0.3067,0.3831,0.2993,0.1703,0.0131,0.1659,0.1679,0.0,0.0,0.0526,0.0,0.0,0.0,0.0,0.0,0.0,0.0,0.0,0.0,0.0,0.0,0.0,0.0,0.0,0.0,0.0,0.0,0.0,0.0,0.0,0.0,0.0,0.0,0.0,0.0,0.0,0.0,0.0,0.7101,0.7726,0.7651,0.0,0.0,0.0,0.0,0.0,0.0,0.0,0.0,0.0,0.0,0.3846,0.7434,0.6945,0.0,0.0,1.1802,1.2338,1.2169,1.2115,1.2236,1.2553,1.3128,0.0,0.0,0.0,0.0,0.0,0.0,0.0,0.0,0.0,0.0,0.0,0.0,0.0,0.0,0.0,0.0,0.0,0.0,0.0,0.0,0.0,0.0,0.0,0.0,0.0,0.0,0.0,0.0,0.0,0.0,0.0,0.0,0.0,0.0,0.0,0.0,0.0,0.0,0.0,0.0,0.0,0.0,0.0,0.0,0.0,0.0,0.0,0.0,0.0,0.0,0.0,0.0,0.3089,0.3823,0.2452,0.1147,0.0067,0.1162,0.1173,0.0,0.0,0.0339,0.0,0.0,0.0,0.0,0.0,0.0,0.0,0.0,0.0,0.0,0.0,0.0,0.0,0.0,0.0,0.0,0.0,0.0,0.0,0.0,0.0,0.0,0.0,0.0,0.0,0.0,0.0,0.0,0.8122,0.8911,0.8684,0.0,0.0,0.0,0.0,0.0,0.0,0.0,0.0,0.0,0.0,0.3677,0.8488,0.7496,0.7667,1.1663,1.2325,1.2338,1.2271,1.2223,1.251,1.3517,0.0,0.0,0.0,0.0,0.0,0.0,0.0,0.0,0.0,0.0,0.0,0.0,0.0,0.0,0.0,0.0,0.0,0.0,0.0,0.0,0.0,0.0,0.0,0.0,0.0,0.0,0.0,0.7969,0.0,0.0,0.7839,0.0,0.0,0.0,0.0,0.0,0.0,0.0,0.0,0.0,0.0,0.0,0.0,0.0,0.0,0.0,0.0,0.0,0.0,0.0,0.0,0.0,0.0,0.3384,0.4772,0.1732,0.0,0.0,0.0,0.0,0.0,0.0,0.0,0.0127,0.0,0.0,0.0,0.0,0.0,0.0,0.0,0.0,0.0,0.0,0.0,0.0,0.0,0.0,0.0,0.0,0.0,0.0,0.0,0.0,0.0,0.0,0.0,0.0,0.0,0.0,0.7771,0.9476,1.0587,0.0,0.0,0.0,0.0,0.0,0.0,0.0,0.0,0.0,0.5127,0.2211,0.2278,0.8274,0.737,0.7594,1.1952,1.2359,1.223,1.2651,1.2583,1.3731,0.0,0.0,0.0,0.0,0.0,0.0,0.0,0.0,0.0,0.0,0.0,0.0,0.0,0.0,0.0,0.0,0.0,0.0,0.0,0.0,0.0,0.0,0.0,0.0,0.0,0.0,0.0,0.5809,0.5401,0.0,0.0,0.0,0.0,0.0,0.0,0.0,0.0,0.0,0.0,0.0,0.1899,-0.1384,0.0,0.0,0.0,0.0,0.0,0.0,0.0,0.0,0.0,0.0,0.0,0.0,0.3291,0.3989,0.139,0.0,0.0,0.0,0.0,0.0,0.0,0.0625,0.1858,0.0,0.0,0.0,0.0,0.0,0.0,0.0,0.0,0.0,0.0,0.0,0.0,0.0,0.0,0.0,0.0,0.0,0.0,0.0,0.0,0.0,0.0,0.0,0.0,0.0,0.6668,0.0,0.0,0.0,0.0,0.0,0.0,0.0,0.0,0.0,0.0,0.0,0.5057,0.5307,0.221,0.1728,0.6602,0.6727,0.7334,0.0,0.0,0.0,0.0,0.0,0.0,0.0,0.0,0.0,0.0,0.0,0.0,0.0,0.0,2.1053,1.8935,1.9152,1.9863,2.0676,0.0,0.0,0.0,0.0,0.0,0.0,0.0,0.0,0.0,0.0,0.0,0.0,0.0,0.0,0.5638,0.4907,0.5178,0.0,0.0,0.0,0.0,0.0,0.0,0.0,0.0,0.1889,0.1478,0.0931,-0.232,-0.3176,0.0,-0.3229,-0.3252,0.0,0.0,0.0,0.0,0.0,0.0,0.0,0.0,0.3306,0.3971,0.1427,0.0,0.0,0.0,0.0,0.0,0.0,0.0925,0.2828,0.2604,0.3302,0.0,0.0,0.0,0.0,0.0,0.0,0.0,0.0,0.0,0.0,0.0,0.0,0.0,0.0,0.0,0.0,0.0,0.0,0.0,0.0,0.0,0.0,0.0,0.65,0.0,0.0,0.0,0.0,0.0,0.0,0.0,0.0,0.0,0.5142,0.4678,0.4419,0.455,0.2599,0.2416,0.582,0.0,0.0,0.0,0.0,0.0,0.0,0.0,1.3168,1.4326,1.4165,1.3944,1.398,1.5321,1.6788,1.8034,0.0,0.0,2.1073,2.1552,2.2304,2.2951,2.3931,2.4716,2.481,2.5064,2.5291,0.0,0.0,0.0,0.0,0.0,0.0,0.0,0.0,0.734,0.6497,0.0,0.5449,0.0,0.0,0.0,0.0,0.2801,0.4552,0.0,0.0,0.2043,0.1545,-0.0065,-0.1859,-0.2602,-0.2503,-0.4136,-0.4558,-0.3613,0.0489,0.0,0.0,0.0,0.0,0.0,0.0,0.3561,0.4446,0.153,0.0,0.0,0.0,0.0,0.0,0.0,0.0874,0.2828,0.3959,0.4965,0.5842,0.7172,0.0,0.0,0.0,0.0,0.0,0.0,0.0,0.0,0.0,0.0,0.0,0.0,0.0,0.0,0.0,0.0,0.0,0.0,0.0,0.0,0.4981,0.0,0.0,0.0,0.0,0.0,0.0,0.0,0.0,0.0,0.4396,0.2449,0.242,0.2678,0.3105,0.0,0.0,0.0,0.0,0.9522,0.9926,1.1496,1.2816,1.3553,1.3505,1.4192,1.6351,0.0,0.0,1.6341,1.6693,1.6877,1.652,1.8596,2.1597,2.5618,2.5622,2.5649,2.6174,2.5989,2.6295,2.6626,2.6624,2.7009,1.4027,0.0,0.0,0.0,0.0,1.0378,0.9302,0.8807,0.7522,0.575,0.3751,0.3531,0.0,0.0,0.0,0.0,0.0,0.0,0.1853,0.0424,0.0626,0.0457,-0.0069,-0.1861,-0.2003,-0.0826,-0.2544,-0.2596,-0.1148,0.0131,0.0876,0.1173,0.0,0.0,0.0,0.0,0.2277,0.267,0.0917,0.0,0.0,0.0,0.0,0.0,0.0,0.0947,0.2836,0.3212,0.4549,0.6927,0.7377,0.0,0.0,0.0,0.0,0.0,0.0,0.0,0.0,0.0,0.0,0.0,0.0,0.0,0.0,0.0,0.0,0.0,0.0,0.0,0.403,0.6047,0.7906,0.0,0.0,0.0,0.0,0.0,0.0,0.0,0.0,0.0,0.0707,0.2002,0.3012,0.0,0.0,0.1664,0.3766,0.4636,0.572,0.7522,0.9606,0.0,1.3641,1.3729,1.3851,1.4902,1.4996,1.4865,1.4612,1.4778,1.541,1.6858,1.7922,1.9465,2.2044,2.2565,2.2466,2.273,2.2752,2.332,2.4855,2.536,2.594,1.7509,1.6197,1.3801,1.3326,1.3922,1.1801,1.0736,1.0301,0.825,0.5981,0.3602,0.2945,0.1963,0.0806,0.1271,0.0,0.0,0.0,0.1095,0.0,0.0,0.0,0.0,-0.1127,-0.1059,-0.0071,-0.1123,-0.1056,0.0,0.0,0.0393,0.1113,0.0,0.0,0.3788,0.2421,0.1926,0.2289,0.0794,0.0,0.0,0.0,0.0,0.0,0.0,0.0888,0.2805,0.2879,0.448,0.7868,0.7804,0.8345,0.0,0.0,0.0,0.0,0.0,0.0,0.0,0.0,0.0,0.0,0.0,0.3625,0.1831,0.0,0.0,0.0,0.1755,0.3262,0.4206,0.6605,0.0,0.0,0.0,0.0,0.0,0.0,0.0,0.261,0.1042,0.0,0.0,0.1081,0.2158,0.2972,0.2094,0.177,0.2912,0.0,0.491,0.548,0.7487,0.987,1.236,1.2606,1.2848,1.4075,1.4224,1.4136,1.4048,1.4102,1.4682,1.581,1.6315,1.6817,1.82,1.8365,1.9004,2.0759,2.1221,2.1739,2.3126,2.4081,2.5141,2.0328,2.0134,1.6606,1.5139,1.4892,1.3085,1.2509,1.2683,0.9449,0.696,0.5036,0.3553,0.1821,0.006,0.1158,0.0,0.0065,0.1168,0.1068,0.0,0.0,0.0,0.0,0.0,0.0,0.0,0.0,0.0,0.0,0.0,0.1125,0.2845,0.2376,0.294,0.4401,0.278,0.2124,0.2615,0.0886,0.0,0.0,0.0,0.0,0.0,0.0151,0.0984,0.2568,0.3021,0.4729,0.8007,0.8164,0.8874,1.0639,0.0,0.0,0.0,0.0,0.0,0.0,0.0,0.0,0.0,0.0,0.0,0.0,0.0,0.0,0.0137,0.2051,0.0,0.3849,0.6884,0.0,0.0,0.0,0.8601,0.7993,0.5199,0.308,0.2405,0.0,0.0,0.0,0.0,0.0672,0.2573,0.3035,0.3063,0.2865,0.4539,0.5572,0.3874,0.5286,0.7596,1.0421,1.114,1.2031,1.3932,1.4299,1.4285,1.4278,1.4285,1.4299,1.4489,1.4312,1.4415,1.4421,1.4701,1.5639,1.9737,2.0491,2.0568,2.0955,2.2448,2.408,2.1285,2.2355,2.1712,1.9828,1.7072,1.4145,1.2999,1.2994,1.0923,0.827,0.5329,0.4925,0.2967,0.0,0.0335,0.027,0.0,0.0275,0.0279,0.0,0.0,0.0,0.0,0.0,0.0,0.0,0.0,0.0,0.0,0.1525,0.174,0.0944,0.3599,0.448,0.3486,0.3024,0.2099,0.0729,0.0222,0.0,0.0,0.0,0.0,0.0,0.151,0.1815,0.0832,0.3623,0.4993,0.4416,0.7104,0.8948,0.9532,0.9998,0.0,0.0,0.0,0.0,0.0,0.0,0.0,0.0,0.0,0.0794,0.0444,0.0,-0.0984,0.0,0.1983,0.4577,0.7526,0.8577,0.0,0.0,0.9858,0.8147,0.7096,0.4545,0.2288,0.0764,0.0256,0.0,0.0,0.0,0.0172,0.0687,0.0,0.0771,0.0775,0.122,0.2117,0.3291,0.401,0.5884,0.9726,1.2325,1.3496,1.421,1.4299,1.4299,1.4299,1.4299,1.4333,1.4434,1.4462,1.4502,1.4611,1.4638,1.4896,1.5957,1.6129,1.67,1.8509,1.9428,2.086,2.0985,2.1128,2.1366,1.9863,1.7314,1.6807,1.6252,1.5482,1.3038,0.9998,0.6696,0.5043,0.2718,0.0,0.0,0.0,0.0,0.0,0.0,0.0,0.0,0.0,0.0,0.0,0.0517,0.1334,0.0445,0.0519,0.1334,0.1564,0.1499,0.1435,0.3635,0.4166,0.3156,0.3093,0.2528,0.1323,0.0449,0.0,0.0,0.0,0.0382,0.1201,0.2436,0.2521,0.1286,0.4345,0.5495,0.4313,0.7164,0.9376,1.0277,0.9887,0.9724,0.0,0.0,0.0,0.0,0.0,0.0,0.0,0.0,0.0,0.0,0.0,-0.0556,0.1283,0.3589,0.6177,0.9414,1.0609,1.1758,1.2842,1.0765,0.8603,0.687,0.453,0.2265,0.0,0.0,0.0,0.0,0.0,0.0,0.0,0.0,0.0,0.0,0.0,0.0535,0.179,0.1971,0.3224,0.706,1.0451,1.2686,1.2774,1.3584,1.4319,1.438,1.4394,1.4441,1.4577,1.4618,1.4638,1.4719,1.474,1.4753,1.4814,1.4774,1.5181,1.6348,1.7525,1.9239,2.0349,1.9066,1.9066,1.8249,1.7181,1.968,1.9658,1.7762,1.4606,1.1295,0.7905,0.421,0.1559,0.0072,0.0287,0.0216,0.0073,0.0511,0.0583,0.0365,0.0365,0.0368,0.0372,0.0,0.0974,0.2568,0.0832,0.0908,0.2647,0.1147,0.1154,0.2696,0.3186,0.3498,0.3469,0.3513,0.3247,0.2535,0.0837,0.0,0.0,0.0,0.0771,0.2242,0.2847,0.2869,0.2433,0.4642,0.556,0.5032,0.6951,0.892,1.058,0.9273,0.8258,0.0,0.6127,0.0,0.0,0.0,0.0,0.0,0.0,0.0,0.0,-0.1036,0.1045,0.3552,0.5637,0.7966,1.0479,1.2599,1.3599,1.3154,1.1165,0.8942,0.6571,0.4355,0.2222,0.0257,0.0,0.0,0.0,0.0,0.0,0.0,0.0,0.0,0.0,0.0,0.0,0.0,0.0269,0.1971,0.4474,0.804,1.0984,1.1344,1.2976,1.4367,1.4482,1.4523,1.459,1.4733,1.4767,1.478,1.4787,1.4787,1.4821,1.4964,1.4991,1.5042,1.5124,1.6392,1.7944,2.1318,2.1097,2.1032,2.0744,2.026,1.9555,1.7531,1.4544,1.2536,0.9585,0.5891,0.2229,0.0363,0.0145,0.1669,0.1526,0.0219,0.3274,0.3853,0.2328,0.2353,0.2367,0.2226,0.075,0.0227,0.053,0.0227,0.0227,0.0606,0.1819,0.1754,0.0693,0.385,0.5569,0.5689,0.0,0.0,0.0,0.0229,0.0,0.0,0.0,0.0154,0.0536,0.2175,0.0,0.0702,0.2578,0.2914,0.1278,0.309,0.0,0.0,0.0,0.0,0.0,0.0,0.0,0.0,0.0,0.0,0.0,-0.2142,-0.1474,-0.0665,-0.0235,0.1686,0.5796,0.6656,0.8577,1.2686,1.3388,1.2932,1.1196,0.8901,0.6495,0.4398,0.2061,0.0429,0.0,0.0,0.0,0.0,0.0,0.0,0.0,0.0,0.0,0.0,0.0,0.0,0.0,0.1434,0.358,0.6079,0.8757,1.1177,1.3053,1.3948,1.4475,1.4523,1.4624,1.4746,1.4889,1.493,1.4964,1.5059,1.5004,1.497,1.5113,1.5147,1.5133,1.5106,1.557,1.6503,2.0753,1.9247,1.9247,1.8147,0.0,1.5597,1.4258,1.2695,1.2611,0.9982,0.5538,0.2683,0.0948,0.0073,0.1027,0.0957,0.0074,0.2071,0.2372,0.1485,0.1494,0.1503,0.1436,0.0457,0.0536,0.1462,0.0462,0.0541,0.1476,0.1477,0.0939,0.0079,0.3159,0.4747,0.4857,0.6001,0.4947,0.174,0.0551,0.0,0.0,0.0,0.0394,0.1323,0.2449,0.0,0.0,0.0,0.0,0.0,0.0,0.0,0.0,0.0,0.0,0.4108,0.3007,0.1534,-0.0457,-0.1154,-0.204,-0.3152,-0.1947,-0.0806,0.0,0.1074,0.3199,0.6569,0.8001,1.0224,1.3508,1.3953,1.2996,1.0717,0.833,0.5975,0.3725,0.1469,0.0,0.0,0.0,0.0,0.0,0.0,0.0,0.0,0.0,0.0,0.0,0.0,0.0,0.0,0.0897,0.2693,0.5131,0.7473,0.9922,1.2141,1.3752,1.4561,1.4726,1.4801,1.4882,1.4964,1.5025,1.5086,1.5072,1.5072,1.512,1.5255,1.5296,1.5323,1.5384,1.5472,1.5808,1.9701,1.6896,1.655,1.4569,1.1619,1.1619,1.1619,1.1606,0.0,0.0,0.0,0.3272,0.1531,0.0073,0.037,0.0298,0.0075,0.0678,0.0832,0.053,0.0531,0.0535,0.054,0.0155,0.0856,0.2434,0.0787,0.0871,0.2399,0.0801,0.0,0.0,0.2191,0.3734,0.455,0.6347,0.6435,0.4564,0.1949,0.0567,0.0567,0.0243,0.0723,0.2202,0.2408,0.2482,0.2257,0.4121,0.4291,0.2419,0.3823,0.4782,0.4752,0.3128,0.2352,0.2455,0.0912,-0.0754,-0.2532,-0.2703,-0.2724,-0.2772,-0.1042,0.0,0.0,0.1805,0.4076,0.6679,0.8935,1.1193,1.3847,1.4224,1.3079,1.0204,0.8249,0.594,0.3212,0.1216,0.0,0.0,0.0,0.0,0.0,0.0,0.0,0.0,0.0,0.0,0.0,0.0,0.0,0.0,0.0722,0.181,0.409,0.6737,0.8944,1.1748,1.3638,1.4743,1.4964,1.5004,1.5018,1.5072,1.5133,1.512,1.5045,1.5099,1.5235,1.5377,1.5459,1.5533,1.5676,1.5764,1.5784,1.8798,1.6997,1.5441,1.3492,1.1619,1.1619,1.1619,1.1325,0.8323,0.5578,0.3199,0.1239,0.0294,0.0074,0.178,0.1568,0.0227,0.3468,0.4073,0.2495,0.2521,0.2459,0.2388,0.0779,0.0158,0.0398,0.0,0.016,0.0,0.0,0.0,0.0,0.2193,0.5291,0.887,0.9453,0.9496,0.9077,0.4943,0.2877,0.2877,0.1041,0.008,0.0319,0.0,0.0406,0.0404,0.0,0.074,0.041,0.0662,0.0832,0.0834,0.0505,0.0424,0.0425,0.0,-0.0173,0.0,0.0,-0.0433,-0.0434,-0.0174,0.0,0.0,0.026,0.2351,0.6576,0.7795,0.9623,1.3552,1.4197,1.2367,0.8364,0.7237,0.5288,0.0,0.0,0.0,0.0,0.0,0.0,0.0,0.0,0.0,0.0,0.0,0.0,0.0,0.0,0.0,0.0,0.1923,0.4134,0.625,0.9007,1.1227,1.3814,1.4494,1.4984,1.5133,1.514,1.5167,1.5303,1.5235,1.5181,1.5153,1.5167,1.5289,1.5438,1.5642,1.5832,1.5988,1.6178,1.6239,1.7296,1.5628,1.4787,1.3309,1.1619,1.1619,1.101,0.9899,0.7043,0.5357,0.4331,0.2426,0.0964,0.0075,0.0907,0.0836,0.0076,0.1845,0.2158,0.1389,0.1319,0.1327,0.1257,0.0395,0.0,0.0,0.0,0.0,0.0,0.0,0.0577,0.1985,0.5281,0.8679,1.1629,1.186,1.189,1.1801,0.742,0.4588,0.3362,0.238,0.1314,0.0,0.0,0.0,0.0,0.0,-0.0585,-0.1919,-0.1938,-0.1955,-0.1967,-0.1977,-0.138,0.0,0.0,0.0,0.0,0.0,0.0,0.0,0.0,0.0,0.0,0.2371,0.474,0.7,0.9441,1.1971,1.4033,1.3129,1.0963,0.7456,0.5919,0.3705,0.0,0.0,0.0,0.0,0.0,0.0,0.0,0.0,0.0,0.0,0.0,0.0,0.0,0.0,0.0,0.0,0.212,0.4623,0.7144,0.9653,1.2124,1.4692,1.5086,1.5153,1.5262,1.5248,1.5187,1.5174,1.5167,1.5221,1.5282,1.5377,1.5547,1.5845,1.5988,1.6151,1.6293,1.6381,1.6293,1.5769,1.4432,1.3943,1.296,1.1626,1.1653,1.085,0.9386,0.7938,0.67,0.5596,0.3354,0.1426,0.0,0.0,0.0,0.0,0.0,0.0,0.0,0.0,0.0,0.0,0.0,0.0,0.0,0.0,0.0,0.0,0.0,0.1417,0.4193,0.8144,1.126,1.3451,1.3485,1.3498,1.3248,0.9529,0.6398,0.4111,0.3191,0.1764,0.0,0.0,0.0,0.0,-0.0506,-0.1694,-0.347,-0.4099,-0.4134,-0.3639,-0.3641,-0.2518,0.0,0.0,0.0,0.0,0.0,0.0,0.0,0.0,0.0,0.0,0.3812,0.6539,0.7403,1.0827,1.3528,1.3863,1.2177,0.9758,0.7331,0.5008,0.2684,0.0,0.0,0.0,0.0,0.0,0.0,0.0,0.0,0.0,0.0,0.0,0.0,0.0,0.0373,0.0844,0.1404,0.3075,0.5693,0.8079,1.0732,1.3075,1.52,1.5309,1.5316,1.5384,1.5316,1.5221,1.5174,1.5235,1.5337,1.5459,1.5655,1.59,1.6185,1.6293,1.6381,1.6463,1.6435,1.632,1.4574,1.4148,1.2602,1.1756,1.164,1.1755,1.1677,1.149,1.1453,0.9387,0.5879,0.1973,0.0305,0.0,0.0,0.0,0.0,0.0,0.0,0.0,0.0,0.0,0.0,0.0,0.0,0.0,0.0,0.0,0.0,0.0,0.2267,0.6208,0.9052,1.1306,1.3277,1.3559,1.3711,1.3711,1.1293,0.8794,0.6292,0.2436,0.0253,0.0,0.0,0.0,0.0,-0.2064,-0.3371,-0.3718,-0.5668,-0.5766,-0.3906,-0.3642,-0.2527,0.0,0.0,0.0,0.0,0.0,0.0,0.0,0.0,0.0,0.0,0.2396,0.4862,0.6958,0.9541,1.2157,1.3876,1.2145,0.9635,0.7064,0.474,0.2687,0.0,0.0,0.0,0.0,0.0,0.0,0.0,0.0,0.0,0.0,0.0,0.0,0.0,0.1793,0.324,0.3921,0.5718,0.8178,1.0621,1.334,1.4704,1.5323,1.5404,1.5459,1.5513,1.5418,1.5248,1.5472,1.5554,1.5588,1.5703,1.5934,1.6218,1.63,1.6408,1.6497,1.6517,1.649,1.6415,1.2745,1.2674,1.19,1.1667,1.1755,1.1904,1.202,1.2033,1.0869,0.9432,0.7598,0.3659,0.1171,0.0,0.0,0.0,0.0,0.0,0.0,0.0,0.0,0.0,0.0,0.0,0.0,0.0,0.135,0.2028,0.2629,0.4857,0.6492,0.7003,0.9175,1.0742,1.1516,1.027,1.029,1.1584,0.8129,0.5687,0.4618,0.2893,0.1359,0.0,0.0,-0.0766,-0.2052,-0.3122,-0.4896,-0.7429,-0.7413,-0.6665,-0.57,-0.4343,-0.2487,0.0,0.0,0.0,0.0,0.0,0.0,0.0,0.0,0.0,0.0,0.223,0.401,0.5273,0.8514,1.1209,1.1799,1.004,0.7717,0.5278,0.2866,0.0,0.0,0.0,0.0,0.0,0.0,0.0,0.0,0.0,0.0,0.0,0.0,0.0,0.0,0.2195,0.4426,0.6199,0.8417,1.0248,1.1833,1.3885,1.5252,1.5547,1.5547,1.5601,1.5703,1.5689,1.5635,1.575,1.5771,1.5818,1.5893,1.609,1.6327,1.6483,1.6449,1.6517,1.6517,1.6449,1.6374,1.1619,1.1626,1.166,1.1762,1.1904,1.206,1.2189,1.2146,1.0738,0.9893,0.9115,0.6201,0.3432,0.1037,0.0322,0.0,0.0,0.0,0.0,0.0,0.0,0.0,0.0,0.0,0.0344,0.1203,0.2668,0.3874,0.4905,0.7724,0.8623,0.7393,0.8561,0.9375,0.9205,0.756,0.7662,0.8891,0.5449,0.3429,0.3346,0.2701,0.1641,0.0,0.0,-0.1121,-0.353,-0.4191,-0.6089,-0.9485,-0.8643,-0.7452,-0.6166,-0.4487,-0.2237,0.0541,0.0357,0.0355,0.0887,0.0352,0.0,0.0,0.0,0.0,0.0,0.1614,0.2866,0.3848,0.679,0.8753,0.9464,0.7591,0.5454,0.3669,0.1434,0.0,0.0,0.0,0.0,0.0,0.0,0.0,0.0,0.0,0.0,0.0,0.0,0.0,0.0,0.2793,0.5825,0.7733,1.0583,1.2742,1.304,1.4414,1.5606,1.5757,1.5771,1.5825,1.5927,1.5947,1.5913,1.5913,1.594,1.5974,1.6029,1.6191,1.694,1.7321,1.7458,1.7531,1.7761,1.6991,1.636,1.1619,1.164,1.1762,1.1918,1.2067,1.2223,1.2291,1.2338,1.2427,1.1439,0.9871,0.9257,0.7077,0.3126,0.0991,0.0,0.0,0.0,0.0,0.0,0.0,0.0,0.0,0.0,0.1129,0.304,0.3762,0.5095,0.7118,0.7364,0.7102,0.6868,0.6981,0.7054,0.6967,0.674,0.7069,0.6857,0.4631,0.3459,0.3207,0.1265,0.0178,0.0,0.0,-0.1322,-0.3696,-0.5805,-0.7105,-0.7335,-0.9071,-0.8262,-0.435,-0.3659,-0.1414,0.23,0.1159,0.0986,0.2505,0.1163,0.0,0.0,0.0,0.0,0.0,0.0,0.1345,0.3313,0.3759,0.4919,0.6522,0.5365,0.3938,0.3313,0.1345,0.0,0.0,0.0,0.0,0.0,0.0,0.0,0.0,0.0,0.0,0.0,0.0,0.0,0.0,0.4473,0.7251,0.8981,1.2077,1.5649,1.5649,1.5683,1.5835,1.5988,1.6042,1.6103,1.6157,1.6191,1.6123,1.6096,1.6164,1.6185,1.6164,1.6813,1.7825,1.8567,1.93,1.9443,1.8098,1.712,1.67,1.1674,1.1775,1.2026,1.2162,1.2237,1.2467,1.2576,1.2589,1.2786,1.2476,1.1382,0.8938,0.6801,0.5171,0.1623,0.0,0.0,0.0,0.0,0.0,0.0,0.0,0.0,0.0,0.1329,0.3631,0.5236,0.7132,0.9326,0.9541,0.7858,0.5168,0.481,0.483,0.458,0.3296,0.3302,0.4422,0.2561,0.1282,0.1295,0.0463,-0.0734,-0.2353,-0.2433,-0.4314,-0.8339,-0.7761,-0.8001,-0.9429,-0.753,-0.5444,-0.3663,-0.2086,-0.0628,0.0982,0.0448,0.0359,0.1076,0.0538,0.0,0.0,0.0,0.0,0.0,0.0,0.0359,0.0,0.0,0.1792,0.0,0.3045,0.2955,0.0,0.0,0.0,0.0,0.0,0.0,0.0,0.1288,0.1859,0.0843,0.1421,0.1721,0.0,0.0,0.0,0.2653,0.5713,0.8409,1.0672,1.3661,1.6144,1.6144,1.6144,1.6178,1.6225,1.6279,1.6347,1.6402,1.6422,1.6374,1.6286,1.6347,1.6602,1.6734,1.8948,1.9775,1.99,2.0513,2.004,1.7756,1.7353,1.7543,1.1843,1.1999,1.2203,1.2345,1.2454,1.2644,1.2786,1.2881,1.3037,1.3132,1.2471,0.9314,0.7377,0.6145,0.2706,0.0615,0.0,0.0,0.0,0.0,0.0,0.0,0.0,0.081,0.2522,0.5041,0.7328,0.9282,1.0441,0.9277,0.6826,0.38,0.2866,0.2409,0.2142,0.0742,0.0928,0.1862,0.0833,0.0,0.0,-0.0844,-0.2436,-0.4564,-0.4997,-0.6886,-1.0942,-0.8712,-0.8102,-0.8919,-0.5842,-0.328,-0.2376,-0.091,0.0362,0.0988,0.0449,0.0359,0.0897,0.0449,0.0,0.0,0.0,0.0,0.0,0.0,0.0,0.0,0.0,0.0,0.0,0.1529,0.1709,0.0,0.0,0.0,0.0,0.0,0.0,0.0,0.261,0.273,0.1801,0.2873,0.2317,0.0,0.0,0.0,0.3671,0.6387,0.9113,1.1793,1.444,1.607,1.6422,1.6442,1.6442,1.6483,1.6497,1.6564,1.6592,1.6612,1.6571,1.6497,1.6625,1.686,1.8274,2.0669,2.147,2.1533,2.1695,2.1524,1.9561,1.784,1.8449,1.2149,1.2277,1.2305,1.2501,1.2725,1.28,1.2929,1.318,1.3336,1.3388,1.2733,1.0833,0.8326,0.6485,0.3698,0.1862,0.0,0.0,0.0,0.0,0.0,0.0,0.0,0.2354,0.4635,0.7101,0.9811,1.0923,1.0273,0.6579,0.4051,0.3103,0.1229,0.0,0.0,0.0,0.0,0.0,0.0,0.0,-0.0285,-0.2358,-0.4798,-0.7288,-0.7477,-0.8532,-1.1059,-0.866,-0.7194,-0.7,-0.4841,-0.2446,-0.0631,0.018,0.1167,0.2688,0.1434,0.1524,0.3045,0.1703,0.0,0.0,0.0,0.0,0.0,0.0,0.0,0.0,0.0,0.0,0.0,0.0,0.0,0.0,0.0,0.0,0.0,0.0,0.0928,0.3087,0.4155,0.4007,0.3846,0.4542,0.3984,0.0,0.0,0.209,0.4888,0.7452,0.9548,1.2135,1.4776,1.6339,1.6653,1.6637,1.6741,1.6741,1.6727,1.6748,1.672,1.672,1.6619,1.664,1.7647,1.8082,2.0719,2.2936,2.4196,2.4424,2.4026,2.2397,1.98,1.8183,1.9618,1.2393,1.2474,1.2773,1.2949,1.3057,1.3254,1.341,1.3498,1.3641,1.2781,1.1116,0.8965,0.666,0.4318,0.2043,0.0,0.0,0.0,0.0,0.0,0.0,0.0,0.0,0.2635,0.5127,0.76,1.0138,0.9445,0.6421,0.4524,0.3017,0.1232,0.0,0.0,0.0,0.0,0.0,0.0,0.0,0.0,-0.2377,-0.3414,-0.5871,-0.9483,-0.8542,-0.877,-1.0898,-0.726,-0.5032,-0.4932,-0.2479,-0.0725,0.009,0.1614,0.2776,0.3582,0.4563,0.5097,0.5722,0.5276,0.4027,0.2866,0.2509,0.1614,0.0,0.0,0.0,0.0,0.0,0.0,0.0,0.0,0.0,0.0,0.0,0.0,0.0,0.1486,0.2811,0.4064,0.6957,0.8156,0.7433,0.7679,0.776,0.5629,0.518,0.6217,0.8884,0.9949,1.2156,1.4788,1.6154,1.67,1.6788,1.6876,1.6917,1.6924,1.6924,1.6822,1.6802,1.6836,1.672,1.7139,1.8144,2.0138,2.2891,2.4967,2.6263,2.5901,2.4536,2.2113,1.8901,1.9062,2.0907,1.1427,1.158,1.2721,1.3241,1.3356,1.3559,1.3695,1.3619,1.2927,1.1767,1.0073,0.7054,0.4869,0.3196,0.0984,0.0,0.0,0.0,0.0,0.0,0.0,0.0,0.0,0.257,0.5094,0.7132,0.8232,0.6932,0.3896,0.2837,0.161,0.0,0.0,0.0,0.0,0.0,-0.0285,-0.1237,0.0,-0.2648,-0.4839,-0.6174,-0.8164,-1.0531,-0.892,-0.85,-0.9542,-0.5132,-0.2884,-0.3146,-0.137,0.0271,0.1346,0.2776,0.3938,0.5008,0.6168,0.7057,0.7146,0.6879,0.6611,0.5097,0.4116,0.3045,0.0,0.0,0.0,0.0,0.0,0.0,0.0,0.0,0.1013,0.0,0.0,0.0,0.1309,0.2826,0.493,0.6684,0.9619,1.0454,1.0338,1.0304,1.0739,0.8795,0.8152,0.912,1.1435,1.2216,1.4133,1.5673,1.6527,1.6842,1.6917,1.6998,1.708,1.71,1.7107,1.6937,1.6815,1.6937,1.6924,1.7515,1.8483,2.1029,2.3818,2.6577,2.8295,2.668,2.526,2.2681,2.0536,2.1344,2.2916,0.9622,0.9876,1.2049,1.3065,1.3297,1.3519,1.3673,1.3433,1.1608,1.0429,0.9087,0.5622,0.3576,0.2864,0.0807,0.0,0.0,0.0,0.0,0.0,0.0,0.0,0.0,0.2882,0.4888,0.6441,0.5223,0.3993,0.3044,0.1333,0.0,0.0,0.0,0.0,0.0,0.0,-0.1523,-0.3138,-0.3801,-0.5221,-0.769,-0.9775,-1.1102,-1.1291,-0.9003,-0.7544,-0.6724,-0.2964,-0.1286,-0.2911,-0.0812,0.1436,0.3134,0.3759,0.5454,0.7235,0.7413,0.7951,0.7773,0.8308,0.7859,0.7239,0.5365,0.3669,0.3134,0.0,0.0,0.0,0.0,0.0,0.0,0.2129,0.2337,0.0752,0.0,0.104,0.3329,0.4029,0.6353,1.0025,1.1752,1.2055,1.2046,1.2289,1.132,1.0117,0.9568,1.1056,1.2369,1.3802,1.4411,1.5547,1.6792,1.6978,1.7053,1.7148,1.7222,1.7236,1.7229,1.7073,1.687,1.6951,1.7039,1.7747,1.9218,2.1989,2.4859,2.7604,2.9119,2.8399,2.6465,2.3952,2.3263,2.3717,2.4587,0.8825,0.7678,1.0088,1.1271,1.16,1.3278,1.3092,1.1649,1.0937,0.8546,0.5809,0.4204,0.2507,0.0,0.0,0.0,0.0,0.0,0.0,0.0,0.0,0.0,0.251,0.3388,0.4075,0.4561,0.3898,0.2854,0.1048,0.0,0.0,0.0,0.0,0.0,0.0,-0.1809,-0.3044,-0.3993,-0.5795,-0.7876,-1.0059,-1.1008,-1.1385,-1.1192,-0.8954,-0.6733,-0.4814,-0.1733,-0.0181,-0.0721,0.1347,0.2866,0.4027,0.679,0.8842,0.9735,1.1255,1.2325,1.2237,1.2237,1.1522,0.9735,0.7324,0.5454,0.3669,0.1434,0.0,0.0,0.0,0.0917,0.241,0.3362,0.3289,0.2748,0.1336,0.1247,0.375,0.5713,0.8174,1.1197,1.3538,1.4422,1.4601,1.4638,1.458,1.3964,1.3842,1.4036,1.4777,1.5252,1.5742,1.6191,1.7026,1.7107,1.7195,1.729,1.7358,1.7372,1.7331,1.7222,1.7012,1.6897,1.6944,1.7231,1.9799,2.2473,2.5666,2.8742,2.9112,2.9267,2.7007,2.4503,2.4661,2.5059,2.6273,0.6363,0.5526,0.7917,0.8987,0.9198,1.0687,1.0446,0.9197,0.804,0.6344,0.3759,0.2419,0.1345,0.0,0.0,0.0,0.0,0.0,0.0,0.0,0.0,0.0,0.1877,0.2179,0.219,0.219,0.0,0.1429,0.0,0.0,0.0,0.0,0.0,0.0,0.0,-0.2949,-0.5036,-0.6835,-0.8542,-1.0437,-1.281,-1.2999,-1.2295,-1.1324,-0.8902,-0.6047,-0.2664,-0.0724,0.0359,0.1434,0.2955,0.4472,0.6611,0.9019,1.1161,1.2059,1.3578,1.421,1.4299,1.4299,1.3673,1.1876,0.9286,0.672,0.4767,0.2165,0.0182,0.0,0.0,0.2871,0.4575,0.451,0.4448,0.4872,0.3186,0.2812,0.5307,0.8091,1.0597,1.2993,1.4858,1.5981,1.6029,1.6212,1.6354,1.6266,1.6052,1.6273,1.6601,1.6829,1.687,1.6992,1.7121,1.7202,1.7311,1.7419,1.7433,1.7453,1.7331,1.7249,1.7114,1.6917,1.6924,1.7685,2.0271,2.2949,2.582,2.828,2.9182,2.8652,2.6649,2.5645,2.5429,2.5541,2.6908,0.3316,0.3381,0.5626,0.6657,0.6777,0.7057,0.7235,0.6344,0.4919,0.3669,0.2687,0.0897,0.0,0.0,0.0,0.0,0.0,0.0,0.0,0.0,0.0,0.0,0.0,0.0,0.0,0.0,0.0,0.0,0.0,0.0,0.0,0.0,0.0,0.0,-0.3424,-0.4466,-0.7119,-1.0153,-1.1385,-1.271,-1.4234,-1.4134,-1.2753,-1.0399,-0.7353,-0.4338,-0.1185,0.0451,0.1524,0.3848,0.3938,0.6255,0.9824,1.0717,1.2059,1.3578,1.4122,1.4299,1.4299,1.4299,1.4312,1.3337,1.0026,0.7549,0.6799,0.4005,0.2379,0.4065,0.4192,0.5426,0.7149,0.5871,0.554,0.6557,0.5357,0.5751,0.7679,1.0406,1.3094,1.5486,1.6008,1.6164,1.6259,1.6354,1.6449,1.6612,1.6714,1.6815,1.689,1.691,1.6958,1.7032,1.7161,1.7283,1.7412,1.7548,1.7528,1.75,1.7311,1.7195,1.7127,1.7005,1.6978,1.7908,1.9967,2.2338,2.5009,2.6955,2.8596,2.88,2.7363,2.6137,2.5235,2.5366,2.6317,0.2382,0.0955,0.3294,0.4299,0.4642,0.6258,0.599,0.4293,0.3848,0.2419,0.0,0.0,0.0,0.0,0.0,0.0,0.0,0.0,0.0,0.0,0.0,0.0,0.0,0.0,0.0,0.0,0.0,0.0,0.0,0.0,0.0,0.0,-0.1809,-0.3234,-0.4183,-0.7595,-1.0059,-1.1673,-1.3281,-1.4328,-1.4228,-1.3175,-1.1126,-0.84,-0.4244,-0.155,0.0,0.1884,0.3938,0.5722,0.6531,0.7881,1.0545,1.2509,1.3591,1.4047,1.4312,1.4306,1.4306,1.4333,1.4353,1.409,1.1754,1.0164,1.0172,0.7527,0.6184,0.6793,0.6824,0.7722,0.9431,0.8141,0.7044,0.7006,0.7165,0.7107,0.8194,1.0438,1.3393,1.5254,1.6157,1.6273,1.6327,1.653,1.6646,1.6748,1.6836,1.6931,1.6958,1.6978,1.7032,1.708,1.7229,1.7351,1.7426,1.7507,1.7453,1.7419,1.7263,1.7141,1.7073,1.7039,1.6992,1.7908,1.935,2.182,2.4392,2.6751,2.8698,2.8291,2.7884,2.6342,2.5235,2.5336,2.6317,0.2052,0.0174,0.1397,0.1942,0.2147,0.3222,0.3045,0.2061,0.1883,0.1256,0.0,0.0,0.0,0.0,0.0,0.0,0.0,0.0,0.0,0.0,0.0,0.0,0.0,0.0,0.0,0.0,0.0,0.0,0.0,0.0,0.0,0.0,-0.257,-0.4373,-0.5795,-0.9492,-1.1768,-1.3187,-1.4328,-1.4711,-1.3281,-1.2179,-0.9351,-0.6002,-0.2097,0.0452,0.1897,0.2887,0.5599,0.8054,0.9058,1.0003,1.1988,1.3584,1.4244,1.4387,1.4401,1.4448,1.4482,1.4509,1.4543,1.4514,1.2419,1.1485,1.063,0.8994,0.8482,0.8731,0.8485,0.8247,0.9419,0.7359,0.6137,0.6188,0.7212,0.7953,0.8713,1.1549,1.4395,1.5864,1.6252,1.6388,1.6524,1.6673,1.6775,1.6849,1.6883,1.6965,1.6965,1.6992,1.7066,1.7148,1.7304,1.7412,1.7453,1.7439,1.7324,1.7263,1.7154,1.7073,1.7019,1.6998,1.6978,1.7908,1.8738,2.1207,2.3775,2.624,2.7986,2.8291,2.7669,2.6137,2.5225,2.5378,2.6834,0.1721,0.0,0.0,0.0,0.0,0.0,0.0,0.0,0.0,0.0,0.0,0.0,0.0,0.0,0.0,0.0,0.0,0.0,0.0,0.0,0.0,0.0,0.0,0.0,0.0,0.0,0.0,0.0,0.0,0.0,0.0,-0.0953,-0.3234,-0.5889,-0.8258,-1.072,-1.2999,-1.4704,-1.4993,-1.4046,-1.1841,-1.0904,-0.8069,-0.3653,-0.0634,0.1627,0.3357,0.4912,0.7029,1.0856,1.1506,1.268,1.3809,1.4373,1.4407,1.4543,1.4543,1.459,1.4658,1.4706,1.4628,1.4669,1.3108,1.2057,1.1491,1.0688,1.0263,0.9767,0.9344,0.767,0.7446,0.5658,0.4634,0.5072,0.6873,0.8128,0.9637,1.3273,1.5636,1.6212,1.6415,1.6537,1.6646,1.6775,1.6863,1.6937,1.6965,1.6998,1.7005,1.7046,1.7134,1.7229,1.7385,1.7351,1.7372,1.7358,1.7243,1.7154,1.706,1.7026,1.6985,1.6978,1.6978,1.6978,1.8222,2.0488,2.2235,2.3775,2.5522,2.7261,2.7159,2.5317,2.5009,2.5317,2.7432,0.0346,0.0,0.0,0.0,0.0,0.0,0.0,0.0,0.0,0.0,0.0,0.0,0.0,0.0,0.0,0.0,0.0,0.0,0.0,0.0,0.0,0.0,0.0,0.0,0.0,0.0,0.0,0.0,0.0,0.0,0.0,-0.3234,-0.57,-0.8258,-1.0531,-1.3093,-1.4422,-1.4993,-1.5087,-1.3852,-1.1251,-0.8618,-0.5644,-0.1003,0.1633,0.327,0.4826,0.778,1.0388,1.1323,1.3078,1.4069,1.4497,1.4672,1.4685,1.4692,1.4699,1.4733,1.478,1.4767,1.4821,1.4797,1.4369,1.4242,1.4152,1.3821,1.2456,1.0453,0.9,0.7417,0.7682,0.485,0.5193,0.6556,0.7708,0.8956,1.1292,1.4092,1.6347,1.6517,1.6605,1.668,1.6775,1.6849,1.691,1.6958,1.6971,1.7046,1.7107,1.7168,1.7256,1.7358,1.7473,1.7365,1.7256,1.7229,1.7161,1.708,1.7012,1.7012,1.6978,1.6978,1.6978,1.6978,1.7391,1.8947,2.0488,2.1924,2.3165,2.4804,2.4701,2.4495,2.5317,2.625,2.8359,0.1044,0.0,0.0,0.0,0.0,0.0,0.0,0.0,0.0,0.0,0.0,0.0,0.0,0.0,0.0,0.0,0.0,0.0,0.0,0.0,0.0,0.0,0.0,0.0,0.0,0.0,0.0,0.0,0.0,0.0,-0.2665,-0.4278,-0.7501,-1.0248,-1.1668,-1.3758,-1.4986,-1.5181,-1.4986,-1.3239,-0.9407,-0.5951,-0.1744,0.1186,0.3279,0.5024,0.7929,0.9526,1.1911,1.3178,1.4315,1.4878,1.4964,1.495,1.493,1.4875,1.4862,1.4896,1.495,1.497,1.5018,1.5065,1.5079,1.5106,1.5187,1.4777,1.3346,1.0073,0.7144,0.5035,0.3669,0.0,0.2733,0.4076,0.6349,0.8756,1.0884,1.4237,1.5834,1.6597,1.672,1.6775,1.6863,1.6924,1.6965,1.6978,1.6985,1.708,1.7202,1.7256,1.7324,1.7351,1.7412,1.7311,1.7182,1.7127,1.7107,1.7026,1.6978,1.6978,1.6978,1.6978,1.6978,1.6978,1.7601,1.8013,1.9767,2.1518,2.2027,2.2648,2.3672,2.4804,2.6035,2.7531,2.9405,0.1578,0.0,0.0,0.0,0.0,0.0,0.0,0.0,0.0,0.0,0.0,0.0,0.0,0.0,0.0,0.0,0.0,0.0,0.0,0.0,0.0,0.0,0.0,0.0,0.0,0.0,0.0,0.0,0.0,-0.2665,-0.4088,-0.6458,-0.9964,-1.1862,-1.2716,-1.4328,-1.508,-1.5046,-1.4377,-1.1855,-0.6981,-0.2487,0.1188,0.3651,0.4294,0.6819,1.0338,1.1982,1.3261,1.4458,1.506,1.5167,1.5174,1.5181,1.5126,1.5038,1.5018,1.5079,1.5133,1.516,1.514,1.5153,1.5208,1.5228,1.4708,1.377,1.1661,0.7638,0.465,0.2497,0.0,0.0,0.0,0.206,0.5168,0.8203,1.0457,1.3016,1.5572,1.6217,1.6621,1.6863,1.6944,1.6965,1.6992,1.7066,1.708,1.7222,1.7317,1.729,1.7317,1.7304,1.7297,1.7216,1.7127,1.7053,1.7032,1.7005,1.6978,1.6978,1.6978,1.6978,1.6971,1.6965,1.7083,1.7706,1.9454,2.0592,2.08,2.1622,2.3465,2.5317,2.7057,2.8416,2.9945,0.0266,0.0,0.0,0.0,0.0,0.0,0.0,0.0,0.0,0.0,0.0,0.0,0.0,0.0,0.0,0.0,0.0,0.0,0.0,0.0,0.0,0.0,0.0,0.0,0.0,0.0,0.0,0.0,-0.2944,-0.3898,-0.6266,-0.9488,-1.0819,-1.2428,-1.4202,-1.439,-1.5113,-1.4639,-1.283,-0.9326,-0.4817,-0.1386,0.1384,0.3879,0.6117,0.8571,1.1615,1.3373,1.4772,1.4979,1.5181,1.5181,1.5181,1.5181,1.5181,1.516,1.516,1.5167,1.5181,1.5201,1.5208,1.5242,1.5309,1.5371,1.4201,1.1314,0.818,0.4753,0.2103,0.0,0.0,0.0,0.0,0.2702,0.4493,0.7974,1.0761,1.3289,1.5549,1.6426,1.6931,1.6951,1.6998,1.7005,1.7019,1.71,1.7195,1.7324,1.7392,1.7338,1.729,1.727,1.7202,1.7127,1.7087,1.7012,1.6965,1.6958,1.6944,1.6937,1.689,1.6876,1.6951,1.6951,1.6965,1.6978,1.8013,1.8835,1.9253,2.08,2.2855,2.5625,2.8291,2.9557,3.0708,0.0,0.0,0.0,0.0,0.0,0.0,0.0,0.0,0.0,0.0,0.0,0.0,0.0,0.0,0.0,0.0,0.0,0.0,0.0,0.0,0.0,0.0,0.0,0.0,0.0,0.0,-0.1679,0.0,-0.5103,-0.6076,-0.8069,-1.1003,-1.2799,-1.3896,-1.4506,-1.3641,-1.3091,-1.171,-0.9266,-0.6111,-0.3326,0.0,0.3334,0.5856,0.8307,1.0875,1.3098,1.4371,1.5181,1.5181,1.5181,1.5181,1.5181,1.5181,1.5181,1.5187,1.5269,1.5269,1.5208,1.5269,1.5303,1.535,1.5261,1.4886,1.3109,1.0152,0.6686,0.4134,0.1521,0.0,0.0,0.0,0.0,0.1993,0.4319,0.6966,1.0374,1.388,1.6124,1.6584,1.7046,1.708,1.7114,1.7141,1.7175,1.7236,1.7256,1.729,1.7338,1.7304,1.7256,1.7216,1.7134,1.7046,1.7026,1.6985,1.6904,1.6876,1.6836,1.6809,1.6741,1.6748,1.6849,1.6917,1.6931,1.6944,1.6971,1.7496,1.8424,2.0279,2.2338,2.4701,2.7159,3.0849,3.1958,0.0,0.0,0.0,0.0,0.0,0.0,0.0,0.0,0.0,0.0,0.0,0.0,0.0,0.0,0.0,0.0,0.0,0.0,0.0,0.0,0.0,0.0,0.0,0.0,0.0,0.0,0.0,-0.3545,-0.5458,-0.6807,-0.8029,-1.2102,-1.3022,-1.3809,-1.327,-1.1676,-1.0161,-0.872,-0.5918,-0.3795,-0.2041,0.1483,0.4659,0.7393,1.0049,1.2619,1.4778,1.5181,1.5181,1.5181,1.5181,1.5181,1.5181,1.5228,1.5255,1.5289,1.5384,1.5425,1.5391,1.5411,1.5452,1.5513,1.5408,1.4756,1.2201,0.9459,0.6709,0.4172,0.1537,0.0,0.0,0.0,0.0,0.0,0.4128,0.6465,0.9016,1.2837,1.5853,1.6763,1.7148,1.7243,1.7277,1.7311,1.7344,1.7378,1.7365,1.7304,1.7263,1.7243,1.7195,1.7141,1.708,1.7005,1.6985,1.6951,1.687,1.6795,1.6754,1.6727,1.6686,1.6714,1.6802,1.6856,1.6904,1.6937,1.6978,1.7286,1.7804,1.9767,2.1725,2.3165,2.5727,2.9712,3.2703,0.0,0.0,0.0,0.0,0.0,0.0,0.0,0.0,0.0,0.0,0.0,0.0,0.0,0.0,0.0,0.0,0.0,0.0,0.0,0.0,0.0,0.0,0.0,0.0,0.0,0.0,-0.12,-0.2598,-0.3833,-0.534,-0.889,-1.3573,-1.2064,-1.1618,-1.0756,-0.9107,-0.6715,-0.5299,-0.3433,-0.2045,-0.0187,0.2716,0.5261,0.7844,1.0229,1.261,1.4993,1.5181,1.5181,1.5181,1.5181,1.5208,1.5235,1.5309,1.535,1.5425,1.554,1.5588,1.5588,1.5588,1.5615,1.5662,1.5562,1.4804,1.2227,0.9613,0.6922,0.4195,0.1549,0.0,0.0,0.0,0.0,0.0,0.3714,0.6467,0.902,1.2113,1.4915,1.6504,1.7256,1.7372,1.7439,1.7467,1.7453,1.7487,1.7338,1.7277,1.7195,1.7154,1.7107,1.7053,1.7019,1.6978,1.6971,1.691,1.6815,1.6727,1.6666,1.6673,1.668,1.6727,1.6781,1.6856,1.6917,1.6951,1.6978,1.7188,1.7804,1.935,2.0999,2.2442,2.4392,2.7669,3.068,0.0,0.0,0.0,0.0,0.0,0.0,0.0,0.0,0.0,0.0,0.0,0.0,0.0,0.0,0.0,0.0,0.0,0.0,0.0,0.0,0.0,0.0,0.0,0.0,0.0,0.0,-0.1375,-0.2577,-0.3804,-0.4552,-0.6826,-0.9395,-0.9157,-0.9149,-0.8128,-0.6389,-0.3995,-0.2236,-0.1306,-0.0187,0.2341,0.4807,0.7376,0.9861,1.2422,1.3946,1.5087,1.5181,1.5181,1.5187,1.5187,1.5242,1.5316,1.5398,1.5472,1.5554,1.5689,1.5757,1.5771,1.5778,1.5805,1.5906,1.5875,1.4949,1.2442,0.9665,0.6982,0.4344,0.0,0.0,0.0,0.0,0.0,0.0,0.3403,0.6581,0.9564,1.2671,1.488,1.6923,1.7399,1.7541,1.7589,1.7623,1.7595,1.7568,1.7399,1.7243,1.7148,1.7087,1.7046,1.6998,1.6965,1.6904,1.6883,1.6822,1.6754,1.6666,1.6578,1.6598,1.6632,1.6714,1.6775,1.6849,1.6924,1.6958,1.6978,1.6978,1.7601,1.8529,1.9967,2.182,2.3878,2.5932,2.8439,0.0,0.0,-0.0824,-0.0641,0.0,0.0,0.0,0.0,0.0,0.0,0.0,0.0,0.0,0.0,0.0,0.0,0.0,0.0,0.0,0.0,0.0,0.0,0.0,0.0,0.0,0.0,0.0,-0.2564,-0.2497,-0.4428,-0.4878,-0.5052,-0.5325,-0.5429,-0.5697,-0.3793,-0.1673,-0.0374,0.1033,0.1696,0.3957,0.709,0.9105,1.148,1.3664,1.4798,1.5181,1.5187,1.5221,1.5242,1.5282,1.5337,1.5438,1.5527,1.5601,1.571,1.5825,1.5913,1.592,1.5934,1.5995,1.6103,1.6137,1.48,1.2445,0.9738,0.7043,0.4284,0.0,0.0,0.0,0.0,0.0,0.2129,0.5311,0.8385,1.1086,1.3907,1.5622,1.7365,1.7507,1.7616,1.7555,1.7548,1.7439,1.7392,1.7249,1.7121,1.7066,1.7019,1.7005,1.6965,1.6924,1.6849,1.6775,1.67,1.6632,1.6585,1.6517,1.6524,1.6564,1.6666,1.6788,1.689,1.6951,1.6971,1.6978,1.6978,1.6978,1.7083,1.8634,2.0175,2.2027,2.399,2.6366,0.0,0.0,-0.2586,-0.2218,0.0,0.0,0.0,0.0,0.0,0.0,0.0,0.0,0.0,0.0,0.0,0.0,0.0,0.0,0.0,0.0,0.0,0.0,0.0,0.0,0.0,0.0,0.0,0.0,0.0,0.0,0.0,0.0,0.0,-0.2028,-0.3288,-0.1395,-0.0094,0.0381,0.247,0.3417,0.5595,0.8916,1.072,1.2428,1.4071,1.5228,1.5228,1.5269,1.5316,1.5391,1.5404,1.5486,1.5615,1.573,1.5805,1.5852,1.5981,1.6056,1.6076,1.6076,1.6151,1.6252,1.6273,1.5037,1.2477,0.9764,0.7104,0.4312,0.0,0.0,0.0,0.0,0.0,0.4253,0.7432,0.9898,1.2514,1.4891,1.6638,1.7487,1.7575,1.7636,1.7528,1.7426,1.7277,1.7175,1.7066,1.7005,1.6985,1.6978,1.6978,1.6937,1.6897,1.6775,1.6686,1.6585,1.651,1.6469,1.6476,1.6497,1.6558,1.6666,1.6788,1.6917,1.6965,1.6978,1.6978,1.6978,1.6978,1.6978,1.6978,1.8215,2.0071,2.2184,2.4682,0.0,0.0,-0.2706,-0.3277,-0.2541,-0.2534,-0.2541,-0.2176,0.0,0.0,0.0,0.0,0.0,0.0,0.0,0.0,0.0,0.0,0.0,0.0,0.0,0.0,0.0,0.0,0.0,0.0,0.0,0.0,0.0,0.0,0.0,0.0,0.0,0.0,-0.0932,0.0,0.0571,0.2283,0.3708,0.5225,0.8542,1.0536,1.225,1.3682,1.4904,1.533,1.5343,1.5398,1.5486,1.5547,1.556,1.5635,1.5757,1.5964,1.5906,1.5967,1.6083,1.613,1.6198,1.6239,1.6252,1.6327,1.6205,1.5168,1.2595,0.9916,0.7139,0.4435,0.1804,0.1278,0.0,0.0,0.4253,0.6913,0.9682,1.133,1.3557,1.5782,1.7575,1.7623,1.7697,1.7595,1.7487,1.7331,1.7175,1.71,1.7012,1.6998,1.6978,1.6978,1.6978,1.6931,1.6863,1.6727,1.6605,1.6469,1.6374,1.632,1.6402,1.651,1.6592,1.6686,1.6815,1.6958,1.6971,1.6978,1.6978,1.6978,1.6978,1.6978,1.6978,1.6978,1.8327,2.0594,2.3148,-0.215,-0.1698,-0.4988,-0.6418,-0.6258,-0.5471,-0.4723,-0.3513,0.0,0.0,0.0,0.0,0.0,0.0,0.0,0.0,0.0,0.0,0.0,0.0,0.0,0.0,0.0,0.0,0.0,0.0,0.0,0.0,0.0,0.0,0.0,0.0,0.0,0.0,0.0843,0.1697,0.2088,0.3981,0.5488,0.8182,1.0673,1.2411,1.3679,1.4787,1.5432,1.5486,1.5513,1.5581,1.5669,1.5696,1.573,1.5784,1.5879,1.5947,1.5981,1.6056,1.6151,1.6205,1.6273,1.6449,1.6469,1.649,1.6558,1.468,1.1958,0.9364,0.6228,0.3607,0.1915,0.266,0.3828,0.4464,0.7128,0.9792,1.1339,1.3001,1.4877,1.714,1.7663,1.7717,1.7663,1.7555,1.7405,1.7243,1.7073,1.7026,1.6978,1.6971,1.6958,1.6937,1.691,1.6849,1.6748,1.6578,1.6442,1.632,1.6239,1.6178,1.6307,1.6483,1.6632,1.6734,1.6863,1.6971,1.6971,1.6978,1.6978,1.6978,1.6978,1.6978,1.6978,1.6978,1.6985,1.8866,2.1319,-0.6119,-0.4844,-0.9299,-1.1192,-1.0814,-0.8345,-0.6074,-0.3613,-0.1239,0.0,0.0,0.0,0.0,0.0,0.0,0.0,0.0,0.0,0.0,0.0,0.0,0.0,0.0,0.0,0.0,0.0,0.0,0.0,0.0,0.0,0.0,0.0,0.0,0.1581,0.2707,0.4234,0.4629,0.6312,0.8247,1.0588,1.2455,1.3961,1.4789,1.554,1.5608,1.5642,1.5662,1.5696,1.5771,1.5818,1.5866,1.5947,1.6022,1.6076,1.6083,1.613,1.6232,1.6286,1.6402,1.6598,1.67,1.6707,1.6741,1.3571,1.0875,0.8991,0.6253,0.4036,0.2554,0.3615,0.4676,0.7343,0.9914,1.1663,1.3124,1.486,1.6564,1.7677,1.7724,1.7717,1.7623,1.7494,1.729,1.7121,1.7026,1.6985,1.6944,1.691,1.6883,1.6829,1.6788,1.6707,1.6578,1.6395,1.6273,1.6218,1.6178,1.6144,1.6293,1.6463,1.6619,1.6768,1.6883,1.6958,1.6971,1.6978,1.6978,1.6978,1.6978,1.6978,1.6978,1.6978,1.6985,1.7199,1.9417,-0.7197,-0.6929,-1.0059,-1.1385,-1.1008,-0.8637,-0.6174,-0.3803,-0.2854,-0.181,0.0,0.0,0.0,0.0,0.0,0.0,0.0,0.0,0.0,0.0,0.0,0.0,0.0,0.0,0.0,0.0,0.0,0.0,0.0,0.0,0.0,0.0,0.0,0.2964,0.495,0.7356,0.8285,0.9334,1.1042,1.2376,1.371,1.5039,1.5608,1.5669,1.5764,1.5784,1.5805,1.5886,1.5954,1.5988,1.6008,1.6056,1.6062,1.609,1.6103,1.6232,1.6313,1.6388,1.6585,1.67,1.6795,1.6876,1.6897,1.5111,1.2184,0.9541,0.7111,0.5205,0.457,0.5738,0.7662,1.0134,1.2529,1.422,1.5284,1.6194,1.7677,1.7745,1.7772,1.7629,1.7541,1.7372,1.7168,1.708,1.6998,1.6958,1.691,1.6856,1.6788,1.6727,1.6659,1.6578,1.6456,1.6279,1.6239,1.6191,1.6151,1.6144,1.6313,1.6463,1.6598,1.6748,1.6883,1.6958,1.6971,1.6978,1.6978,1.6978,1.6978,1.6978,1.6978,1.6978,1.7104,1.753,1.9054,-1.0054,-0.9492,-1.1862,-1.2334,-1.1008,-0.8731,-0.6171,-0.3898,-0.276,-0.1334,0.0,0.0,0.0,0.0,0.0,0.0,0.0,0.0,0.0,0.0,0.0,0.0,0.0,0.0,0.0,0.0,0.0,0.0,0.0,0.0,0.0,0.0,0.3311,0.5022,0.7233,0.9784,1.1647,1.2416,1.334,1.4233,1.5009,1.5676,1.573,1.5811,1.5906,1.5927,1.594,1.6049,1.6069,1.6083,1.6083,1.6083,1.6103,1.6137,1.6185,1.632,1.6456,1.6558,1.6707,1.6802,1.689,1.6944,1.6978,1.6118,1.4312,1.1978,0.9228,0.6899,0.7538,0.8498,1.0661,1.2742,1.4981,1.7042,1.7291,1.7547,1.7738,1.7812,1.7711,1.7555,1.7399,1.7229,1.71,1.7026,1.6971,1.6944,1.6863,1.6748,1.6659,1.6558,1.6503,1.6435,1.632,1.6191,1.6171,1.6171,1.6171,1.6205,1.6368,1.651,1.6612,1.6754,1.6917,1.6965,1.6978,1.6978,1.6978,1.6978,1.6978,1.6978,1.6978,1.6978,1.7636,1.8775,2.0894,-1.3664,-1.139,-1.3664,-1.2616,-1.0625,-0.8069,-0.57,-0.3424,-0.1144,0.0,0.0,0.0,0.0,0.0,0.0,0.0,0.0,0.0,0.0,0.0,0.0,0.0,0.0,0.0,0.0,0.0,0.0,0.0,0.0,0.0642,0.2017,0.3746,0.4975,0.6932,1.0149,1.1745,1.338,1.4591,1.4938,1.5438,1.5596,1.5866,1.5934,1.6029,1.6062,1.6069,1.6069,1.6083,1.6083,1.6083,1.6083,1.6083,1.6123,1.6212,1.6279,1.6402,1.6564,1.67,1.6802,1.689,1.6937,1.6971,1.6978,1.6761,1.5382,1.3359,1.0496,0.9557,0.9984,1.0555,1.22,1.4356,1.6537,1.7399,1.7527,1.7738,1.7799,1.7772,1.7589,1.7433,1.7263,1.7107,1.7053,1.6978,1.6978,1.6951,1.6809,1.6659,1.6551,1.6429,1.6347,1.63,1.6225,1.6137,1.6123,1.613,1.6185,1.6273,1.6429,1.6564,1.6673,1.6815,1.6965,1.6978,1.6978,1.6978,1.6978,1.6978,1.6978,1.6978,1.6978,1.6978,1.7958,1.9481,2.1865,-1.3758,-1.1291,-0.9964,-0.7971,-0.57,-0.4941,-0.3329,-0.0954,-0.0382,0.0,0.0,0.0,0.0,0.0,0.0,0.0,0.0,0.0,0.0,0.0,0.0,0.0,0.0,0.0,0.0,0.0,0.0,0.0,0.0,0.1564,0.3145,0.4312,0.6663,1.028,1.2048,1.34,1.4932,1.5825,1.5886,1.5886,1.5872,1.5974,1.6056,1.6083,1.6083,1.6083,1.6083,1.6083,1.6083,1.6083,1.6083,1.6083,1.609,1.6232,1.6361,1.6483,1.6653,1.6795,1.6883,1.6944,1.6971,1.6978,1.6978,1.6978,1.6019,1.399,1.2726,1.2324,1.2359,1.2838,1.3781,1.5979,1.7555,1.765,1.7738,1.7799,1.7853,1.7656,1.7467,1.7304,1.7134,1.7053,1.6998,1.6978,1.6978,1.687,1.6686,1.6537,1.6449,1.6341,1.6225,1.6171,1.6151,1.6096,1.6083,1.611,1.6178,1.6293,1.6442,1.6585,1.6734,1.6856,1.6978,1.6978,1.6978,1.6978,1.6978,1.6978,1.6978,1.6978,1.6978,1.6978,1.8731,2.0441,2.2797,-1.2045,-0.9488,-0.6929,-0.513,-0.3803,-0.2665,-0.1239,0.0,0.0,0.0,0.0,0.0,0.0,0.0,0.0,0.0,0.0,0.0,0.0,0.0,0.0,0.0,0.0,0.0,0.0,0.0,0.0,0.0,0.0,0.2423,0.4134,0.5895,0.9711,1.2357,1.3372,1.51,1.59,1.6062,1.6076,1.6029,1.5947,1.6029,1.6083,1.6083,1.6083,1.6083,1.6083,1.6083,1.6083,1.6083,1.6083,1.6144,1.6198,1.6341,1.6476,1.6619,1.6768,1.689,1.6951,1.6978,1.6978,1.6978,1.6978,1.6978,1.6978,1.5165,1.5165,1.4874,1.4957,1.5348,1.5588,1.7162,1.7636,1.7751,1.7785,1.7819,1.7704,1.75,1.7365,1.7249,1.7107,1.7019,1.6978,1.6978,1.6951,1.6822,1.6625,1.6476,1.6381,1.6279,1.6151,1.6083,1.6083,1.6083,1.6083,1.6123,1.6185,1.6313,1.6463,1.6639,1.6802,1.6897,1.6978,1.6978,1.6978,1.6978,1.6978,1.6978,1.6978,1.6978,1.6978,1.6978,1.9044,2.1103,2.3465,-0.9393,-0.6932,-0.4373,-0.3329,-0.3046,-0.1049,0.0,0.0,0.0,0.0,0.0,0.0,0.0,0.0,0.0,0.0,0.0,0.0,0.0,0.0,0.0,0.0,0.0,0.0,0.0,0.0,0.0,0.0,0.0,0.3482,0.6085,0.8332,1.0892,1.3464,1.5198,1.5981,1.6076,1.6076,1.6083,1.6083,1.6076,1.6083,1.6083,1.6083,1.6083,1.6083,1.6083,1.6103,1.6103,1.6144,1.6171,1.6246,1.6341,1.6469,1.6585,1.6727,1.6856,1.6937,1.6978,1.6978,1.6978,1.6978,1.6978,1.6978,1.6985,1.69,1.6795,1.6855,1.6956,1.7069,1.7217,1.7473,1.7724,1.7792,1.7799,1.7745,1.7541,1.7358,1.727,1.7175,1.7087,1.6985,1.6978,1.6978,1.689,1.6761,1.6619,1.6476,1.6341,1.6232,1.6117,1.6083,1.6083,1.6083,1.6083,1.6117,1.6171,1.6368,1.6524,1.6707,1.6863,1.6937,1.6978,1.6978,1.6978,1.6978,1.6978,1.6978,1.6978,1.6978,1.6978,1.7188,1.8424,2.0687,2.3672,-0.6838,-0.4276,-0.181,0.0,0.0,0.0,0.0,0.0,0.0,0.0,0.0,0.0,0.0,0.0,0.0,0.0,0.0,0.0,0.0,0.0,0.0,0.0,0.0,0.0,0.0,0.0,0.0,0.0,0.2454,0.5349,0.8199,1.0689,1.3532,1.5165,1.5486,1.5988,1.6083,1.6083,1.6083,1.6083,1.6083,1.6083,1.6083,1.6083,1.6083,1.6083,1.611,1.6205,1.6246,1.63,1.6361,1.6422,1.6503,1.6598,1.67,1.6788,1.6917,1.6958,1.6978,1.6978,1.6978,1.6978,1.6985,1.6992,1.7026,1.71,1.7021,1.7096,1.7203,1.7325,1.746,1.7601,1.784,1.7772,1.7751,1.7548,1.7338,1.7243,1.7168,1.7093,1.7019,1.6978,1.6978,1.6951,1.6897,1.6761,1.6612,1.6463,1.6293,1.6185,1.6083,1.6083,1.6083,1.6083,1.6083,1.609,1.6164,1.6374,1.6571,1.6734,1.6863,1.6944,1.6978,1.6978,1.6978,1.6978,1.6978,1.6978,1.6978,1.6978,1.6978,1.7286,1.8424,2.0592,2.3878]}]]